| time (UTC) | temp F | wind direction | speed MPH | gust MPH | rain 1hr in | rain 24hr in | rain mn in | humidity % | barometer mb |
| 20260504231608 | 74 | 130 | 15.0 | 21.0 | 0.00 | 0.00 | 0.00 | 73 | 1015.1 |
| 20260504231332 | 78 | 132 | 13.0 | 18.0 | 0.00 | 0.00 | 0.00 | 64 | 1015.2 |
| 20260504231327 | 78 | 123 | 13.0 | 18.0 | 0.00 | 0.00 | 0.00 | 67 | 1015.2 |
| 20260504231322 | 75 | 111 | 15.0 | 18.0 | 0.00 | 0.00 | 0.00 | 71 | 1015.1 |
| 20260504231317 | 75 | 122 | 16.0 | 20.0 | 0.00 | 0.00 | 0.00 | 73 | 1015.1 |
| 20260504231030 | 74 | 111 | 16.0 | 19.0 | 0.00 | 0.00 | 0.00 | 71 | 1014.9 |
| 20260504230901 | 80 | 123 | 10.0 | 18.0 | 0.00 | 0.00 | 0.00 | 62 | 1015.6 |
| 20260504230855 | 78 | 113 | 12.0 | 18.0 | 0.00 | 0.00 | 0.00 | 65 | 1015.2 |
| 20260504230849 | 76 | 117 | 15.0 | 20.0 | 0.00 | 0.00 | 0.00 | 70 | 1015.2 |
| 20260504230845 | 79 | 111 | 12.0 | 15.0 | 0.00 | 0.00 | 0.00 | 64 | 1015.4 |
| 20260504230719 | 78 | 123 | 13.0 | 18.0 | 0.00 | 0.00 | 0.00 | 67 | 1015.2 |
| 20260504230714 | 75 | 111 | 15.0 | 18.0 | 0.00 | 0.00 | 0.00 | 71 | 1015.1 |
| 20260504230708 | 79 | 123 | 12.0 | 16.0 | 0.00 | 0.00 | 0.00 | 64 | 1015.3 |
| 20260504230704 | 78 | 117 | 13.0 | 20.0 | 0.00 | 0.00 | 0.00 | 68 | 1015.3 |
| 20260504230657 | 79 | 103 | 13.0 | 20.0 | 0.00 | 0.00 | 0.00 | 64 | 1015.2 |
| 20260504230651 | 75 | 122 | 16.0 | 20.0 | 0.00 | 0.00 | 0.00 | 73 | 1015.1 |
| 20260504230646 | 74 | 106 | 15.0 | 20.0 | 0.00 | 0.00 | 0.00 | 72 | 1015.0 |
| 20260504230521 | 74 | 111 | 16.0 | 19.0 | 0.00 | 0.00 | 0.00 | 71 | 1014.9 |
| 20260504230354 | 78 | 113 | 12.0 | 18.0 | 0.00 | 0.00 | 0.00 | 65 | 1015.2 |
| 20260504230349 | 76 | 117 | 15.0 | 20.0 | 0.00 | 0.00 | 0.00 | 70 | 1015.2 |
| 20260504230220 | 75 | 111 | 15.0 | 18.0 | 0.00 | 0.00 | 0.00 | 71 | 1015.1 |
| 20260504230052 | 75 | 122 | 16.0 | 20.0 | 0.00 | 0.00 | 0.00 | 73 | 1015.1 |
| 20260504230046 | 74 | 106 | 15.0 | 20.0 | 0.00 | 0.00 | 0.00 | 72 | 1015.0 |
| 20260504230041 | 78 | 140 | 9.0 | 13.0 | 0.00 | 0.00 | 0.00 | 60 | 1017.0 |
| 20260504230035 | 78 | 141 | 10.0 | 14.0 | 0.00 | 0.09 | 0.00 | 57 | 1017.0 |
| 20260504230030 | 77 | 144 | 9.0 | 12.0 | 0.00 | 0.21 | 0.00 | 59 | 1017.0 |
| 20260504230024 | 79 | 124 | 11.0 | 15.0 | 0.00 | 0.00 | 0.00 | 61 | 1016.1 |
| 20260504230020 | 78 | 111 | 12.0 | 18.0 | 0.00 | 0.00 | 0.00 | 66 | 1015.3 |
| 20260504225853 | 78 | 132 | 11.0 | 14.0 | 0.00 | 0.00 | 0.00 | 59 | 1016.3 |
| 20260504225848 | 79 | 120 | 10.0 | 15.0 | 0.00 | 0.00 | 0.00 | 59 | 1016.1 |
| 20260504225843 | 76 | 117 | 15.0 | 20.0 | 0.00 | 0.00 | 0.00 | 70 | 1015.2 |
| 20260504225716 | 80 | 123 | 11.0 | 14.0 | 0.00 | 0.00 | 0.00 | 59 | 1015.9 |
| 20260504225711 | 81 | 117 | 9.0 | 14.0 | 0.00 | 0.00 | 0.00 | 59 | 1015.7 |
| 20260504225705 | 80 | 109 | 11.0 | 14.0 | 0.00 | 0.00 | 0.00 | 61 | 1015.7 |
| 20260504225700 | 81 | 123 | 11.0 | 16.0 | 0.00 | 0.00 | 0.00 | 60 | 1015.7 |
| 20260504225653 | 80 | 109 | 12.0 | 18.0 | 0.00 | 0.00 | 0.00 | 62 | 1015.7 |
| 20260504225649 | 80 | 123 | 10.0 | 18.0 | 0.00 | 0.00 | 0.00 | 62 | 1015.6 |
| 20260504225644 | 79 | 111 | 12.0 | 15.0 | 0.00 | 0.00 | 0.00 | 64 | 1015.4 |
| 20260504225639 | 79 | 121 | 12.0 | 16.0 | 0.00 | 0.00 | 0.00 | 64 | 1015.5 |
| 20260504225633 | 79 | 123 | 12.0 | 16.0 | 0.00 | 0.00 | 0.00 | 64 | 1015.3 |
| 20260504225628 | 75 | 111 | 15.0 | 18.0 | 0.00 | 0.00 | 0.00 | 71 | 1015.1 |
| 20260504225622 | 78 | 117 | 13.0 | 20.0 | 0.00 | 0.00 | 0.00 | 68 | 1015.3 |
| 20260504225618 | 79 | 103 | 13.0 | 20.0 | 0.00 | 0.00 | 0.00 | 64 | 1015.2 |
| 20260504225612 | 78 | 132 | 13.0 | 18.0 | 0.00 | 0.00 | 0.00 | 64 | 1015.2 |
| 20260504225607 | 78 | 113 | 12.0 | 18.0 | 0.00 | 0.00 | 0.00 | 65 | 1015.2 |
| 20260504225602 | 78 | 123 | 13.0 | 18.0 | 0.00 | 0.00 | 0.00 | 67 | 1015.2 |
| 20260504225554 | 75 | 122 | 16.0 | 20.0 | 0.00 | 0.00 | 0.00 | 73 | 1015.1 |
| 20260504225542 | 74 | 106 | 15.0 | 20.0 | 0.00 | 0.00 | 0.00 | 72 | 1015.0 |
| 20260504225017 | 78 | 39 | 8.0 | 12.0 | 0.00 | 0.21 | 0.00 | 51 | 1018.1 |
| 20260504225012 | 79 | 111 | 12.0 | 15.0 | 0.00 | 0.00 | 0.00 | 64 | 1015.4 |
| 20260504225008 | 78 | 117 | 13.0 | 20.0 | 0.00 | 0.00 | 0.00 | 68 | 1015.3 |
| 20260504225002 | 75 | 122 | 16.0 | 20.0 | 0.00 | 0.00 | 0.00 | 73 | 1015.1 |
| 20260504224958 | 78 | 132 | 13.0 | 18.0 | 0.00 | 0.00 | 0.00 | 64 | 1015.2 |
| 20260504224952 | 76 | 0.0 | 0.0 | 0.00 | 0.21 | 0.00 | 49 | 1017.9 | |
| 20260504224945 | 79 | 103 | 13.0 | 20.0 | 0.00 | 0.00 | 0.00 | 64 | 1015.2 |
| 20260504224940 | 78 | 113 | 12.0 | 18.0 | 0.00 | 0.00 | 0.00 | 65 | 1015.2 |
| 20260504224934 | 76 | 0.0 | 3.0 | 0.00 | 0.21 | 0.00 | 49 | 1017.9 | |
| 20260504224930 | 78 | 111 | 12.0 | 18.0 | 0.00 | 0.00 | 0.00 | 66 | 1015.3 |
| 20260504224925 | 78 | 123 | 13.0 | 18.0 | 0.00 | 0.00 | 0.00 | 67 | 1015.2 |
| 20260504224919 | 76 | 0.0 | 0.0 | 0.00 | 0.21 | 0.00 | 49 | 1017.9 | |
| 20260504224913 | 76 | 0.0 | 0.0 | 0.00 | 0.21 | 0.00 | 50 | 1017.8 | |
| 20260504224908 | 80 | 0.0 | 0.0 | 0.00 | 0.21 | 0.00 | 56 | 1017.6 | |
| 20260504224902 | 78 | 0.0 | 0.0 | 0.00 | 0.21 | 0.00 | 51 | 1017.8 | |
| 20260504224858 | 77 | 0.0 | 0.0 | 0.00 | 0.21 | 0.00 | 54 | 1017.9 | |
| 20260504224852 | 77 | 0.0 | 0.0 | 0.00 | 0.21 | 0.00 | 57 | 1017.4 | |
| 20260504224846 | 78 | 0.0 | 0.0 | 0.00 | 0.21 | 0.00 | 52 | 1017.5 | |
| 20260504224840 | 78 | 132 | 10.0 | 13.0 | 0.00 | 0.21 | 0.00 | 57 | 1017.1 |
| 20260504224834 | 77 | 130 | 9.0 | 14.0 | 0.00 | 0.21 | 0.00 | 60 | 1017.2 |
| 20260504224829 | 76 | 149 | 10.0 | 14.0 | 0.00 | 0.21 | 0.00 | 56 | 1017.4 |
| 20260504224823 | 79 | 132 | 10.0 | 14.0 | 0.00 | 0.00 | 0.00 | 60 | 1016.5 |
| 20260504224819 | 78 | 132 | 8.0 | 12.0 | 0.00 | 0.00 | 0.00 | 57 | 1016.8 |
| 20260504224815 | 77 | 138 | 8.0 | 12.0 | 0.00 | 0.00 | 0.00 | 53 | 1016.9 |
| 20260504224809 | 79 | 124 | 11.0 | 15.0 | 0.00 | 0.00 | 0.00 | 61 | 1016.1 |
| 20260504224804 | 76 | 117 | 15.0 | 20.0 | 0.00 | 0.00 | 0.00 | 70 | 1015.2 |
| 20260504224759 | 79 | 130 | 11.0 | 15.0 | 0.00 | 0.00 | 0.00 | 62 | 1016.2 |
| 20260504224753 | 78 | 132 | 11.0 | 14.0 | 0.00 | 0.00 | 0.00 | 59 | 1016.3 |
| 20260504224625 | 80 | 123 | 11.0 | 14.0 | 0.00 | 0.00 | 0.00 | 59 | 1015.9 |
| 20260504224620 | 80 | 109 | 11.0 | 14.0 | 0.00 | 0.00 | 0.00 | 61 | 1015.7 |
| 20260504224614 | 81 | 117 | 9.0 | 14.0 | 0.00 | 0.00 | 0.00 | 59 | 1015.7 |
| 20260504224608 | 80 | 109 | 12.0 | 18.0 | 0.00 | 0.00 | 0.00 | 62 | 1015.7 |
| 20260504224604 | 79 | 120 | 10.0 | 15.0 | 0.00 | 0.00 | 0.00 | 59 | 1016.1 |
| 20260504224559 | 81 | 123 | 11.0 | 16.0 | 0.00 | 0.00 | 0.00 | 60 | 1015.7 |
| 20260504224553 | 78 | 140 | 9.0 | 13.0 | 0.00 | 0.00 | 0.00 | 60 | 1017.0 |
| 20260504224548 | 78 | 141 | 10.0 | 14.0 | 0.00 | 0.09 | 0.00 | 57 | 1017.0 |
| 20260504224542 | 79 | 121 | 12.0 | 16.0 | 0.00 | 0.00 | 0.00 | 64 | 1015.5 |
| 20260504224535 | 75 | 111 | 15.0 | 18.0 | 0.00 | 0.00 | 0.00 | 71 | 1015.1 |
| 20260504224530 | 79 | 123 | 12.0 | 16.0 | 0.00 | 0.00 | 0.00 | 64 | 1015.3 |
| 20260504224524 | 77 | 144 | 9.0 | 12.0 | 0.00 | 0.21 | 0.00 | 59 | 1017.0 |
| 20260504224519 | 79 | 139 | 9.0 | 14.0 | 0.00 | 0.00 | 0.00 | 58 | 1016.6 |
| 20260504224513 | 80 | 123 | 10.0 | 18.0 | 0.00 | 0.00 | 0.00 | 62 | 1015.6 |
| 20260504224509 | 75 | 122 | 16.0 | 20.0 | 0.00 | 0.00 | 0.00 | 73 | 1015.1 |
| 20260504224503 | 79 | 111 | 12.0 | 15.0 | 0.00 | 0.00 | 0.00 | 64 | 1015.4 |
| 20260504224458 | 78 | 117 | 13.0 | 20.0 | 0.00 | 0.00 | 0.00 | 68 | 1015.3 |
| 20260504224454 | 79 | 103 | 13.0 | 20.0 | 0.00 | 0.00 | 0.00 | 64 | 1015.2 |
| 20260504224448 | 78 | 113 | 12.0 | 18.0 | 0.00 | 0.00 | 0.00 | 65 | 1015.2 |
| 20260504224443 | 78 | 132 | 13.0 | 18.0 | 0.00 | 0.00 | 0.00 | 64 | 1015.2 |
| 20260504224435 | 78 | 111 | 12.0 | 18.0 | 0.00 | 0.00 | 0.00 | 66 | 1015.3 |
| 20260504224431 | 78 | 123 | 13.0 | 18.0 | 0.00 | 0.00 | 0.00 | 67 | 1015.2 |
| 20260504224145 | 79 | 130 | 11.0 | 15.0 | 0.00 | 0.00 | 0.00 | 62 | 1016.2 |
| 20260504224136 | 78 | 132 | 11.0 | 14.0 | 0.00 | 0.00 | 0.00 | 59 | 1016.3 |
| 20260504224132 | 79 | 120 | 10.0 | 15.0 | 0.00 | 0.00 | 0.00 | 59 | 1016.1 |
| 20260504224128 | 80 | 129 | 10.0 | 13.0 | 0.00 | 0.00 | 0.00 | 62 | 1015.9 |
| 20260504224122 | 80 | 123 | 11.0 | 14.0 | 0.00 | 0.00 | 0.00 | 59 | 1015.9 |
| 20260504224116 | 81 | 117 | 9.0 | 14.0 | 0.00 | 0.00 | 0.00 | 59 | 1015.7 |
| 20260504224112 | 80 | 109 | 11.0 | 14.0 | 0.00 | 0.00 | 0.00 | 61 | 1015.7 |
| 20260504224107 | 81 | 123 | 11.0 | 16.0 | 0.00 | 0.00 | 0.00 | 60 | 1015.7 |
| 20260504224101 | 80 | 109 | 12.0 | 18.0 | 0.00 | 0.00 | 0.00 | 62 | 1015.7 |
| 20260504224056 | 75 | 111 | 15.0 | 18.0 | 0.00 | 0.00 | 0.00 | 71 | 1015.1 |
| 20260504224050 | 79 | 121 | 12.0 | 16.0 | 0.00 | 0.00 | 0.00 | 64 | 1015.5 |
| 20260504224046 | 79 | 123 | 12.0 | 16.0 | 0.00 | 0.00 | 0.00 | 64 | 1015.3 |
| 20260504223757 | 79 | 111 | 12.0 | 15.0 | 0.00 | 0.00 | 0.00 | 64 | 1015.4 |
| 20260504223751 | 78 | 117 | 13.0 | 20.0 | 0.00 | 0.00 | 0.00 | 68 | 1015.3 |
| 20260504223746 | 78 | 111 | 12.0 | 18.0 | 0.00 | 0.00 | 0.00 | 66 | 1015.3 |
| 20260504223740 | 79 | 103 | 13.0 | 20.0 | 0.00 | 0.00 | 0.00 | 64 | 1015.2 |
| 20260504223734 | 78 | 132 | 13.0 | 18.0 | 0.00 | 0.00 | 0.00 | 64 | 1015.2 |
| 20260504223727 | 78 | 123 | 13.0 | 18.0 | 0.00 | 0.00 | 0.00 | 67 | 1015.2 |
| 20260504223722 | 76 | 117 | 15.0 | 20.0 | 0.00 | 0.00 | 0.00 | 70 | 1015.2 |
| 20260504223435 | 79 | 132 | 10.0 | 14.0 | 0.00 | 0.00 | 0.00 | 60 | 1016.5 |
| 20260504223426 | 79 | 121 | 12.0 | 16.0 | 0.00 | 0.00 | 0.00 | 64 | 1015.5 |
| 20260504223422 | 78 | 132 | 8.0 | 12.0 | 0.00 | 0.00 | 0.00 | 57 | 1016.8 |
| 20260504223417 | 77 | 138 | 8.0 | 12.0 | 0.00 | 0.00 | 0.00 | 53 | 1016.9 |
| 20260504223411 | 79 | 139 | 9.0 | 14.0 | 0.00 | 0.00 | 0.00 | 58 | 1016.6 |
| 20260504223407 | 79 | 124 | 11.0 | 15.0 | 0.00 | 0.00 | 0.00 | 61 | 1016.1 |
| 20260504223402 | 79 | 130 | 11.0 | 15.0 | 0.00 | 0.00 | 0.00 | 62 | 1016.2 |
| 20260504223356 | 79 | 123 | 12.0 | 16.0 | 0.00 | 0.00 | 0.00 | 64 | 1015.3 |
| 20260504223352 | 78 | 113 | 12.0 | 18.0 | 0.00 | 0.00 | 0.00 | 65 | 1015.2 |
| 20260504223224 | 78 | 111 | 12.0 | 18.0 | 0.00 | 0.00 | 0.00 | 66 | 1015.3 |
| 20260504223219 | 79 | 120 | 10.0 | 15.0 | 0.00 | 0.00 | 0.00 | 59 | 1016.1 |
| 20260504223053 | 80 | 123 | 11.0 | 14.0 | 0.00 | 0.00 | 0.00 | 59 | 1015.9 |
| 20260504223047 | 78 | 117 | 13.0 | 20.0 | 0.00 | 0.00 | 0.00 | 68 | 1015.3 |
| 20260504223043 | 81 | 117 | 9.0 | 14.0 | 0.00 | 0.00 | 0.00 | 59 | 1015.7 |
| 20260504223037 | 80 | 109 | 11.0 | 14.0 | 0.00 | 0.00 | 0.00 | 61 | 1015.7 |
| 20260504223032 | 81 | 123 | 11.0 | 16.0 | 0.00 | 0.00 | 0.00 | 60 | 1015.7 |
| 20260504223026 | 79 | 103 | 13.0 | 20.0 | 0.00 | 0.00 | 0.00 | 64 | 1015.2 |
| 20260504223019 | 80 | 109 | 12.0 | 18.0 | 0.00 | 0.00 | 0.00 | 62 | 1015.7 |
| 20260504223014 | 78 | 132 | 13.0 | 18.0 | 0.00 | 0.00 | 0.00 | 64 | 1015.2 |
| 20260504223008 | 76 | 117 | 15.0 | 20.0 | 0.00 | 0.00 | 0.00 | 70 | 1015.2 |
| 20260504223003 | 80 | 123 | 10.0 | 18.0 | 0.00 | 0.00 | 0.00 | 62 | 1015.6 |
| 20260504222958 | 78 | 123 | 13.0 | 18.0 | 0.00 | 0.00 | 0.00 | 67 | 1015.2 |
| 20260504222953 | 79 | 111 | 12.0 | 15.0 | 0.00 | 0.00 | 0.00 | 64 | 1015.4 |
| 20260504222947 | 79 | 121 | 12.0 | 16.0 | 0.00 | 0.00 | 0.00 | 64 | 1015.5 |
| 20260504222821 | 78 | 113 | 12.0 | 18.0 | 0.00 | 0.00 | 0.00 | 65 | 1015.2 |
| 20260504222535 | 79 | 103 | 13.0 | 20.0 | 0.00 | 0.00 | 0.00 | 64 | 1015.2 |
| 20260504222529 | 78 | 132 | 13.0 | 18.0 | 0.00 | 0.00 | 0.00 | 64 | 1015.2 |
| 20260504222523 | 78 | 123 | 13.0 | 18.0 | 0.00 | 0.00 | 0.00 | 67 | 1015.2 |
| 20260504222515 | 76 | 117 | 15.0 | 20.0 | 0.00 | 0.00 | 0.00 | 70 | 1015.2 |
| 20260504222350 | 77 | 130 | 9.0 | 14.0 | 0.00 | 0.21 | 0.00 | 60 | 1017.2 |
| 20260504222345 | 78 | 140 | 9.0 | 13.0 | 0.00 | 0.00 | 0.00 | 60 | 1017.0 |
| 20260504222339 | 79 | 111 | 12.0 | 15.0 | 0.00 | 0.00 | 0.00 | 64 | 1015.4 |
| 20260504222213 | 78 | 113 | 12.0 | 18.0 | 0.00 | 0.00 | 0.00 | 65 | 1015.2 |
| 20260504222209 | 77 | 144 | 9.0 | 12.0 | 0.00 | 0.21 | 0.00 | 59 | 1017.0 |
| 20260504222203 | 78 | 111 | 12.0 | 18.0 | 0.00 | 0.00 | 0.00 | 66 | 1015.3 |
| 20260504222158 | 78 | 132 | 10.0 | 13.0 | 0.00 | 0.21 | 0.00 | 57 | 1017.1 |
| 20260504222152 | 79 | 132 | 10.0 | 14.0 | 0.00 | 0.00 | 0.00 | 60 | 1016.5 |
| 20260504222146 | 78 | 132 | 8.0 | 12.0 | 0.00 | 0.00 | 0.00 | 57 | 1016.8 |
| 20260504222142 | 77 | 138 | 8.0 | 12.0 | 0.00 | 0.00 | 0.00 | 53 | 1016.9 |
| 20260504222136 | 79 | 139 | 9.0 | 14.0 | 0.00 | 0.00 | 0.00 | 58 | 1016.6 |
| 20260504222131 | 79 | 124 | 11.0 | 15.0 | 0.00 | 0.00 | 0.00 | 61 | 1016.1 |
| 20260504222126 | 79 | 130 | 11.0 | 15.0 | 0.00 | 0.00 | 0.00 | 62 | 1016.2 |
| 20260504222121 | 78 | 132 | 11.0 | 14.0 | 0.00 | 0.00 | 0.00 | 59 | 1016.3 |
| 20260504222116 | 79 | 120 | 10.0 | 15.0 | 0.00 | 0.00 | 0.00 | 59 | 1016.1 |
| 20260504222109 | 80 | 129 | 10.0 | 13.0 | 0.00 | 0.00 | 0.00 | 62 | 1015.9 |
| 20260504222105 | 80 | 123 | 11.0 | 14.0 | 0.00 | 0.00 | 0.00 | 59 | 1015.9 |
| 20260504222059 | 81 | 123 | 11.0 | 16.0 | 0.00 | 0.00 | 0.00 | 60 | 1015.7 |
| 20260504222053 | 81 | 117 | 9.0 | 14.0 | 0.00 | 0.00 | 0.00 | 59 | 1015.7 |
| 20260504222048 | 80 | 109 | 11.0 | 14.0 | 0.00 | 0.00 | 0.00 | 61 | 1015.7 |
| 20260504222044 | 80 | 109 | 12.0 | 18.0 | 0.00 | 0.00 | 0.00 | 62 | 1015.7 |
| 20260504222038 | 80 | 123 | 10.0 | 18.0 | 0.00 | 0.00 | 0.00 | 62 | 1015.6 |
| 20260504222033 | 79 | 121 | 12.0 | 16.0 | 0.00 | 0.00 | 0.00 | 64 | 1015.5 |
| 20260504222027 | 79 | 123 | 12.0 | 16.0 | 0.00 | 0.00 | 0.00 | 64 | 1015.3 |
| 20260504222023 | 78 | 117 | 13.0 | 20.0 | 0.00 | 0.00 | 0.00 | 68 | 1015.3 |
| 20260504222017 | 79 | 103 | 13.0 | 20.0 | 0.00 | 0.00 | 0.00 | 64 | 1015.2 |
| 20260504222012 | 78 | 123 | 13.0 | 18.0 | 0.00 | 0.00 | 0.00 | 67 | 1015.2 |
| 20260504221846 | 78 | 132 | 13.0 | 18.0 | 0.00 | 0.00 | 0.00 | 64 | 1015.2 |
| 20260504221721 | 78 | 111 | 12.0 | 18.0 | 0.00 | 0.00 | 0.00 | 66 | 1015.3 |
| 20260504221553 | 79 | 120 | 10.0 | 15.0 | 0.00 | 0.00 | 0.00 | 59 | 1016.1 |
| 20260504221547 | 80 | 129 | 10.0 | 13.0 | 0.00 | 0.00 | 0.00 | 62 | 1015.9 |
| 20260504221542 | 80 | 123 | 11.0 | 14.0 | 0.00 | 0.00 | 0.00 | 59 | 1015.9 |
| 20260504221537 | 81 | 117 | 9.0 | 14.0 | 0.00 | 0.00 | 0.00 | 59 | 1015.7 |
| 20260504221532 | 80 | 109 | 11.0 | 14.0 | 0.00 | 0.00 | 0.00 | 61 | 1015.7 |
| 20260504221527 | 81 | 123 | 11.0 | 16.0 | 0.00 | 0.00 | 0.00 | 60 | 1015.7 |
| 20260504221521 | 80 | 109 | 12.0 | 18.0 | 0.00 | 0.00 | 0.00 | 62 | 1015.7 |
| 20260504221516 | 80 | 123 | 10.0 | 18.0 | 0.00 | 0.00 | 0.00 | 62 | 1015.6 |
| 20260504221510 | 78 | 123 | 13.0 | 18.0 | 0.00 | 0.00 | 0.00 | 67 | 1015.2 |
| 20260504221505 | 79 | 121 | 12.0 | 16.0 | 0.00 | 0.00 | 0.00 | 64 | 1015.5 |
| 20260504221458 | 79 | 123 | 12.0 | 16.0 | 0.00 | 0.00 | 0.00 | 64 | 1015.3 |
| 20260504221452 | 78 | 117 | 13.0 | 20.0 | 0.00 | 0.00 | 0.00 | 68 | 1015.3 |
| 20260504221447 | 79 | 103 | 13.0 | 20.0 | 0.00 | 0.00 | 0.00 | 64 | 1015.2 |
| 20260504221324 | 78 | 132 | 13.0 | 18.0 | 0.00 | 0.00 | 0.00 | 64 | 1015.2 |
| 20260504221157 | 78 | 111 | 12.0 | 18.0 | 0.00 | 0.00 | 0.00 | 66 | 1015.3 |
| 20260504221030 | 78 | 141 | 10.0 | 14.0 | 0.00 | 0.09 | 0.00 | 57 | 1017.0 |
| 20260504221025 | 77 | 144 | 9.0 | 12.0 | 0.00 | 0.21 | 0.00 | 59 | 1017.0 |
| 20260504221020 | 79 | 132 | 10.0 | 14.0 | 0.00 | 0.00 | 0.00 | 60 | 1016.5 |
| 20260504221014 | 78 | 132 | 8.0 | 12.0 | 0.00 | 0.00 | 0.00 | 57 | 1016.8 |
| 20260504221009 | 77 | 138 | 8.0 | 12.0 | 0.00 | 0.00 | 0.00 | 53 | 1016.9 |
| 20260504221004 | 79 | 139 | 9.0 | 14.0 | 0.00 | 0.00 | 0.00 | 58 | 1016.6 |
| 20260504220957 | 79 | 130 | 11.0 | 15.0 | 0.00 | 0.00 | 0.00 | 62 | 1016.2 |
| 20260504220952 | 78 | 132 | 11.0 | 14.0 | 0.00 | 0.00 | 0.00 | 59 | 1016.3 |
| 20260504220946 | 79 | 124 | 11.0 | 15.0 | 0.00 | 0.00 | 0.00 | 61 | 1016.1 |
| 20260504220941 | 79 | 120 | 10.0 | 15.0 | 0.00 | 0.00 | 0.00 | 59 | 1016.1 |
| 20260504220937 | 80 | 123 | 11.0 | 14.0 | 0.00 | 0.00 | 0.00 | 59 | 1015.9 |
| 20260504220931 | 80 | 129 | 10.0 | 13.0 | 0.00 | 0.00 | 0.00 | 62 | 1015.9 |
| 20260504220927 | 81 | 123 | 11.0 | 16.0 | 0.00 | 0.00 | 0.00 | 60 | 1015.7 |
| 20260504220921 | 81 | 117 | 9.0 | 14.0 | 0.00 | 0.00 | 0.00 | 59 | 1015.7 |
| 20260504220916 | 80 | 109 | 12.0 | 18.0 | 0.00 | 0.00 | 0.00 | 62 | 1015.7 |
| 20260504220910 | 80 | 123 | 10.0 | 18.0 | 0.00 | 0.00 | 0.00 | 62 | 1015.6 |
| 20260504220905 | 78 | 117 | 13.0 | 20.0 | 0.00 | 0.00 | 0.00 | 68 | 1015.3 |
| 20260504220857 | 79 | 123 | 12.0 | 16.0 | 0.00 | 0.00 | 0.00 | 64 | 1015.3 |
| 20260504220852 | 80 | 109 | 11.0 | 14.0 | 0.00 | 0.00 | 0.00 | 61 | 1015.7 |
| 20260504220846 | 79 | 121 | 12.0 | 16.0 | 0.00 | 0.00 | 0.00 | 64 | 1015.5 |
| 20260504220842 | 79 | 103 | 13.0 | 20.0 | 0.00 | 0.00 | 0.00 | 64 | 1015.2 |
| 20260504220714 | 78 | 132 | 13.0 | 18.0 | 0.00 | 0.00 | 0.00 | 64 | 1015.2 |
| 20260504220710 | 78 | 113 | 12.0 | 18.0 | 0.00 | 0.00 | 0.00 | 65 | 1015.2 |
| 20260504220423 | 81 | 123 | 11.0 | 16.0 | 0.00 | 0.00 | 0.00 | 60 | 1015.7 |
| 20260504220417 | 80 | 109 | 12.0 | 18.0 | 0.00 | 0.00 | 0.00 | 62 | 1015.7 |
| 20260504220413 | 79 | 123 | 12.0 | 16.0 | 0.00 | 0.00 | 0.00 | 64 | 1015.3 |
| 20260504220408 | 80 | 123 | 10.0 | 18.0 | 0.00 | 0.00 | 0.00 | 62 | 1015.6 |
| 20260504220402 | 78 | 117 | 13.0 | 20.0 | 0.00 | 0.00 | 0.00 | 68 | 1015.3 |
| 20260504220112 | 79 | 111 | 12.0 | 15.0 | 0.00 | 0.00 | 0.00 | 64 | 1015.4 |
| 20260504220108 | 78 | 132 | 13.0 | 18.0 | 0.00 | 0.00 | 0.00 | 64 | 1015.2 |
| 20260504215935 | 79 | 123 | 12.0 | 16.0 | 0.00 | 0.00 | 0.00 | 64 | 1015.3 |
| 20260504215810 | 78 | 117 | 13.0 | 20.0 | 0.00 | 0.00 | 0.00 | 68 | 1015.3 |
| 20260504215641 | 80 | 109 | 12.0 | 18.0 | 0.00 | 0.00 | 0.00 | 62 | 1015.7 |
| 20260504215636 | 79 | 103 | 13.0 | 20.0 | 0.00 | 0.00 | 0.00 | 64 | 1015.2 |
| 20260504215632 | 77 | 130 | 9.0 | 14.0 | 0.00 | 0.21 | 0.00 | 60 | 1017.2 |
| 20260504215626 | 78 | 132 | 10.0 | 13.0 | 0.00 | 0.21 | 0.00 | 57 | 1017.1 |
| 20260504215621 | 78 | 132 | 13.0 | 18.0 | 0.00 | 0.00 | 0.00 | 64 | 1015.2 |
| 20260504215616 | 78 | 140 | 9.0 | 13.0 | 0.00 | 0.00 | 0.00 | 60 | 1017.0 |
| 20260504215611 | 78 | 141 | 10.0 | 14.0 | 0.00 | 0.09 | 0.00 | 57 | 1017.0 |
| 20260504215605 | 80 | 123 | 10.0 | 18.0 | 0.00 | 0.00 | 0.00 | 62 | 1015.6 |
| 20260504215600 | 79 | 121 | 12.0 | 16.0 | 0.00 | 0.00 | 0.00 | 64 | 1015.5 |
| 20260504215554 | 79 | 111 | 12.0 | 15.0 | 0.00 | 0.00 | 0.00 | 64 | 1015.4 |
| 20260504215539 | 78 | 113 | 12.0 | 18.0 | 0.00 | 0.00 | 0.00 | 65 | 1015.2 |
| 20260504215422 | 79 | 132 | 10.0 | 14.0 | 0.00 | 0.00 | 0.00 | 60 | 1016.5 |
| 20260504215417 | 78 | 132 | 8.0 | 12.0 | 0.00 | 0.00 | 0.00 | 57 | 1016.8 |
| 20260504215412 | 77 | 138 | 8.0 | 12.0 | 0.00 | 0.00 | 0.00 | 53 | 1016.9 |
| 20260504215407 | 79 | 139 | 9.0 | 14.0 | 0.00 | 0.00 | 0.00 | 58 | 1016.6 |
| 20260504215402 | 79 | 130 | 11.0 | 15.0 | 0.00 | 0.00 | 0.00 | 62 | 1016.2 |
| 20260504215357 | 78 | 132 | 11.0 | 14.0 | 0.00 | 0.00 | 0.00 | 59 | 1016.3 |
| 20260504215352 | 79 | 124 | 11.0 | 15.0 | 0.00 | 0.00 | 0.00 | 61 | 1016.1 |
| 20260504215347 | 79 | 123 | 12.0 | 16.0 | 0.00 | 0.00 | 0.00 | 64 | 1015.3 |
| 20260504215220 | 80 | 129 | 10.0 | 13.0 | 0.00 | 0.00 | 0.00 | 62 | 1015.9 |
| 20260504215214 | 80 | 109 | 11.0 | 14.0 | 0.00 | 0.00 | 0.00 | 61 | 1015.7 |
| 20260504215210 | 80 | 123 | 11.0 | 14.0 | 0.00 | 0.00 | 0.00 | 59 | 1015.9 |
| 20260504215205 | 78 | 117 | 13.0 | 20.0 | 0.00 | 0.00 | 0.00 | 68 | 1015.3 |
| 20260504215200 | 81 | 117 | 9.0 | 14.0 | 0.00 | 0.00 | 0.00 | 59 | 1015.7 |
| 20260504215155 | 81 | 123 | 11.0 | 16.0 | 0.00 | 0.00 | 0.00 | 60 | 1015.7 |
| 20260504215149 | 80 | 109 | 12.0 | 18.0 | 0.00 | 0.00 | 0.00 | 62 | 1015.7 |
| 20260504215144 | 79 | 103 | 13.0 | 20.0 | 0.00 | 0.00 | 0.00 | 64 | 1015.2 |
| 20260504215137 | 78 | 132 | 13.0 | 18.0 | 0.00 | 0.00 | 0.00 | 64 | 1015.2 |
| 20260504215010 | 79 | 121 | 12.0 | 16.0 | 0.00 | 0.00 | 0.00 | 64 | 1015.5 |
| 20260504215005 | 79 | 111 | 12.0 | 15.0 | 0.00 | 0.00 | 0.00 | 64 | 1015.4 |
| 20260504214715 | 78 | 132 | 10.0 | 13.0 | 0.00 | 0.21 | 0.00 | 57 | 1017.1 |
| 20260504214710 | 78 | 140 | 9.0 | 13.0 | 0.00 | 0.00 | 0.00 | 60 | 1017.0 |
| 20260504214704 | 78 | 117 | 13.0 | 20.0 | 0.00 | 0.00 | 0.00 | 68 | 1015.3 |
| 20260504214700 | 78 | 141 | 10.0 | 14.0 | 0.00 | 0.09 | 0.00 | 57 | 1017.0 |
| 20260504214654 | 77 | 144 | 9.0 | 12.0 | 0.00 | 0.21 | 0.00 | 59 | 1017.0 |
| 20260504214649 | 79 | 132 | 10.0 | 14.0 | 0.00 | 0.00 | 0.00 | 60 | 1016.5 |
| 20260504214644 | 78 | 132 | 8.0 | 12.0 | 0.00 | 0.00 | 0.00 | 57 | 1016.8 |
| 20260504214639 | 77 | 138 | 8.0 | 12.0 | 0.00 | 0.00 | 0.00 | 53 | 1016.9 |
| 20260504214631 | 79 | 139 | 9.0 | 14.0 | 0.00 | 0.00 | 0.00 | 58 | 1016.6 |
| 20260504214627 | 79 | 130 | 11.0 | 15.0 | 0.00 | 0.00 | 0.00 | 62 | 1016.2 |
| 20260504214621 | 78 | 132 | 11.0 | 14.0 | 0.00 | 0.00 | 0.00 | 59 | 1016.3 |
| 20260504214615 | 79 | 103 | 13.0 | 20.0 | 0.00 | 0.00 | 0.00 | 64 | 1015.2 |
| 20260504214611 | 79 | 124 | 11.0 | 15.0 | 0.00 | 0.00 | 0.00 | 61 | 1016.1 |
| 20260504214553 | 78 | 132 | 13.0 | 18.0 | 0.00 | 0.00 | 0.00 | 64 | 1015.2 |
| 20260504214439 | 80 | 129 | 10.0 | 13.0 | 0.00 | 0.00 | 0.00 | 62 | 1015.9 |
| 20260504214434 | 80 | 109 | 11.0 | 14.0 | 0.00 | 0.00 | 0.00 | 61 | 1015.7 |
| 20260504214427 | 80 | 123 | 11.0 | 14.0 | 0.00 | 0.00 | 0.00 | 59 | 1015.9 |
| 20260504214421 | 81 | 117 | 9.0 | 14.0 | 0.00 | 0.00 | 0.00 | 59 | 1015.7 |
| 20260504214417 | 81 | 123 | 11.0 | 16.0 | 0.00 | 0.00 | 0.00 | 60 | 1015.7 |
| 20260504214412 | 80 | 109 | 12.0 | 18.0 | 0.00 | 0.00 | 0.00 | 62 | 1015.7 |
| 20260504214406 | 80 | 123 | 10.0 | 18.0 | 0.00 | 0.00 | 0.00 | 62 | 1015.6 |
| 20260504214400 | 79 | 121 | 12.0 | 16.0 | 0.00 | 0.00 | 0.00 | 64 | 1015.5 |
| 20260504214356 | 79 | 111 | 12.0 | 15.0 | 0.00 | 0.00 | 0.00 | 64 | 1015.4 |
| 20260504214351 | 79 | 123 | 12.0 | 16.0 | 0.00 | 0.00 | 0.00 | 64 | 1015.3 |
| 20260504214101 | 79 | 103 | 13.0 | 20.0 | 0.00 | 0.00 | 0.00 | 64 | 1015.2 |
| 20260504213933 | 79 | 120 | 10.0 | 15.0 | 0.00 | 0.00 | 0.00 | 59 | 1016.1 |
| 20260504213927 | 80 | 129 | 10.0 | 13.0 | 0.00 | 0.00 | 0.00 | 62 | 1015.9 |
| 20260504213922 | 80 | 109 | 11.0 | 14.0 | 0.00 | 0.00 | 0.00 | 61 | 1015.7 |
| 20260504213914 | 80 | 123 | 11.0 | 14.0 | 0.00 | 0.00 | 0.00 | 59 | 1015.9 |
| 20260504213908 | 81 | 117 | 9.0 | 14.0 | 0.00 | 0.00 | 0.00 | 59 | 1015.7 |
| 20260504213903 | 81 | 123 | 11.0 | 16.0 | 0.00 | 0.00 | 0.00 | 60 | 1015.7 |
| 20260504213857 | 80 | 109 | 12.0 | 18.0 | 0.00 | 0.00 | 0.00 | 62 | 1015.7 |
| 20260504213852 | 79 | 111 | 12.0 | 15.0 | 0.00 | 0.00 | 0.00 | 64 | 1015.4 |
| 20260504213846 | 79 | 123 | 12.0 | 16.0 | 0.00 | 0.00 | 0.00 | 64 | 1015.3 |
| 20260504213717 | 78 | 141 | 10.0 | 14.0 | 0.00 | 0.09 | 0.00 | 57 | 1017.0 |
| 20260504213713 | 79 | 132 | 10.0 | 14.0 | 0.00 | 0.00 | 0.00 | 60 | 1016.5 |
| 20260504213707 | 80 | 123 | 10.0 | 18.0 | 0.00 | 0.00 | 0.00 | 62 | 1015.6 |
| 20260504213701 | 79 | 121 | 12.0 | 16.0 | 0.00 | 0.00 | 0.00 | 64 | 1015.5 |
| 20260504213656 | 78 | 117 | 13.0 | 20.0 | 0.00 | 0.00 | 0.00 | 68 | 1015.3 |
| 20260504213405 | 78 | 132 | 10.0 | 13.0 | 0.00 | 0.21 | 0.00 | 57 | 1017.1 |
| 20260504213400 | 77 | 144 | 9.0 | 12.0 | 0.00 | 0.21 | 0.00 | 59 | 1017.0 |
| 20260504213355 | 79 | 139 | 9.0 | 14.0 | 0.00 | 0.00 | 0.00 | 58 | 1016.6 |
| 20260504213350 | 78 | 132 | 11.0 | 14.0 | 0.00 | 0.00 | 0.00 | 59 | 1016.3 |
| 20260504213345 | 79 | 130 | 11.0 | 15.0 | 0.00 | 0.00 | 0.00 | 62 | 1016.2 |
| 20260504213339 | 79 | 124 | 11.0 | 15.0 | 0.00 | 0.00 | 0.00 | 61 | 1016.1 |
| 20260504213334 | 79 | 120 | 10.0 | 15.0 | 0.00 | 0.00 | 0.00 | 59 | 1016.1 |
| 20260504213329 | 80 | 129 | 10.0 | 13.0 | 0.00 | 0.00 | 0.00 | 62 | 1015.9 |
| 20260504213324 | 80 | 109 | 11.0 | 14.0 | 0.00 | 0.00 | 0.00 | 61 | 1015.7 |
| 20260504213318 | 80 | 123 | 11.0 | 14.0 | 0.00 | 0.00 | 0.00 | 59 | 1015.9 |
| 20260504213313 | 81 | 117 | 9.0 | 14.0 | 0.00 | 0.00 | 0.00 | 59 | 1015.7 |
| 20260504213306 | 81 | 123 | 11.0 | 16.0 | 0.00 | 0.00 | 0.00 | 60 | 1015.7 |
| 20260504213300 | 80 | 109 | 12.0 | 18.0 | 0.00 | 0.00 | 0.00 | 62 | 1015.7 |
| 20260504213255 | 79 | 111 | 12.0 | 15.0 | 0.00 | 0.00 | 0.00 | 64 | 1015.4 |
| 20260504213249 | 79 | 123 | 12.0 | 16.0 | 0.00 | 0.00 | 0.00 | 64 | 1015.3 |
| 20260504213124 | 77 | 138 | 8.0 | 12.0 | 0.00 | 0.00 | 0.00 | 53 | 1016.9 |
| 20260504213119 | 78 | 140 | 9.0 | 13.0 | 0.00 | 0.00 | 0.00 | 60 | 1017.0 |
| 20260504213114 | 80 | 123 | 10.0 | 18.0 | 0.00 | 0.00 | 0.00 | 62 | 1015.6 |
| 20260504213107 | 78 | 117 | 13.0 | 20.0 | 0.00 | 0.00 | 0.00 | 68 | 1015.3 |
| 20260504212941 | 79 | 132 | 10.0 | 14.0 | 0.00 | 0.00 | 0.00 | 60 | 1016.5 |
| 20260504212935 | 79 | 121 | 12.0 | 16.0 | 0.00 | 0.00 | 0.00 | 64 | 1015.5 |
| 20260504212809 | 78 | 132 | 11.0 | 14.0 | 0.00 | 0.00 | 0.00 | 59 | 1016.3 |
| 20260504212800 | 79 | 130 | 11.0 | 15.0 | 0.00 | 0.00 | 0.00 | 62 | 1016.2 |
| 20260504212755 | 79 | 124 | 11.0 | 15.0 | 0.00 | 0.00 | 0.00 | 61 | 1016.1 |
| 20260504212750 | 79 | 120 | 10.0 | 15.0 | 0.00 | 0.00 | 0.00 | 59 | 1016.1 |
| 20260504212745 | 80 | 129 | 10.0 | 13.0 | 0.00 | 0.00 | 0.00 | 62 | 1015.9 |
| 20260504212741 | 80 | 109 | 11.0 | 14.0 | 0.00 | 0.00 | 0.00 | 61 | 1015.7 |
| 20260504212735 | 80 | 123 | 11.0 | 14.0 | 0.00 | 0.00 | 0.00 | 59 | 1015.9 |
| 20260504212730 | 81 | 117 | 9.0 | 14.0 | 0.00 | 0.00 | 0.00 | 59 | 1015.7 |
| 20260504212724 | 81 | 123 | 11.0 | 16.0 | 0.00 | 0.00 | 0.00 | 60 | 1015.7 |
| 20260504212719 | 79 | 111 | 12.0 | 15.0 | 0.00 | 0.00 | 0.00 | 64 | 1015.4 |
| 20260504212715 | 80 | 109 | 12.0 | 18.0 | 0.00 | 0.00 | 0.00 | 62 | 1015.7 |
| 20260504212709 | 79 | 123 | 12.0 | 16.0 | 0.00 | 0.00 | 0.00 | 64 | 1015.3 |
| 20260504212533 | 78 | 117 | 13.0 | 20.0 | 0.00 | 0.00 | 0.00 | 68 | 1015.3 |
| 20260504212249 | 79 | 132 | 10.0 | 14.0 | 0.00 | 0.00 | 0.00 | 60 | 1016.5 |
| 20260504212245 | 79 | 139 | 9.0 | 14.0 | 0.00 | 0.00 | 0.00 | 58 | 1016.6 |
| 20260504212239 | 78 | 132 | 11.0 | 14.0 | 0.00 | 0.00 | 0.00 | 59 | 1016.3 |
| 20260504212234 | 79 | 130 | 11.0 | 15.0 | 0.00 | 0.00 | 0.00 | 62 | 1016.2 |
| 20260504212228 | 79 | 124 | 11.0 | 15.0 | 0.00 | 0.00 | 0.00 | 61 | 1016.1 |
| 20260504212223 | 79 | 120 | 10.0 | 15.0 | 0.00 | 0.00 | 0.00 | 59 | 1016.1 |
| 20260504212219 | 80 | 129 | 10.0 | 13.0 | 0.00 | 0.00 | 0.00 | 62 | 1015.9 |
| 20260504212213 | 79 | 111 | 12.0 | 15.0 | 0.00 | 0.00 | 0.00 | 64 | 1015.4 |
| 20260504212208 | 80 | 109 | 11.0 | 14.0 | 0.00 | 0.00 | 0.00 | 61 | 1015.7 |
| 20260504212201 | 80 | 123 | 11.0 | 14.0 | 0.00 | 0.00 | 0.00 | 59 | 1015.9 |
| 20260504212154 | 81 | 117 | 9.0 | 14.0 | 0.00 | 0.00 | 0.00 | 59 | 1015.7 |
| 20260504212148 | 81 | 123 | 11.0 | 16.0 | 0.00 | 0.00 | 0.00 | 60 | 1015.7 |
| 20260504212143 | 80 | 109 | 12.0 | 18.0 | 0.00 | 0.00 | 0.00 | 62 | 1015.7 |
| 20260504212138 | 79 | 123 | 12.0 | 16.0 | 0.00 | 0.00 | 0.00 | 64 | 1015.3 |
| 20260504211438 | 81 | 117 | 9.0 | 14.0 | 0.00 | 0.00 | 0.00 | 59 | 1015.7 |
| 20260504211432 | 79 | 132 | 10.0 | 14.0 | 0.00 | 0.00 | 0.00 | 60 | 1016.5 |
| 20260504211426 | 80 | 129 | 10.0 | 13.0 | 0.00 | 0.00 | 0.00 | 62 | 1015.9 |
| 20260504211421 | 80 | 109 | 11.0 | 14.0 | 0.00 | 0.00 | 0.00 | 61 | 1015.7 |
| 20260504211256 | 78 | 0.0 | 0.0 | 0.00 | 0.21 | 0.00 | 51 | 1017.8 | |
| 20260504211251 | 81 | 123 | 11.0 | 16.0 | 0.00 | 0.00 | 0.00 | 60 | 1015.7 |
| 20260504211244 | 79 | 120 | 10.0 | 15.0 | 0.00 | 0.00 | 0.00 | 59 | 1016.1 |
| 20260504211238 | 79 | 124 | 11.0 | 15.0 | 0.00 | 0.00 | 0.00 | 61 | 1016.1 |
| 20260504211233 | 80 | 123 | 11.0 | 14.0 | 0.00 | 0.00 | 0.00 | 59 | 1015.9 |
| 20260504211228 | 78 | 0.0 | 0.0 | 0.00 | 0.21 | 0.00 | 52 | 1017.5 | |
| 20260504211223 | 80 | 123 | 10.0 | 18.0 | 0.00 | 0.00 | 0.00 | 62 | 1015.6 |
| 20260504211217 | 80 | 109 | 12.0 | 18.0 | 0.00 | 0.00 | 0.00 | 62 | 1015.7 |
| 20260504211212 | 79 | 121 | 12.0 | 16.0 | 0.00 | 0.00 | 0.00 | 64 | 1015.5 |
| 20260504211044 | 77 | 0.0 | 0.0 | 0.00 | 0.21 | 0.00 | 57 | 1017.4 | |
| 20260504211039 | 76 | 149 | 10.0 | 14.0 | 0.00 | 0.21 | 0.00 | 56 | 1017.4 |
| 20260504211033 | 77 | 130 | 9.0 | 14.0 | 0.00 | 0.21 | 0.00 | 60 | 1017.2 |
| 20260504211028 | 78 | 132 | 10.0 | 13.0 | 0.00 | 0.21 | 0.00 | 57 | 1017.1 |
| 20260504211022 | 77 | 144 | 9.0 | 12.0 | 0.00 | 0.21 | 0.00 | 59 | 1017.0 |
| 20260504211017 | 77 | 138 | 8.0 | 12.0 | 0.00 | 0.00 | 0.00 | 53 | 1016.9 |
| 20260504211013 | 78 | 140 | 9.0 | 13.0 | 0.00 | 0.00 | 0.00 | 60 | 1017.0 |
| 20260504211007 | 78 | 141 | 10.0 | 14.0 | 0.00 | 0.09 | 0.00 | 57 | 1017.0 |
| 20260504211001 | 78 | 132 | 8.0 | 12.0 | 0.00 | 0.00 | 0.00 | 57 | 1016.8 |
| 20260504210956 | 79 | 132 | 10.0 | 14.0 | 0.00 | 0.00 | 0.00 | 60 | 1016.5 |
| 20260504210950 | 79 | 139 | 9.0 | 14.0 | 0.00 | 0.00 | 0.00 | 58 | 1016.6 |
| 20260504210943 | 78 | 132 | 11.0 | 14.0 | 0.00 | 0.00 | 0.00 | 59 | 1016.3 |
| 20260504210938 | 81 | 117 | 9.0 | 14.0 | 0.00 | 0.00 | 0.00 | 59 | 1015.7 |
| 20260504210934 | 79 | 130 | 11.0 | 15.0 | 0.00 | 0.00 | 0.00 | 62 | 1016.2 |
| 20260504210929 | 80 | 129 | 10.0 | 13.0 | 0.00 | 0.00 | 0.00 | 62 | 1015.9 |
| 20260504210923 | 80 | 109 | 11.0 | 14.0 | 0.00 | 0.00 | 0.00 | 61 | 1015.7 |
| 20260504210755 | 79 | 124 | 11.0 | 15.0 | 0.00 | 0.00 | 0.00 | 61 | 1016.1 |
| 20260504210751 | 79 | 120 | 10.0 | 15.0 | 0.00 | 0.00 | 0.00 | 59 | 1016.1 |
| 20260504210747 | 80 | 123 | 11.0 | 14.0 | 0.00 | 0.00 | 0.00 | 59 | 1015.9 |
| 20260504210740 | 80 | 123 | 10.0 | 18.0 | 0.00 | 0.00 | 0.00 | 62 | 1015.6 |
| 20260504210612 | 80 | 109 | 12.0 | 18.0 | 0.00 | 0.00 | 0.00 | 62 | 1015.7 |
| 20260504210555 | 79 | 111 | 12.0 | 15.0 | 0.00 | 0.00 | 0.00 | 64 | 1015.4 |
| 20260504210316 | 80 | 109 | 11.0 | 14.0 | 0.00 | 0.00 | 0.00 | 61 | 1015.7 |
| 20260504210311 | 81 | 123 | 11.0 | 16.0 | 0.00 | 0.00 | 0.00 | 60 | 1015.7 |
| 20260504210144 | 77 | 138 | 8.0 | 12.0 | 0.00 | 0.00 | 0.00 | 53 | 1016.9 |
| 20260504210139 | 78 | 132 | 8.0 | 12.0 | 0.00 | 0.00 | 0.00 | 57 | 1016.8 |
| 20260504210132 | 79 | 132 | 10.0 | 14.0 | 0.00 | 0.00 | 0.00 | 60 | 1016.5 |
| 20260504210126 | 80 | 123 | 10.0 | 18.0 | 0.00 | 0.00 | 0.00 | 62 | 1015.6 |
| 20260504210120 | 79 | 121 | 12.0 | 16.0 | 0.00 | 0.00 | 0.00 | 64 | 1015.5 |
| 20260504210115 | 80 | 109 | 12.0 | 18.0 | 0.00 | 0.00 | 0.00 | 62 | 1015.7 |
| 20260504205947 | 81 | 117 | 9.0 | 14.0 | 0.00 | 0.00 | 0.00 | 59 | 1015.7 |
| 20260504205942 | 78 | 132 | 11.0 | 14.0 | 0.00 | 0.00 | 0.00 | 59 | 1016.3 |
| 20260504205935 | 79 | 130 | 11.0 | 15.0 | 0.00 | 0.00 | 0.00 | 62 | 1016.2 |
| 20260504205807 | 79 | 120 | 10.0 | 15.0 | 0.00 | 0.00 | 0.00 | 59 | 1016.1 |
| 20260504205801 | 80 | 129 | 10.0 | 13.0 | 0.00 | 0.00 | 0.00 | 62 | 1015.9 |
| 20260504205755 | 80 | 123 | 11.0 | 14.0 | 0.00 | 0.00 | 0.00 | 59 | 1015.9 |
| 20260504205749 | 80 | 109 | 11.0 | 14.0 | 0.00 | 0.00 | 0.00 | 61 | 1015.7 |
| 20260504205744 | 81 | 123 | 11.0 | 16.0 | 0.00 | 0.00 | 0.00 | 60 | 1015.7 |
| 20260504205615 | 80 | 123 | 10.0 | 18.0 | 0.00 | 0.00 | 0.00 | 62 | 1015.6 |
| 20260504205556 | 79 | 121 | 12.0 | 16.0 | 0.00 | 0.00 | 0.00 | 64 | 1015.5 |
| 20260504205319 | 77 | 138 | 8.0 | 12.0 | 0.00 | 0.00 | 0.00 | 53 | 1016.9 |
| 20260504205152 | 78 | 0.0 | 0.0 | 0.00 | 0.21 | 0.00 | 52 | 1017.5 | |
| 20260504205147 | 77 | 0.0 | 0.0 | 0.00 | 0.21 | 0.00 | 57 | 1017.4 | |
| 20260504205143 | 76 | 149 | 10.0 | 14.0 | 0.00 | 0.21 | 0.00 | 56 | 1017.4 |
| 20260504205137 | 77 | 130 | 9.0 | 14.0 | 0.00 | 0.21 | 0.00 | 60 | 1017.2 |
| 20260504205131 | 78 | 132 | 10.0 | 13.0 | 0.00 | 0.21 | 0.00 | 57 | 1017.1 |
| 20260504205124 | 78 | 132 | 8.0 | 12.0 | 0.00 | 0.00 | 0.00 | 57 | 1016.8 |
| 20260504205119 | 79 | 132 | 10.0 | 14.0 | 0.00 | 0.00 | 0.00 | 60 | 1016.5 |
| 20260504205113 | 79 | 139 | 9.0 | 14.0 | 0.00 | 0.00 | 0.00 | 58 | 1016.6 |
| 20260504205108 | 78 | 132 | 11.0 | 14.0 | 0.00 | 0.00 | 0.00 | 59 | 1016.3 |
| 20260504205102 | 79 | 130 | 11.0 | 15.0 | 0.00 | 0.00 | 0.00 | 62 | 1016.2 |
| 20260504205057 | 81 | 123 | 11.0 | 16.0 | 0.00 | 0.00 | 0.00 | 60 | 1015.7 |
| 20260504205051 | 80 | 109 | 11.0 | 14.0 | 0.00 | 0.00 | 0.00 | 61 | 1015.7 |
| 20260504205046 | 80 | 109 | 12.0 | 18.0 | 0.00 | 0.00 | 0.00 | 62 | 1015.7 |
| 20260504205040 | 80 | 123 | 10.0 | 18.0 | 0.00 | 0.00 | 0.00 | 62 | 1015.6 |
| 20260504204912 | 79 | 120 | 10.0 | 15.0 | 0.00 | 0.00 | 0.00 | 59 | 1016.1 |
| 20260504204907 | 80 | 129 | 10.0 | 13.0 | 0.00 | 0.00 | 0.00 | 62 | 1015.9 |
| 20260504204903 | 80 | 123 | 11.0 | 14.0 | 0.00 | 0.00 | 0.00 | 59 | 1015.9 |
| 20260504204857 | 81 | 117 | 9.0 | 14.0 | 0.00 | 0.00 | 0.00 | 59 | 1015.7 |
| 20260504204732 | 77 | 144 | 9.0 | 12.0 | 0.00 | 0.21 | 0.00 | 59 | 1017.0 |
| 20260504204725 | 78 | 140 | 9.0 | 13.0 | 0.00 | 0.00 | 0.00 | 60 | 1017.0 |
| 20260504204721 | 77 | 138 | 8.0 | 12.0 | 0.00 | 0.00 | 0.00 | 53 | 1016.9 |
| 20260504204554 | 81 | 123 | 11.0 | 16.0 | 0.00 | 0.00 | 0.00 | 60 | 1015.7 |
| 20260504204549 | 79 | 132 | 10.0 | 14.0 | 0.00 | 0.00 | 0.00 | 60 | 1016.5 |
| 20260504204544 | 79 | 139 | 9.0 | 14.0 | 0.00 | 0.00 | 0.00 | 58 | 1016.6 |
| 20260504204539 | 78 | 132 | 11.0 | 14.0 | 0.00 | 0.00 | 0.00 | 59 | 1016.3 |
| 20260504204535 | 80 | 109 | 11.0 | 14.0 | 0.00 | 0.00 | 0.00 | 61 | 1015.7 |
| 20260504204529 | 80 | 109 | 12.0 | 18.0 | 0.00 | 0.00 | 0.00 | 62 | 1015.7 |
| 20260504204519 | 80 | 123 | 10.0 | 18.0 | 0.00 | 0.00 | 0.00 | 62 | 1015.6 |
| 20260504204356 | 76 | 256 | 3.0 | 5.0 | 0.00 | 0.21 | 0.00 | 47 | 1018.0 |
| 20260504204352 | 78 | 256 | 3.0 | 5.0 | 0.00 | 0.21 | 0.00 | 51 | 1018.1 |
| 20260504204347 | 79 | 124 | 11.0 | 15.0 | 0.00 | 0.00 | 0.00 | 61 | 1016.1 |
| 20260504204342 | 79 | 120 | 10.0 | 15.0 | 0.00 | 0.00 | 0.00 | 59 | 1016.1 |
| 20260504204338 | 80 | 129 | 10.0 | 13.0 | 0.00 | 0.00 | 0.00 | 62 | 1015.9 |
| 20260504204332 | 80 | 123 | 11.0 | 14.0 | 0.00 | 0.00 | 0.00 | 59 | 1015.9 |
| 20260504204325 | 81 | 117 | 9.0 | 14.0 | 0.00 | 0.00 | 0.00 | 59 | 1015.7 |
| 20260504204201 | 80 | 59 | 3.0 | 6.0 | 0.00 | 0.21 | 0.00 | 50 | 1018.0 |
| 20260504204155 | 79 | 17 | 4.0 | 10.0 | 0.00 | 0.21 | 0.00 | 48 | 1018.0 |
| 20260504204149 | 79 | 22 | 7.0 | 10.0 | 0.00 | 0.21 | 0.00 | 48 | 1018.0 |
| 20260504204145 | 79 | 13 | 7.0 | 10.0 | 0.00 | 0.21 | 0.00 | 48 | 1018.0 |
| 20260504204140 | 79 | 22 | 5.0 | 10.0 | 0.00 | 0.21 | 0.00 | 50 | 1018.1 |
| 20260504204134 | 78 | 28 | 6.0 | 11.0 | 0.00 | 0.21 | 0.00 | 46 | 1018.1 |
| 20260504204129 | 78 | 31 | 9.0 | 11.0 | 0.00 | 0.21 | 0.00 | 49 | 1018.1 |
| 20260504204122 | 77 | 36 | 5.0 | 10.0 | 0.00 | 0.21 | 0.00 | 51 | 1018.2 |
| 20260504204118 | 77 | 54 | 6.0 | 11.0 | 0.00 | 0.21 | 0.00 | 53 | 1018.3 |
| 20260504204112 | 76 | 0.0 | 0.0 | 0.00 | 0.21 | 0.00 | 49 | 1017.9 | |
| 20260504204106 | 76 | 0.0 | 0.0 | 0.00 | 0.21 | 0.00 | 50 | 1017.8 | |
| 20260504204101 | 81 | 123 | 11.0 | 16.0 | 0.00 | 0.00 | 0.00 | 60 | 1015.7 |
| 20260504204057 | 77 | 0.0 | 0.0 | 0.00 | 0.21 | 0.00 | 54 | 1017.9 | |
| 20260504204051 | 80 | 109 | 12.0 | 18.0 | 0.00 | 0.00 | 0.00 | 62 | 1015.7 |
| 20260504204045 | 78 | 0.0 | 0.0 | 0.00 | 0.21 | 0.00 | 51 | 1017.8 | |
| 20260504204040 | 80 | 0.0 | 0.0 | 0.00 | 0.21 | 0.00 | 56 | 1017.6 | |
| 20260504204034 | 78 | 0.0 | 0.0 | 0.00 | 0.21 | 0.00 | 52 | 1017.5 | |
| 20260504204028 | 77 | 0.0 | 0.0 | 0.00 | 0.21 | 0.00 | 57 | 1017.4 | |
| 20260504204023 | 76 | 149 | 10.0 | 14.0 | 0.00 | 0.21 | 0.00 | 56 | 1017.4 |
| 20260504204018 | 77 | 130 | 9.0 | 14.0 | 0.00 | 0.21 | 0.00 | 60 | 1017.2 |
| 20260504204013 | 78 | 132 | 10.0 | 13.0 | 0.00 | 0.21 | 0.00 | 57 | 1017.1 |
| 20260504204008 | 78 | 141 | 10.0 | 14.0 | 0.00 | 0.09 | 0.00 | 57 | 1017.0 |
| 20260504204003 | 77 | 144 | 9.0 | 12.0 | 0.00 | 0.21 | 0.00 | 59 | 1017.0 |
| 20260504203958 | 78 | 140 | 9.0 | 13.0 | 0.00 | 0.00 | 0.00 | 60 | 1017.0 |
| 20260504203953 | 77 | 138 | 8.0 | 12.0 | 0.00 | 0.00 | 0.00 | 53 | 1016.9 |
| 20260504203947 | 78 | 132 | 8.0 | 12.0 | 0.00 | 0.00 | 0.00 | 57 | 1016.8 |
| 20260504203942 | 80 | 109 | 11.0 | 14.0 | 0.00 | 0.00 | 0.00 | 61 | 1015.7 |
| 20260504203936 | 79 | 132 | 10.0 | 14.0 | 0.00 | 0.00 | 0.00 | 60 | 1016.5 |
| 20260504203932 | 79 | 139 | 9.0 | 14.0 | 0.00 | 0.00 | 0.00 | 58 | 1016.6 |
| 20260504203925 | 78 | 132 | 11.0 | 14.0 | 0.00 | 0.00 | 0.00 | 59 | 1016.3 |
| 20260504203920 | 79 | 130 | 11.0 | 15.0 | 0.00 | 0.00 | 0.00 | 62 | 1016.2 |
| 20260504203756 | 79 | 120 | 10.0 | 15.0 | 0.00 | 0.00 | 0.00 | 59 | 1016.1 |
| 20260504203750 | 80 | 129 | 10.0 | 13.0 | 0.00 | 0.00 | 0.00 | 62 | 1015.9 |
| 20260504203746 | 80 | 123 | 11.0 | 14.0 | 0.00 | 0.00 | 0.00 | 59 | 1015.9 |
| 20260504203740 | 81 | 117 | 9.0 | 14.0 | 0.00 | 0.00 | 0.00 | 59 | 1015.7 |
| 20260504203558 | 80 | 109 | 12.0 | 18.0 | 0.00 | 0.00 | 0.00 | 62 | 1015.7 |
| 20260504203324 | 76 | 149 | 10.0 | 14.0 | 0.00 | 0.21 | 0.00 | 56 | 1017.4 |
| 20260504203319 | 77 | 130 | 9.0 | 14.0 | 0.00 | 0.21 | 0.00 | 60 | 1017.2 |
| 20260504203152 | 77 | 144 | 9.0 | 12.0 | 0.00 | 0.21 | 0.00 | 59 | 1017.0 |
| 20260504203147 | 78 | 141 | 10.0 | 14.0 | 0.00 | 0.09 | 0.00 | 57 | 1017.0 |
| 20260504203142 | 76 | 0.0 | 0.0 | 0.00 | 0.21 | 0.00 | 49 | 1017.9 | |
| 20260504203137 | 81 | 117 | 9.0 | 14.0 | 0.00 | 0.00 | 0.00 | 59 | 1015.7 |
| 20260504203132 | 78 | 132 | 10.0 | 13.0 | 0.00 | 0.21 | 0.00 | 57 | 1017.1 |
| 20260504203126 | 78 | 140 | 9.0 | 13.0 | 0.00 | 0.00 | 0.00 | 60 | 1017.0 |
| 20260504203119 | 77 | 138 | 8.0 | 12.0 | 0.00 | 0.00 | 0.00 | 53 | 1016.9 |
| 20260504203114 | 78 | 132 | 8.0 | 12.0 | 0.00 | 0.00 | 0.00 | 57 | 1016.8 |
| 20260504203108 | 79 | 132 | 10.0 | 14.0 | 0.00 | 0.00 | 0.00 | 60 | 1016.5 |
| 20260504203102 | 81 | 123 | 11.0 | 16.0 | 0.00 | 0.00 | 0.00 | 60 | 1015.7 |
| 20260504202937 | 79 | 124 | 11.0 | 15.0 | 0.00 | 0.00 | 0.00 | 61 | 1016.1 |
| 20260504202931 | 76 | 0.0 | 0.0 | 0.00 | 0.21 | 0.00 | 50 | 1017.8 | |
| 20260504202927 | 77 | 0.0 | 0.0 | 0.00 | 0.21 | 0.00 | 54 | 1017.9 | |
| 20260504202920 | 78 | 132 | 11.0 | 14.0 | 0.00 | 0.00 | 0.00 | 59 | 1016.3 |
| 20260504202914 | 79 | 130 | 11.0 | 15.0 | 0.00 | 0.00 | 0.00 | 62 | 1016.2 |
| 20260504202908 | 79 | 120 | 10.0 | 15.0 | 0.00 | 0.00 | 0.00 | 59 | 1016.1 |
| 20260504202903 | 80 | 129 | 10.0 | 13.0 | 0.00 | 0.00 | 0.00 | 62 | 1015.9 |
| 20260504202858 | 80 | 123 | 11.0 | 14.0 | 0.00 | 0.00 | 0.00 | 59 | 1015.9 |
| 20260504202853 | 80 | 109 | 11.0 | 14.0 | 0.00 | 0.00 | 0.00 | 61 | 1015.7 |
| 20260504202729 | 80 | 0.0 | 0.0 | 0.00 | 0.21 | 0.00 | 56 | 1017.6 | |
| 20260504202722 | 78 | 0.0 | 0.0 | 0.00 | 0.21 | 0.00 | 52 | 1017.5 | |
| 20260504202717 | 77 | 0.0 | 0.0 | 0.00 | 0.21 | 0.00 | 57 | 1017.4 | |
| 20260504202711 | 76 | 149 | 10.0 | 14.0 | 0.00 | 0.21 | 0.00 | 56 | 1017.4 |
| 20260504202706 | 77 | 130 | 9.0 | 14.0 | 0.00 | 0.21 | 0.00 | 60 | 1017.2 |
| 20260504202700 | 78 | 132 | 10.0 | 13.0 | 0.00 | 0.21 | 0.00 | 57 | 1017.1 |
| 20260504202655 | 78 | 141 | 10.0 | 14.0 | 0.00 | 0.09 | 0.00 | 57 | 1017.0 |
| 20260504202650 | 77 | 144 | 9.0 | 12.0 | 0.00 | 0.21 | 0.00 | 59 | 1017.0 |
| 20260504202645 | 81 | 117 | 9.0 | 14.0 | 0.00 | 0.00 | 0.00 | 59 | 1015.7 |
| 20260504202516 | 79 | 132 | 10.0 | 14.0 | 0.00 | 0.00 | 0.00 | 60 | 1016.5 |
| 20260504202510 | 77 | 138 | 8.0 | 12.0 | 0.00 | 0.00 | 0.00 | 53 | 1016.9 |
| 20260504202505 | 81 | 123 | 11.0 | 16.0 | 0.00 | 0.00 | 0.00 | 60 | 1015.7 |
| 20260504202500 | 78 | 132 | 8.0 | 12.0 | 0.00 | 0.00 | 0.00 | 57 | 1016.8 |
| 20260504202455 | 79 | 139 | 9.0 | 14.0 | 0.00 | 0.00 | 0.00 | 58 | 1016.6 |
| 20260504202450 | 79 | 124 | 11.0 | 15.0 | 0.00 | 0.00 | 0.00 | 61 | 1016.1 |
| 20260504202321 | 79 | 130 | 11.0 | 15.0 | 0.00 | 0.00 | 0.00 | 62 | 1016.2 |
| 20260504202315 | 79 | 120 | 10.0 | 15.0 | 0.00 | 0.00 | 0.00 | 59 | 1016.1 |
| 20260504202309 | 80 | 129 | 10.0 | 13.0 | 0.00 | 0.00 | 0.00 | 62 | 1015.9 |
| 20260504202305 | 80 | 123 | 11.0 | 14.0 | 0.00 | 0.00 | 0.00 | 59 | 1015.9 |
| 20260504202300 | 80 | 109 | 11.0 | 14.0 | 0.00 | 0.00 | 0.00 | 61 | 1015.7 |
| 20260504202010 | 79 | 132 | 10.0 | 14.0 | 0.00 | 0.00 | 0.00 | 60 | 1016.5 |
| 20260504202005 | 79 | 124 | 11.0 | 15.0 | 0.00 | 0.00 | 0.00 | 61 | 1016.1 |
| 20260504201839 | 76 | 149 | 10.0 | 14.0 | 0.00 | 0.21 | 0.00 | 56 | 1017.4 |
| 20260504201833 | 77 | 130 | 9.0 | 14.0 | 0.00 | 0.21 | 0.00 | 60 | 1017.2 |
| 20260504201828 | 78 | 132 | 10.0 | 13.0 | 0.00 | 0.21 | 0.00 | 57 | 1017.1 |
| 20260504201821 | 79 | 120 | 10.0 | 15.0 | 0.00 | 0.00 | 0.00 | 59 | 1016.1 |
| 20260504201815 | 78 | 141 | 10.0 | 14.0 | 0.00 | 0.09 | 0.00 | 57 | 1017.0 |
| 20260504201811 | 78 | 132 | 11.0 | 14.0 | 0.00 | 0.00 | 0.00 | 59 | 1016.3 |
| 20260504201643 | 80 | 129 | 10.0 | 13.0 | 0.00 | 0.00 | 0.00 | 62 | 1015.9 |
| 20260504201638 | 78 | 140 | 9.0 | 13.0 | 0.00 | 0.00 | 0.00 | 60 | 1017.0 |
| 20260504201633 | 77 | 138 | 8.0 | 12.0 | 0.00 | 0.00 | 0.00 | 53 | 1016.9 |
| 20260504201627 | 78 | 132 | 8.0 | 12.0 | 0.00 | 0.00 | 0.00 | 57 | 1016.8 |
| 20260504201620 | 79 | 139 | 9.0 | 14.0 | 0.00 | 0.00 | 0.00 | 58 | 1016.6 |
| 20260504201614 | 79 | 130 | 11.0 | 15.0 | 0.00 | 0.00 | 0.00 | 62 | 1016.2 |
| 20260504201610 | 80 | 123 | 11.0 | 14.0 | 0.00 | 0.00 | 0.00 | 59 | 1015.9 |
| 20260504201605 | 80 | 109 | 11.0 | 14.0 | 0.00 | 0.00 | 0.00 | 61 | 1015.7 |
| 20260504201548 | 81 | 117 | 9.0 | 14.0 | 0.00 | 0.00 | 0.00 | 59 | 1015.7 |
| 20260504201434 | 79 | 124 | 11.0 | 15.0 | 0.00 | 0.00 | 0.00 | 61 | 1016.1 |
| 20260504201307 | 79 | 120 | 10.0 | 15.0 | 0.00 | 0.00 | 0.00 | 59 | 1016.1 |
| 20260504201018 | 80 | 109 | 11.0 | 14.0 | 0.00 | 0.00 | 0.00 | 61 | 1015.7 |
| 20260504201012 | 80 | 123 | 11.0 | 14.0 | 0.00 | 0.00 | 0.00 | 59 | 1015.9 |
| 20260504200846 | 76 | 256 | 3.0 | 5.0 | 0.00 | 0.21 | 0.00 | 47 | 1018.0 |
| 20260504200841 | 78 | 256 | 3.0 | 5.0 | 0.00 | 0.21 | 0.00 | 51 | 1018.1 |
| 20260504200835 | 79 | 59 | 1.0 | 5.0 | 0.00 | 0.21 | 0.00 | 44 | 1018.0 |
| 20260504200831 | 78 | 140 | 9.0 | 13.0 | 0.00 | 0.00 | 0.00 | 60 | 1017.0 |
| 20260504200825 | 80 | 59 | 3.0 | 6.0 | 0.00 | 0.21 | 0.00 | 50 | 1018.0 |
| 20260504200817 | 79 | 17 | 4.0 | 10.0 | 0.00 | 0.21 | 0.00 | 48 | 1018.0 |
| 20260504200813 | 79 | 22 | 7.0 | 10.0 | 0.00 | 0.21 | 0.00 | 48 | 1018.0 |
| 20260504200807 | 79 | 13 | 7.0 | 10.0 | 0.00 | 0.21 | 0.00 | 48 | 1018.0 |
| 20260504200802 | 79 | 124 | 11.0 | 15.0 | 0.00 | 0.00 | 0.00 | 61 | 1016.1 |
| 20260504200756 | 76 | 0.0 | 0.0 | 0.00 | 0.21 | 0.00 | 49 | 1017.9 | |
| 20260504200751 | 79 | 22 | 5.0 | 10.0 | 0.00 | 0.21 | 0.00 | 50 | 1018.1 |
| 20260504200745 | 76 | 0.0 | 0.0 | 0.00 | 0.21 | 0.00 | 50 | 1017.8 | |
| 20260504200741 | 77 | 0.0 | 0.0 | 0.00 | 0.21 | 0.00 | 54 | 1017.9 | |
| 20260504200735 | 78 | 0.0 | 0.0 | 0.00 | 0.21 | 0.00 | 51 | 1017.8 | |
| 20260504200730 | 80 | 0.0 | 0.0 | 0.00 | 0.21 | 0.00 | 56 | 1017.6 | |
| 20260504200724 | 78 | 0.0 | 0.0 | 0.00 | 0.21 | 0.00 | 52 | 1017.5 | |
| 20260504200717 | 77 | 138 | 8.0 | 12.0 | 0.00 | 0.00 | 0.00 | 53 | 1016.9 |
| 20260504200711 | 78 | 132 | 8.0 | 12.0 | 0.00 | 0.00 | 0.00 | 57 | 1016.8 |
| 20260504200706 | 79 | 139 | 9.0 | 14.0 | 0.00 | 0.00 | 0.00 | 58 | 1016.6 |
| 20260504200700 | 79 | 132 | 10.0 | 14.0 | 0.00 | 0.00 | 0.00 | 60 | 1016.5 |
| 20260504200655 | 79 | 120 | 10.0 | 15.0 | 0.00 | 0.00 | 0.00 | 59 | 1016.1 |
| 20260504200651 | 80 | 129 | 10.0 | 13.0 | 0.00 | 0.00 | 0.00 | 62 | 1015.9 |
| 20260504200525 | 76 | 149 | 10.0 | 14.0 | 0.00 | 0.21 | 0.00 | 56 | 1017.4 |
| 20260504200517 | 77 | 130 | 9.0 | 14.0 | 0.00 | 0.21 | 0.00 | 60 | 1017.2 |
| 20260504200512 | 78 | 132 | 10.0 | 13.0 | 0.00 | 0.21 | 0.00 | 57 | 1017.1 |
| 20260504200506 | 80 | 109 | 11.0 | 14.0 | 0.00 | 0.00 | 0.00 | 61 | 1015.7 |
| 20260504200501 | 78 | 141 | 10.0 | 14.0 | 0.00 | 0.09 | 0.00 | 57 | 1017.0 |
| 20260504200457 | 77 | 144 | 9.0 | 12.0 | 0.00 | 0.21 | 0.00 | 59 | 1017.0 |
| 20260504200451 | 80 | 123 | 11.0 | 14.0 | 0.00 | 0.00 | 0.00 | 59 | 1015.9 |
| 20260504200446 | 78 | 132 | 11.0 | 14.0 | 0.00 | 0.00 | 0.00 | 59 | 1016.3 |
| 20260504200441 | 79 | 130 | 11.0 | 15.0 | 0.00 | 0.00 | 0.00 | 62 | 1016.2 |
| 20260504200313 | 78 | 140 | 9.0 | 13.0 | 0.00 | 0.00 | 0.00 | 60 | 1017.0 |
| 20260504200307 | 79 | 124 | 11.0 | 15.0 | 0.00 | 0.00 | 0.00 | 61 | 1016.1 |
| 20260504200144 | 78 | 132 | 8.0 | 12.0 | 0.00 | 0.00 | 0.00 | 57 | 1016.8 |
| 20260504200138 | 79 | 139 | 9.0 | 14.0 | 0.00 | 0.00 | 0.00 | 58 | 1016.6 |
| 20260504200132 | 79 | 132 | 10.0 | 14.0 | 0.00 | 0.00 | 0.00 | 60 | 1016.5 |
| 20260504200127 | 79 | 120 | 10.0 | 15.0 | 0.00 | 0.00 | 0.00 | 59 | 1016.1 |
| 20260504200123 | 80 | 129 | 10.0 | 13.0 | 0.00 | 0.00 | 0.00 | 62 | 1015.9 |
| 20260504195954 | 78 | 0.0 | 0.0 | 0.00 | 0.21 | 0.00 | 51 | 1017.8 | |
| 20260504195948 | 80 | 0.0 | 0.0 | 0.00 | 0.21 | 0.00 | 56 | 1017.6 | |
| 20260504195943 | 78 | 0.0 | 0.0 | 0.00 | 0.21 | 0.00 | 52 | 1017.5 | |
| 20260504195938 | 77 | 0.0 | 0.0 | 0.00 | 0.21 | 0.00 | 57 | 1017.4 | |
| 20260504195933 | 76 | 149 | 10.0 | 14.0 | 0.00 | 0.21 | 0.00 | 56 | 1017.4 |
| 20260504195928 | 77 | 130 | 9.0 | 14.0 | 0.00 | 0.21 | 0.00 | 60 | 1017.2 |
| 20260504195923 | 78 | 132 | 10.0 | 13.0 | 0.00 | 0.21 | 0.00 | 57 | 1017.1 |
| 20260504195915 | 78 | 141 | 10.0 | 14.0 | 0.00 | 0.09 | 0.00 | 57 | 1017.0 |
| 20260504195911 | 78 | 132 | 11.0 | 14.0 | 0.00 | 0.00 | 0.00 | 59 | 1016.3 |
| 20260504195905 | 77 | 144 | 9.0 | 12.0 | 0.00 | 0.21 | 0.00 | 59 | 1017.0 |
| 20260504195900 | 79 | 130 | 11.0 | 15.0 | 0.00 | 0.00 | 0.00 | 62 | 1016.2 |
| 20260504195611 | 78 | 140 | 9.0 | 13.0 | 0.00 | 0.00 | 0.00 | 60 | 1017.0 |
| 20260504195605 | 77 | 138 | 8.0 | 12.0 | 0.00 | 0.00 | 0.00 | 53 | 1016.9 |
| 20260504195600 | 77 | 0.0 | 0.0 | 0.00 | 0.21 | 0.00 | 54 | 1017.9 | |
| 20260504195555 | 79 | 139 | 9.0 | 14.0 | 0.00 | 0.00 | 0.00 | 58 | 1016.6 |
| 20260504195550 | 78 | 132 | 8.0 | 12.0 | 0.00 | 0.00 | 0.00 | 57 | 1016.8 |
| 20260504195545 | 89 | 232 | 7.0 | 16.0 | 0.00 | 0.01 | 0.01 | 53 | 1007.1 |
| 20260504195541 | 79 | 120 | 10.0 | 15.0 | 0.00 | 0.00 | 0.00 | 59 | 1016.1 |
| 20260504195535 | 80 | 129 | 10.0 | 13.0 | 0.00 | 0.00 | 0.00 | 62 | 1015.9 |
| 20260504195530 | 89 | 244 | 7.0 | 16.0 | 0.00 | 0.01 | 0.01 | 56 | 1007.1 |
| 20260504195524 | 79 | 132 | 10.0 | 14.0 | 0.00 | 0.00 | 0.00 | 60 | 1016.5 |
| 20260504195517 | 77 | 35 | 9.0 | 12.0 | 0.00 | 0.21 | 0.00 | 59 | 1018.0 |
| 20260504195513 | 78 | 39 | 8.0 | 12.0 | 0.00 | 0.21 | 0.00 | 51 | 1018.1 |
| 20260504195508 | 80 | 123 | 11.0 | 14.0 | 0.00 | 0.00 | 0.00 | 59 | 1015.9 |
| 20260504195503 | 78 | 28 | 6.0 | 11.0 | 0.00 | 0.21 | 0.00 | 46 | 1018.1 |
| 20260504195457 | 78 | 31 | 9.0 | 11.0 | 0.00 | 0.21 | 0.00 | 49 | 1018.1 |
| 20260504195452 | 77 | 36 | 5.0 | 10.0 | 0.00 | 0.21 | 0.00 | 51 | 1018.2 |
| 20260504195447 | 77 | 54 | 6.0 | 11.0 | 0.00 | 0.21 | 0.00 | 53 | 1018.3 |
| 20260504195442 | 76 | 0.0 | 3.0 | 0.00 | 0.21 | 0.00 | 49 | 1017.9 | |
| 20260504195437 | 76 | 256 | 3.0 | 5.0 | 0.00 | 0.21 | 0.00 | 47 | 1018.0 |
| 20260504195431 | 78 | 256 | 3.0 | 5.0 | 0.00 | 0.21 | 0.00 | 51 | 1018.1 |
| 20260504195427 | 79 | 59 | 1.0 | 5.0 | 0.00 | 0.21 | 0.00 | 44 | 1018.0 |
| 20260504195422 | 80 | 59 | 3.0 | 6.0 | 0.00 | 0.21 | 0.00 | 50 | 1018.0 |
| 20260504195414 | 76 | 0.0 | 0.0 | 0.00 | 0.21 | 0.00 | 49 | 1017.9 | |
| 20260504195409 | 78 | 132 | 11.0 | 14.0 | 0.00 | 0.00 | 0.00 | 59 | 1016.3 |
| 20260504195405 | 79 | 130 | 11.0 | 15.0 | 0.00 | 0.00 | 0.00 | 62 | 1016.2 |
| 20260504195359 | 78 | 0.0 | 0.0 | 0.00 | 0.21 | 0.00 | 51 | 1017.8 | |
| 20260504195354 | 80 | 0.0 | 0.0 | 0.00 | 0.21 | 0.00 | 56 | 1017.6 | |
| 20260504195348 | 78 | 0.0 | 0.0 | 0.00 | 0.21 | 0.00 | 52 | 1017.5 | |
| 20260504195343 | 77 | 0.0 | 0.0 | 0.00 | 0.21 | 0.00 | 57 | 1017.4 | |
| 20260504195338 | 76 | 149 | 10.0 | 14.0 | 0.00 | 0.21 | 0.00 | 56 | 1017.4 |
| 20260504195333 | 77 | 130 | 9.0 | 14.0 | 0.00 | 0.21 | 0.00 | 60 | 1017.2 |
| 20260504195206 | 79 | 22 | 7.0 | 10.0 | 0.00 | 0.21 | 0.00 | 48 | 1018.0 |
| 20260504195201 | 78 | 132 | 10.0 | 13.0 | 0.00 | 0.21 | 0.00 | 57 | 1017.1 |
| 20260504195156 | 78 | 141 | 10.0 | 14.0 | 0.00 | 0.09 | 0.00 | 57 | 1017.0 |
| 20260504195150 | 79 | 13 | 7.0 | 10.0 | 0.00 | 0.21 | 0.00 | 48 | 1018.0 |
| 20260504195146 | 77 | 144 | 9.0 | 12.0 | 0.00 | 0.21 | 0.00 | 59 | 1017.0 |
| 20260504195141 | 79 | 124 | 11.0 | 15.0 | 0.00 | 0.00 | 0.00 | 61 | 1016.1 |
| 20260504195136 | 79 | 22 | 5.0 | 10.0 | 0.00 | 0.21 | 0.00 | 50 | 1018.1 |
| 20260504195130 | 76 | 0.0 | 0.0 | 0.00 | 0.21 | 0.00 | 49 | 1017.9 | |
| 20260504195125 | 76 | 0.0 | 0.0 | 0.00 | 0.21 | 0.00 | 50 | 1017.8 | |
| 20260504195121 | 77 | 0.0 | 0.0 | 0.00 | 0.21 | 0.00 | 54 | 1017.9 | |
| 20260504195113 | 78 | 140 | 9.0 | 13.0 | 0.00 | 0.00 | 0.00 | 60 | 1017.0 |
| 20260504195107 | 77 | 138 | 8.0 | 12.0 | 0.00 | 0.00 | 0.00 | 53 | 1016.9 |
| 20260504195103 | 78 | 132 | 8.0 | 12.0 | 0.00 | 0.00 | 0.00 | 57 | 1016.8 |
| 20260504195057 | 79 | 139 | 9.0 | 14.0 | 0.00 | 0.00 | 0.00 | 58 | 1016.6 |
| 20260504195052 | 79 | 132 | 10.0 | 14.0 | 0.00 | 0.00 | 0.00 | 60 | 1016.5 |
| 20260504195046 | 79 | 120 | 10.0 | 15.0 | 0.00 | 0.00 | 0.00 | 59 | 1016.1 |
| 20260504195041 | 80 | 129 | 10.0 | 13.0 | 0.00 | 0.00 | 0.00 | 62 | 1015.9 |
| 20260504194913 | 79 | 130 | 11.0 | 15.0 | 0.00 | 0.00 | 0.00 | 62 | 1016.2 |
| 20260504194747 | 78 | 0.0 | 0.0 | 0.00 | 0.21 | 0.00 | 51 | 1017.8 | |
| 20260504194741 | 80 | 0.0 | 0.0 | 0.00 | 0.21 | 0.00 | 56 | 1017.6 | |
| 20260504194737 | 78 | 0.0 | 0.0 | 0.00 | 0.21 | 0.00 | 52 | 1017.5 | |
| 20260504194731 | 77 | 0.0 | 0.0 | 0.00 | 0.21 | 0.00 | 57 | 1017.4 | |
| 20260504194726 | 76 | 149 | 10.0 | 14.0 | 0.00 | 0.21 | 0.00 | 56 | 1017.4 |
| 20260504194721 | 77 | 130 | 9.0 | 14.0 | 0.00 | 0.21 | 0.00 | 60 | 1017.2 |
| 20260504194714 | 78 | 132 | 10.0 | 13.0 | 0.00 | 0.21 | 0.00 | 57 | 1017.1 |
| 20260504194709 | 78 | 141 | 10.0 | 14.0 | 0.00 | 0.09 | 0.00 | 57 | 1017.0 |
| 20260504194703 | 77 | 144 | 9.0 | 12.0 | 0.00 | 0.21 | 0.00 | 59 | 1017.0 |
| 20260504194658 | 79 | 124 | 11.0 | 15.0 | 0.00 | 0.00 | 0.00 | 61 | 1016.1 |
| 20260504194533 | 77 | 138 | 8.0 | 12.0 | 0.00 | 0.00 | 0.00 | 53 | 1016.9 |
| 20260504194529 | 78 | 132 | 8.0 | 12.0 | 0.00 | 0.00 | 0.00 | 57 | 1016.8 |
| 20260504194523 | 79 | 132 | 10.0 | 14.0 | 0.00 | 0.00 | 0.00 | 60 | 1016.5 |
| 20260504194518 | 79 | 120 | 10.0 | 15.0 | 0.00 | 0.00 | 0.00 | 59 | 1016.1 |
| 20260504194511 | 79 | 139 | 9.0 | 14.0 | 0.00 | 0.00 | 0.00 | 58 | 1016.6 |
| 20260504194505 | 80 | 129 | 10.0 | 13.0 | 0.00 | 0.00 | 0.00 | 62 | 1015.9 |
| 20260504194340 | 79 | 130 | 11.0 | 15.0 | 0.00 | 0.00 | 0.00 | 62 | 1016.2 |
| 20260504194213 | 78 | 0.0 | 0.0 | 0.00 | 0.21 | 0.00 | 51 | 1017.8 | |
| 20260504194207 | 80 | 0.0 | 0.0 | 0.00 | 0.21 | 0.00 | 56 | 1017.6 | |
| 20260504194201 | 78 | 0.0 | 0.0 | 0.00 | 0.21 | 0.00 | 52 | 1017.5 | |
| 20260504194157 | 77 | 0.0 | 0.0 | 0.00 | 0.21 | 0.00 | 57 | 1017.4 | |
| 20260504194152 | 76 | 149 | 10.0 | 14.0 | 0.00 | 0.21 | 0.00 | 56 | 1017.4 |
| 20260504194146 | 79 | 124 | 11.0 | 15.0 | 0.00 | 0.00 | 0.00 | 61 | 1016.1 |
| 20260504194020 | 77 | 130 | 9.0 | 14.0 | 0.00 | 0.21 | 0.00 | 60 | 1017.2 |
| 20260504194013 | 78 | 132 | 10.0 | 13.0 | 0.00 | 0.21 | 0.00 | 57 | 1017.1 |
| 20260504194008 | 78 | 141 | 10.0 | 14.0 | 0.00 | 0.09 | 0.00 | 57 | 1017.0 |
| 20260504194002 | 79 | 120 | 10.0 | 15.0 | 0.00 | 0.00 | 0.00 | 59 | 1016.1 |
| 20260504193956 | 77 | 138 | 8.0 | 12.0 | 0.00 | 0.00 | 0.00 | 53 | 1016.9 |
| 20260504193830 | 78 | 140 | 9.0 | 13.0 | 0.00 | 0.00 | 0.00 | 60 | 1017.0 |
| 20260504193824 | 78 | 132 | 8.0 | 12.0 | 0.00 | 0.00 | 0.00 | 57 | 1016.8 |
| 20260504193819 | 79 | 139 | 9.0 | 14.0 | 0.00 | 0.00 | 0.00 | 58 | 1016.6 |
| 20260504193813 | 78 | 132 | 11.0 | 14.0 | 0.00 | 0.00 | 0.00 | 59 | 1016.3 |
| 20260504193808 | 79 | 130 | 11.0 | 15.0 | 0.00 | 0.00 | 0.00 | 62 | 1016.2 |
| 20260504193518 | 79 | 120 | 10.0 | 15.0 | 0.00 | 0.00 | 0.00 | 59 | 1016.1 |
| 20260504193234 | 79 | 130 | 11.0 | 15.0 | 0.00 | 0.00 | 0.00 | 62 | 1016.2 |
| 20260504193104 | 79 | 124 | 11.0 | 15.0 | 0.00 | 0.00 | 0.00 | 61 | 1016.1 |
| 20260504192939 | 76 | 256 | 3.0 | 5.0 | 0.00 | 0.21 | 0.00 | 47 | 1018.0 |
| 20260504192934 | 79 | 139 | 9.0 | 14.0 | 0.00 | 0.00 | 0.00 | 58 | 1016.6 |
| 20260504192928 | 79 | 132 | 10.0 | 14.0 | 0.00 | 0.00 | 0.00 | 60 | 1016.5 |
| 20260504192923 | 76 | 0.0 | 0.0 | 0.00 | 0.21 | 0.00 | 49 | 1017.9 | |
| 20260504192755 | 76 | 0.0 | 0.0 | 0.00 | 0.21 | 0.00 | 49 | 1017.9 | |
| 20260504192750 | 78 | 28 | 6.0 | 11.0 | 0.00 | 0.21 | 0.00 | 46 | 1018.1 |
| 20260504192744 | 77 | 130 | 9.0 | 14.0 | 0.00 | 0.21 | 0.00 | 60 | 1017.2 |
| 20260504192739 | 78 | 256 | 3.0 | 5.0 | 0.00 | 0.21 | 0.00 | 51 | 1018.1 |
| 20260504192734 | 79 | 59 | 1.0 | 5.0 | 0.00 | 0.21 | 0.00 | 44 | 1018.0 |
| 20260504192729 | 80 | 59 | 3.0 | 6.0 | 0.00 | 0.21 | 0.00 | 50 | 1018.0 |
| 20260504192725 | 77 | 0.0 | 0.0 | 0.00 | 0.21 | 0.00 | 54 | 1017.9 | |
| 20260504192720 | 78 | 132 | 11.0 | 14.0 | 0.00 | 0.00 | 0.00 | 59 | 1016.3 |
| 20260504192715 | 78 | 0.0 | 0.0 | 0.00 | 0.21 | 0.00 | 51 | 1017.8 | |
| 20260504192707 | 80 | 0.0 | 0.0 | 0.00 | 0.21 | 0.00 | 56 | 1017.6 | |
| 20260504192701 | 78 | 0.0 | 0.0 | 0.00 | 0.21 | 0.00 | 52 | 1017.5 | |
| 20260504192657 | 77 | 0.0 | 0.0 | 0.00 | 0.21 | 0.00 | 57 | 1017.4 | |
| 20260504192651 | 76 | 149 | 10.0 | 14.0 | 0.00 | 0.21 | 0.00 | 56 | 1017.4 |
| 20260504192646 | 78 | 132 | 10.0 | 13.0 | 0.00 | 0.21 | 0.00 | 57 | 1017.1 |
| 20260504192640 | 78 | 141 | 10.0 | 14.0 | 0.00 | 0.09 | 0.00 | 57 | 1017.0 |
| 20260504192635 | 77 | 144 | 9.0 | 12.0 | 0.00 | 0.21 | 0.00 | 59 | 1017.0 |
| 20260504192629 | 78 | 140 | 9.0 | 13.0 | 0.00 | 0.00 | 0.00 | 60 | 1017.0 |
| 20260504192625 | 77 | 138 | 8.0 | 12.0 | 0.00 | 0.00 | 0.00 | 53 | 1016.9 |
| 20260504192619 | 78 | 132 | 8.0 | 12.0 | 0.00 | 0.00 | 0.00 | 57 | 1016.8 |
| 20260504192611 | 79 | 130 | 11.0 | 15.0 | 0.00 | 0.00 | 0.00 | 62 | 1016.2 |
| 20260504192553 | 79 | 124 | 11.0 | 15.0 | 0.00 | 0.00 | 0.00 | 61 | 1016.1 |
| 20260504192440 | 79 | 132 | 10.0 | 14.0 | 0.00 | 0.00 | 0.00 | 60 | 1016.5 |
| 20260504192314 | 76 | 0.0 | 3.0 | 0.00 | 0.21 | 0.00 | 49 | 1017.9 | |
| 20260504192307 | 76 | 256 | 3.0 | 5.0 | 0.00 | 0.21 | 0.00 | 47 | 1018.0 |
| 20260504192304 | 76 | 0.0 | 0.0 | 0.00 | 0.21 | 0.00 | 49 | 1017.9 | |
| 20260504192257 | 76 | 0.0 | 0.0 | 0.00 | 0.21 | 0.00 | 50 | 1017.8 | |
| 20260504192253 | 76 | 0.0 | 0.0 | 0.00 | 0.21 | 0.00 | 49 | 1017.9 | |
| 20260504192247 | 77 | 130 | 9.0 | 14.0 | 0.00 | 0.21 | 0.00 | 60 | 1017.2 |
| 20260504192242 | 78 | 132 | 11.0 | 14.0 | 0.00 | 0.00 | 0.00 | 59 | 1016.3 |
| 20260504192107 | 77 | 0.0 | 0.0 | 0.00 | 0.21 | 0.00 | 54 | 1017.9 | |
| 20260504192102 | 78 | 0.0 | 0.0 | 0.00 | 0.21 | 0.00 | 51 | 1017.8 | |
| 20260504192056 | 80 | 0.0 | 0.0 | 0.00 | 0.21 | 0.00 | 56 | 1017.6 | |
| 20260504192051 | 78 | 0.0 | 0.0 | 0.00 | 0.21 | 0.00 | 52 | 1017.5 | |
| 20260504192045 | 79 | 130 | 11.0 | 15.0 | 0.00 | 0.00 | 0.00 | 62 | 1016.2 |
| 20260504191923 | 76 | 149 | 10.0 | 14.0 | 0.00 | 0.21 | 0.00 | 56 | 1017.4 |
| 20260504191917 | 78 | 132 | 10.0 | 13.0 | 0.00 | 0.21 | 0.00 | 57 | 1017.1 |
| 20260504191910 | 78 | 141 | 10.0 | 14.0 | 0.00 | 0.09 | 0.00 | 57 | 1017.0 |
| 20260504191906 | 77 | 144 | 9.0 | 12.0 | 0.00 | 0.21 | 0.00 | 59 | 1017.0 |
| 20260504191900 | 78 | 140 | 9.0 | 13.0 | 0.00 | 0.00 | 0.00 | 60 | 1017.0 |
| 20260504191855 | 77 | 138 | 8.0 | 12.0 | 0.00 | 0.00 | 0.00 | 53 | 1016.9 |
| 20260504191851 | 78 | 132 | 8.0 | 12.0 | 0.00 | 0.00 | 0.00 | 57 | 1016.8 |
| 20260504191845 | 79 | 139 | 9.0 | 14.0 | 0.00 | 0.00 | 0.00 | 58 | 1016.6 |
| 20260504191841 | 79 | 132 | 10.0 | 14.0 | 0.00 | 0.00 | 0.00 | 60 | 1016.5 |
| 20260504191711 | 76 | 0.0 | 3.0 | 0.00 | 0.21 | 0.00 | 49 | 1017.9 | |
| 20260504191706 | 76 | 256 | 3.0 | 5.0 | 0.00 | 0.21 | 0.00 | 47 | 1018.0 |
| 20260504191701 | 76 | 0.0 | 0.0 | 0.00 | 0.21 | 0.00 | 49 | 1017.9 | |
| 20260504191656 | 76 | 0.0 | 0.0 | 0.00 | 0.21 | 0.00 | 50 | 1017.8 | |
| 20260504191651 | 76 | 0.0 | 0.0 | 0.00 | 0.21 | 0.00 | 49 | 1017.9 | |
| 20260504191647 | 77 | 130 | 9.0 | 14.0 | 0.00 | 0.21 | 0.00 | 60 | 1017.2 |
| 20260504191641 | 78 | 132 | 11.0 | 14.0 | 0.00 | 0.00 | 0.00 | 59 | 1016.3 |
| 20260504191354 | 78 | 0.0 | 0.0 | 0.00 | 0.21 | 0.00 | 51 | 1017.8 | |
| 20260504191348 | 80 | 0.0 | 0.0 | 0.00 | 0.21 | 0.00 | 56 | 1017.6 | |
| 20260504191343 | 78 | 0.0 | 0.0 | 0.00 | 0.21 | 0.00 | 52 | 1017.5 | |
| 20260504191339 | 78 | 141 | 10.0 | 14.0 | 0.00 | 0.09 | 0.00 | 57 | 1017.0 |
| 20260504191333 | 77 | 0.0 | 0.0 | 0.00 | 0.21 | 0.00 | 57 | 1017.4 | |
| 20260504191329 | 78 | 132 | 10.0 | 13.0 | 0.00 | 0.21 | 0.00 | 57 | 1017.1 |
| 20260504191323 | 76 | 149 | 10.0 | 14.0 | 0.00 | 0.21 | 0.00 | 56 | 1017.4 |
| 20260504191318 | 78 | 132 | 8.0 | 12.0 | 0.00 | 0.00 | 0.00 | 57 | 1016.8 |
| 20260504191311 | 77 | 144 | 9.0 | 12.0 | 0.00 | 0.21 | 0.00 | 59 | 1017.0 |
| 20260504191305 | 78 | 140 | 9.0 | 13.0 | 0.00 | 0.00 | 0.00 | 60 | 1017.0 |
| 20260504191259 | 77 | 138 | 8.0 | 12.0 | 0.00 | 0.00 | 0.00 | 53 | 1016.9 |
| 20260504191254 | 79 | 139 | 9.0 | 14.0 | 0.00 | 0.00 | 0.00 | 58 | 1016.6 |
| 20260504191248 | 79 | 132 | 10.0 | 14.0 | 0.00 | 0.00 | 0.00 | 60 | 1016.5 |
| 20260504190841 | 78 | 141 | 10.0 | 14.0 | 0.00 | 0.09 | 0.00 | 57 | 1017.0 |
| 20260504190835 | 78 | 132 | 8.0 | 12.0 | 0.00 | 0.00 | 0.00 | 57 | 1016.8 |
| 20260504190547 | 77 | 144 | 9.0 | 12.0 | 0.00 | 0.21 | 0.00 | 59 | 1017.0 |
| 20260504190542 | 78 | 140 | 9.0 | 13.0 | 0.00 | 0.00 | 0.00 | 60 | 1017.0 |
| 20260504190536 | 77 | 138 | 8.0 | 12.0 | 0.00 | 0.00 | 0.00 | 53 | 1016.9 |
| 20260504190531 | 79 | 132 | 10.0 | 14.0 | 0.00 | 0.00 | 0.00 | 60 | 1016.5 |
| 20260504190521 | 78 | 132 | 11.0 | 14.0 | 0.00 | 0.00 | 0.00 | 59 | 1016.3 |
| 20260504190238 | 76 | 0.0 | 0.0 | 0.00 | 0.21 | 0.00 | 49 | 1017.9 | |
| 20260504190233 | 77 | 0.0 | 0.0 | 0.00 | 0.21 | 0.00 | 54 | 1017.9 | |
| 20260504190227 | 78 | 141 | 10.0 | 14.0 | 0.00 | 0.09 | 0.00 | 57 | 1017.0 |
| 20260504190222 | 78 | 0.0 | 0.0 | 0.00 | 0.21 | 0.00 | 51 | 1017.8 | |
| 20260504190216 | 80 | 0.0 | 0.0 | 0.00 | 0.21 | 0.00 | 56 | 1017.6 | |
| 20260504190209 | 78 | 0.0 | 0.0 | 0.00 | 0.21 | 0.00 | 52 | 1017.5 | |
| 20260504190204 | 77 | 0.0 | 0.0 | 0.00 | 0.21 | 0.00 | 57 | 1017.4 | |
| 20260504190158 | 76 | 149 | 10.0 | 14.0 | 0.00 | 0.21 | 0.00 | 56 | 1017.4 |
| 20260504190154 | 77 | 130 | 9.0 | 14.0 | 0.00 | 0.21 | 0.00 | 60 | 1017.2 |
| 20260504190149 | 78 | 132 | 10.0 | 13.0 | 0.00 | 0.21 | 0.00 | 57 | 1017.1 |
| 20260504190143 | 78 | 132 | 8.0 | 12.0 | 0.00 | 0.00 | 0.00 | 57 | 1016.8 |
| 20260504190139 | 79 | 139 | 9.0 | 14.0 | 0.00 | 0.00 | 0.00 | 58 | 1016.6 |
| 20260504190011 | 77 | 144 | 9.0 | 12.0 | 0.00 | 0.21 | 0.00 | 59 | 1017.0 |
| 20260504190007 | 78 | 140 | 9.0 | 13.0 | 0.00 | 0.00 | 0.00 | 60 | 1017.0 |
| 20260504185559 | 79 | 139 | 9.0 | 14.0 | 0.00 | 0.00 | 0.00 | 58 | 1016.6 |
| 20260504185543 | 79 | 132 | 10.0 | 14.0 | 0.00 | 0.00 | 0.00 | 60 | 1016.5 |
| 20260504185305 | 77 | 138 | 8.0 | 12.0 | 0.00 | 0.00 | 0.00 | 53 | 1016.9 |
| 20260504185141 | 79 | 59 | 1.0 | 5.0 | 0.00 | 0.21 | 0.00 | 44 | 1018.0 |
| 20260504185135 | 76 | 256 | 3.0 | 5.0 | 0.00 | 0.21 | 0.00 | 47 | 1018.0 |
| 20260504185130 | 76 | 0.0 | 3.0 | 0.00 | 0.21 | 0.00 | 49 | 1017.9 | |
| 20260504185002 | 76 | 0.0 | 0.0 | 0.00 | 0.21 | 0.00 | 49 | 1017.9 | |
| 20260504184958 | 79 | 139 | 9.0 | 14.0 | 0.00 | 0.00 | 0.00 | 58 | 1016.6 |
| 20260504184953 | 76 | 0.0 | 0.0 | 0.00 | 0.21 | 0.00 | 50 | 1017.8 | |
| 20260504184947 | 76 | 0.0 | 0.0 | 0.00 | 0.21 | 0.00 | 49 | 1017.9 | |
| 20260504184941 | 77 | 0.0 | 0.0 | 0.00 | 0.21 | 0.00 | 54 | 1017.9 | |
| 20260504184936 | 78 | 0.0 | 0.0 | 0.00 | 0.21 | 0.00 | 51 | 1017.8 | |
| 20260504184931 | 80 | 0.0 | 0.0 | 0.00 | 0.21 | 0.00 | 56 | 1017.6 | |
| 20260504184925 | 78 | 0.0 | 0.0 | 0.00 | 0.21 | 0.00 | 52 | 1017.5 | |
| 20260504184921 | 77 | 0.0 | 0.0 | 0.00 | 0.21 | 0.00 | 57 | 1017.4 | |
| 20260504184915 | 76 | 149 | 10.0 | 14.0 | 0.00 | 0.21 | 0.00 | 56 | 1017.4 |
| 20260504184910 | 77 | 130 | 9.0 | 14.0 | 0.00 | 0.21 | 0.00 | 60 | 1017.2 |
| 20260504184904 | 78 | 132 | 10.0 | 13.0 | 0.00 | 0.21 | 0.00 | 57 | 1017.1 |
| 20260504184857 | 77 | 144 | 9.0 | 12.0 | 0.00 | 0.21 | 0.00 | 59 | 1017.0 |
| 20260504184853 | 78 | 141 | 10.0 | 14.0 | 0.00 | 0.09 | 0.00 | 57 | 1017.0 |
| 20260504184847 | 78 | 140 | 9.0 | 13.0 | 0.00 | 0.00 | 0.00 | 60 | 1017.0 |
| 20260504184600 | 78 | 31 | 9.0 | 11.0 | 0.00 | 0.21 | 0.00 | 49 | 1018.1 |
| 20260504184556 | 77 | 36 | 5.0 | 10.0 | 0.00 | 0.21 | 0.00 | 51 | 1018.2 |
| 20260504184550 | 79 | 22 | 7.0 | 10.0 | 0.00 | 0.21 | 0.00 | 48 | 1018.0 |
| 20260504184545 | 79 | 17 | 4.0 | 10.0 | 0.00 | 0.21 | 0.00 | 48 | 1018.0 |
| 20260504184540 | 79 | 13 | 7.0 | 10.0 | 0.00 | 0.21 | 0.00 | 48 | 1018.0 |
| 20260504184535 | 79 | 59 | 1.0 | 5.0 | 0.00 | 0.21 | 0.00 | 44 | 1018.0 |
| 20260504184529 | 78 | 256 | 3.0 | 5.0 | 0.00 | 0.21 | 0.00 | 51 | 1018.1 |
| 20260504184524 | 76 | 256 | 3.0 | 5.0 | 0.00 | 0.21 | 0.00 | 47 | 1018.0 |
| 20260504184519 | 78 | 132 | 8.0 | 12.0 | 0.00 | 0.00 | 0.00 | 57 | 1016.8 |
| 20260504184513 | 77 | 54 | 6.0 | 11.0 | 0.00 | 0.21 | 0.00 | 53 | 1018.3 |
| 20260504184508 | 79 | 139 | 9.0 | 14.0 | 0.00 | 0.00 | 0.00 | 58 | 1016.6 |
| 20260504184501 | 80 | 59 | 3.0 | 6.0 | 0.00 | 0.21 | 0.00 | 50 | 1018.0 |
| 20260504184455 | 76 | 0.0 | 3.0 | 0.00 | 0.21 | 0.00 | 49 | 1017.9 | |
| 20260504184450 | 76 | 0.0 | 0.0 | 0.00 | 0.21 | 0.00 | 49 | 1017.9 | |
| 20260504184324 | 78 | 0.0 | 0.0 | 0.00 | 0.21 | 0.00 | 51 | 1017.8 | |
| 20260504184318 | 78 | 0.0 | 0.0 | 0.00 | 0.21 | 0.00 | 52 | 1017.5 | |
| 20260504184312 | 76 | 0.0 | 0.0 | 0.00 | 0.21 | 0.00 | 50 | 1017.8 | |
| 20260504184307 | 79 | 22 | 5.0 | 10.0 | 0.00 | 0.21 | 0.00 | 50 | 1018.1 |
| 20260504184301 | 77 | 0.0 | 0.0 | 0.00 | 0.21 | 0.00 | 54 | 1017.9 | |
| 20260504184254 | 80 | 0.0 | 0.0 | 0.00 | 0.21 | 0.00 | 56 | 1017.6 | |
| 20260504184249 | 78 | 28 | 6.0 | 11.0 | 0.00 | 0.21 | 0.00 | 46 | 1018.1 |
| 20260504184243 | 77 | 0.0 | 0.0 | 0.00 | 0.21 | 0.00 | 57 | 1017.4 | |
| 20260504184239 | 76 | 149 | 10.0 | 14.0 | 0.00 | 0.21 | 0.00 | 56 | 1017.4 |
| 20260504184233 | 77 | 130 | 9.0 | 14.0 | 0.00 | 0.21 | 0.00 | 60 | 1017.2 |
| 20260504184229 | 78 | 132 | 10.0 | 13.0 | 0.00 | 0.21 | 0.00 | 57 | 1017.1 |
| 20260504184224 | 77 | 144 | 9.0 | 12.0 | 0.00 | 0.21 | 0.00 | 59 | 1017.0 |
| 20260504184218 | 78 | 141 | 10.0 | 14.0 | 0.00 | 0.09 | 0.00 | 57 | 1017.0 |
| 20260504184212 | 78 | 140 | 9.0 | 13.0 | 0.00 | 0.00 | 0.00 | 60 | 1017.0 |
| 20260504184207 | 77 | 138 | 8.0 | 12.0 | 0.00 | 0.00 | 0.00 | 53 | 1016.9 |
| 20260504184042 | 78 | 132 | 8.0 | 12.0 | 0.00 | 0.00 | 0.00 | 57 | 1016.8 |
| 20260504184036 | 79 | 22 | 7.0 | 10.0 | 0.00 | 0.21 | 0.00 | 48 | 1018.0 |
| 20260504184031 | 79 | 13 | 7.0 | 10.0 | 0.00 | 0.21 | 0.00 | 48 | 1018.0 |
| 20260504184026 | 79 | 17 | 4.0 | 10.0 | 0.00 | 0.21 | 0.00 | 48 | 1018.0 |
| 20260504184020 | 80 | 59 | 3.0 | 6.0 | 0.00 | 0.21 | 0.00 | 50 | 1018.0 |
| 20260504184015 | 78 | 256 | 3.0 | 5.0 | 0.00 | 0.21 | 0.00 | 51 | 1018.1 |
| 20260504184010 | 79 | 59 | 1.0 | 5.0 | 0.00 | 0.21 | 0.00 | 44 | 1018.0 |
| 20260504184005 | 76 | 256 | 3.0 | 5.0 | 0.00 | 0.21 | 0.00 | 47 | 1018.0 |
| 20260504183838 | 76 | 0.0 | 0.0 | 0.00 | 0.21 | 0.00 | 49 | 1017.9 | |
| 20260504183833 | 76 | 0.0 | 0.0 | 0.00 | 0.21 | 0.00 | 50 | 1017.8 | |
| 20260504183829 | 76 | 0.0 | 0.0 | 0.00 | 0.21 | 0.00 | 49 | 1017.9 | |
| 20260504183823 | 77 | 0.0 | 0.0 | 0.00 | 0.21 | 0.00 | 54 | 1017.9 | |
| 20260504183818 | 78 | 0.0 | 0.0 | 0.00 | 0.21 | 0.00 | 51 | 1017.8 | |
| 20260504183812 | 80 | 0.0 | 0.0 | 0.00 | 0.21 | 0.00 | 56 | 1017.6 | |
| 20260504183806 | 78 | 0.0 | 0.0 | 0.00 | 0.21 | 0.00 | 52 | 1017.5 | |
| 20260504183639 | 76 | 149 | 10.0 | 14.0 | 0.00 | 0.21 | 0.00 | 56 | 1017.4 |
| 20260504183633 | 77 | 130 | 9.0 | 14.0 | 0.00 | 0.21 | 0.00 | 60 | 1017.2 |
| 20260504183629 | 78 | 132 | 10.0 | 13.0 | 0.00 | 0.21 | 0.00 | 57 | 1017.1 |
| 20260504183623 | 77 | 144 | 9.0 | 12.0 | 0.00 | 0.21 | 0.00 | 59 | 1017.0 |
| 20260504183618 | 78 | 141 | 10.0 | 14.0 | 0.00 | 0.09 | 0.00 | 57 | 1017.0 |
| 20260504183612 | 78 | 140 | 9.0 | 13.0 | 0.00 | 0.00 | 0.00 | 60 | 1017.0 |
| 20260504183607 | 77 | 138 | 8.0 | 12.0 | 0.00 | 0.00 | 0.00 | 53 | 1016.9 |
| 20260504183551 | 78 | 132 | 8.0 | 12.0 | 0.00 | 0.00 | 0.00 | 57 | 1016.8 |
| 20260504183436 | 85 | 5 | 2.0 | 7.0 | 0.00 | 0.01 | 0.01 | 70 | 1007.2 |
| 20260504183430 | 85 | 56 | 2.0 | 10.0 | 0.00 | 0.01 | 0.01 | 72 | 1007.4 |
| 20260504183426 | 85 | 57 | 6.0 | 10.0 | 0.00 | 0.01 | 0.01 | 73 | 1007.5 |
| 20260504183421 | 85 | 0 | 7.0 | 12.0 | 0.00 | 0.01 | 0.01 | 76 | 1007.6 |
| 20260504183415 | 85 | 42 | 9.0 | 12.0 | 0.01 | 0.01 | 0.01 | 77 | 1007.8 |
| 20260504183249 | 84 | 40 | 8.0 | 13.0 | 0.01 | 0.01 | 0.01 | 79 | 1007.9 |
| 20260504183243 | 77 | 35 | 9.0 | 12.0 | 0.00 | 0.21 | 0.00 | 59 | 1018.0 |
| 20260504183236 | 79 | 22 | 5.0 | 10.0 | 0.00 | 0.21 | 0.00 | 50 | 1018.1 |
| 20260504183230 | 78 | 39 | 8.0 | 12.0 | 0.00 | 0.21 | 0.00 | 51 | 1018.1 |
| 20260504183225 | 77 | 54 | 6.0 | 11.0 | 0.00 | 0.21 | 0.00 | 53 | 1018.3 |
| 20260504183221 | 79 | 17 | 4.0 | 10.0 | 0.00 | 0.21 | 0.00 | 48 | 1018.0 |
| 20260504183215 | 80 | 59 | 3.0 | 6.0 | 0.00 | 0.21 | 0.00 | 50 | 1018.0 |
| 20260504183209 | 78 | 256 | 3.0 | 5.0 | 0.00 | 0.21 | 0.00 | 51 | 1018.1 |
| 20260504183204 | 80 | 0.0 | 0.0 | 0.00 | 0.21 | 0.00 | 56 | 1017.6 | |
| 20260504183159 | 76 | 0.0 | 3.0 | 0.00 | 0.21 | 0.00 | 49 | 1017.9 | |
| 20260504183154 | 76 | 0.0 | 0.0 | 0.00 | 0.21 | 0.00 | 49 | 1017.9 | |
| 20260504183149 | 76 | 0.0 | 0.0 | 0.00 | 0.21 | 0.00 | 49 | 1017.9 | |
| 20260504183143 | 76 | 256 | 3.0 | 5.0 | 0.00 | 0.21 | 0.00 | 47 | 1018.0 |
| 20260504183136 | 76 | 0.0 | 0.0 | 0.00 | 0.21 | 0.00 | 50 | 1017.8 | |
| 20260504183131 | 78 | 28 | 6.0 | 11.0 | 0.00 | 0.21 | 0.00 | 46 | 1018.1 |
| 20260504183126 | 79 | 59 | 1.0 | 5.0 | 0.00 | 0.21 | 0.00 | 44 | 1018.0 |
| 20260504183121 | 78 | 0.0 | 0.0 | 0.00 | 0.21 | 0.00 | 52 | 1017.5 | |
| 20260504183116 | 77 | 0.0 | 0.0 | 0.00 | 0.21 | 0.00 | 57 | 1017.4 | |
| 20260504183111 | 77 | 0.0 | 0.0 | 0.00 | 0.21 | 0.00 | 54 | 1017.9 | |
| 20260504183105 | 78 | 141 | 10.0 | 14.0 | 0.00 | 0.09 | 0.00 | 57 | 1017.0 |
| 20260504183100 | 78 | 31 | 9.0 | 11.0 | 0.00 | 0.21 | 0.00 | 49 | 1018.1 |
| 20260504183054 | 78 | 140 | 9.0 | 13.0 | 0.00 | 0.00 | 0.00 | 60 | 1017.0 |
| 20260504183049 | 78 | 0.0 | 0.0 | 0.00 | 0.21 | 0.00 | 51 | 1017.8 | |
| 20260504183043 | 79 | 22 | 7.0 | 10.0 | 0.00 | 0.21 | 0.00 | 48 | 1018.0 |
| 20260504183036 | 79 | 13 | 7.0 | 10.0 | 0.00 | 0.21 | 0.00 | 48 | 1018.0 |
| 20260504183032 | 76 | 149 | 10.0 | 14.0 | 0.00 | 0.21 | 0.00 | 56 | 1017.4 |
| 20260504183027 | 77 | 130 | 9.0 | 14.0 | 0.00 | 0.21 | 0.00 | 60 | 1017.2 |
| 20260504183022 | 77 | 138 | 8.0 | 12.0 | 0.00 | 0.00 | 0.00 | 53 | 1016.9 |
| 20260504183016 | 78 | 132 | 10.0 | 13.0 | 0.00 | 0.21 | 0.00 | 57 | 1017.1 |
| 20260504183011 | 77 | 144 | 9.0 | 12.0 | 0.00 | 0.21 | 0.00 | 59 | 1017.0 |
| 20260504182847 | 83 | 31 | 5.0 | 13.0 | 0.01 | 0.01 | 0.01 | 76 | 1007.9 |
| 20260504182843 | 84 | 24 | 2.0 | 6.0 | 0.01 | 0.01 | 0.01 | 75 | 1008.0 |
| 20260504182838 | 85 | 327 | 3.0 | 11.0 | 0.01 | 0.01 | 0.01 | 73 | 1008.3 |
| 20260504182831 | 87 | 281 | 6.0 | 16.0 | 0.00 | 0.00 | 0.00 | 65 | 1008.3 |
| 20260504182825 | 90 | 248 | 9.0 | 16.0 | 0.00 | 0.00 | 0.00 | 59 | 1008.4 |
| 20260504182820 | 89 | 240 | 9.0 | 16.0 | 0.00 | 0.00 | 0.00 | 62 | 1008.5 |
| 20260504182815 | 89 | 290 | 7.0 | 16.0 | 0.00 | 0.00 | 0.00 | 60 | 1008.6 |
| 20260504182810 | 88 | 0 | 8.0 | 16.0 | 0.00 | 0.00 | 0.00 | 66 | 1008.8 |
| 20260504182804 | 86 | 229 | 7.0 | 15.0 | 0.00 | 0.00 | 0.00 | 67 | 1008.9 |
| 20260504182759 | 86 | 306 | 6.0 | 11.0 | 0.00 | 0.00 | 0.00 | 74 | 1008.9 |
| 20260504182755 | 87 | 22 | 7.0 | 11.0 | 0.00 | 0.00 | 0.00 | 72 | 1009.0 |
| 20260504182749 | 76 | 42 | 9.0 | 12.0 | 0.00 | 0.21 | 0.00 | 57 | 1018.0 |
| 20260504182744 | 77 | 35 | 9.0 | 12.0 | 0.00 | 0.21 | 0.00 | 59 | 1018.0 |
| 20260504182738 | 77 | 36 | 5.0 | 10.0 | 0.00 | 0.21 | 0.00 | 51 | 1018.2 |
| 20260504182731 | 79 | 22 | 5.0 | 10.0 | 0.00 | 0.21 | 0.00 | 50 | 1018.1 |
| 20260504182727 | 80 | 0.0 | 0.0 | 0.00 | 0.21 | 0.00 | 56 | 1017.6 | |
| 20260504182721 | 79 | 17 | 4.0 | 10.0 | 0.00 | 0.21 | 0.00 | 48 | 1018.0 |
| 20260504182715 | 80 | 59 | 3.0 | 6.0 | 0.00 | 0.21 | 0.00 | 50 | 1018.0 |
| 20260504182710 | 78 | 256 | 3.0 | 5.0 | 0.00 | 0.21 | 0.00 | 51 | 1018.1 |
| 20260504182706 | 76 | 256 | 3.0 | 5.0 | 0.00 | 0.21 | 0.00 | 47 | 1018.0 |
| 20260504182700 | 76 | 0.0 | 3.0 | 0.00 | 0.21 | 0.00 | 49 | 1017.9 | |
| 20260504182655 | 78 | 39 | 8.0 | 12.0 | 0.00 | 0.21 | 0.00 | 51 | 1018.1 |
| 20260504182651 | 76 | 0.0 | 0.0 | 0.00 | 0.21 | 0.00 | 49 | 1017.9 | |
| 20260504182645 | 79 | 59 | 1.0 | 5.0 | 0.00 | 0.21 | 0.00 | 44 | 1018.0 |
| 20260504182641 | 76 | 0.0 | 0.0 | 0.00 | 0.21 | 0.00 | 50 | 1017.8 | |
| 20260504182635 | 76 | 0.0 | 0.0 | 0.00 | 0.21 | 0.00 | 49 | 1017.9 | |
| 20260504182628 | 77 | 0.0 | 0.0 | 0.00 | 0.21 | 0.00 | 57 | 1017.4 | |
| 20260504182623 | 77 | 0.0 | 0.0 | 0.00 | 0.21 | 0.00 | 54 | 1017.9 | |
| 20260504182618 | 78 | 0.0 | 0.0 | 0.00 | 0.21 | 0.00 | 52 | 1017.5 | |
| 20260504182613 | 77 | 54 | 6.0 | 11.0 | 0.00 | 0.21 | 0.00 | 53 | 1018.3 |
| 20260504182609 | 78 | 28 | 6.0 | 11.0 | 0.00 | 0.21 | 0.00 | 46 | 1018.1 |
| 20260504182603 | 78 | 0.0 | 0.0 | 0.00 | 0.21 | 0.00 | 51 | 1017.8 | |
| 20260504182557 | 78 | 140 | 9.0 | 13.0 | 0.00 | 0.00 | 0.00 | 60 | 1017.0 |
| 20260504182552 | 78 | 31 | 9.0 | 11.0 | 0.00 | 0.21 | 0.00 | 49 | 1018.1 |
| 20260504182547 | 78 | 141 | 10.0 | 14.0 | 0.00 | 0.09 | 0.00 | 57 | 1017.0 |
| 20260504182535 | 77 | 138 | 8.0 | 12.0 | 0.00 | 0.00 | 0.00 | 53 | 1016.9 |
| 20260504182417 | 76 | 149 | 10.0 | 14.0 | 0.00 | 0.21 | 0.00 | 56 | 1017.4 |
| 20260504182412 | 77 | 130 | 9.0 | 14.0 | 0.00 | 0.21 | 0.00 | 60 | 1017.2 |
| 20260504182408 | 79 | 13 | 7.0 | 10.0 | 0.00 | 0.21 | 0.00 | 48 | 1018.0 |
| 20260504182402 | 78 | 132 | 10.0 | 13.0 | 0.00 | 0.21 | 0.00 | 57 | 1017.1 |
| 20260504182357 | 77 | 144 | 9.0 | 12.0 | 0.00 | 0.21 | 0.00 | 59 | 1017.0 |
| 20260504182228 | 77 | 36 | 5.0 | 10.0 | 0.00 | 0.21 | 0.00 | 51 | 1018.2 |
| 20260504182223 | 79 | 22 | 5.0 | 10.0 | 0.00 | 0.21 | 0.00 | 50 | 1018.1 |
| 20260504182217 | 79 | 17 | 4.0 | 10.0 | 0.00 | 0.21 | 0.00 | 48 | 1018.0 |
| 20260504182212 | 80 | 59 | 3.0 | 6.0 | 0.00 | 0.21 | 0.00 | 50 | 1018.0 |
| 20260504182207 | 78 | 256 | 3.0 | 5.0 | 0.00 | 0.21 | 0.00 | 51 | 1018.1 |
| 20260504182202 | 79 | 59 | 1.0 | 5.0 | 0.00 | 0.21 | 0.00 | 44 | 1018.0 |
| 20260504182157 | 76 | 256 | 3.0 | 5.0 | 0.00 | 0.21 | 0.00 | 47 | 1018.0 |
| 20260504182151 | 76 | 0.0 | 3.0 | 0.00 | 0.21 | 0.00 | 49 | 1017.9 | |
| 20260504182147 | 76 | 0.0 | 0.0 | 0.00 | 0.21 | 0.00 | 49 | 1017.9 | |
| 20260504182142 | 76 | 0.0 | 0.0 | 0.00 | 0.21 | 0.00 | 50 | 1017.8 | |
| 20260504182136 | 76 | 0.0 | 0.0 | 0.00 | 0.21 | 0.00 | 49 | 1017.9 | |
| 20260504182129 | 77 | 0.0 | 0.0 | 0.00 | 0.21 | 0.00 | 54 | 1017.9 | |
| 20260504182123 | 78 | 0.0 | 0.0 | 0.00 | 0.21 | 0.00 | 51 | 1017.8 | |
| 20260504182118 | 78 | 0.0 | 0.0 | 0.00 | 0.21 | 0.00 | 52 | 1017.5 | |
| 20260504182112 | 77 | 0.0 | 0.0 | 0.00 | 0.21 | 0.00 | 57 | 1017.4 | |
| 20260504182107 | 78 | 140 | 9.0 | 13.0 | 0.00 | 0.00 | 0.00 | 60 | 1017.0 |
| 20260504182103 | 78 | 141 | 10.0 | 14.0 | 0.00 | 0.09 | 0.00 | 57 | 1017.0 |
| 20260504181936 | 77 | 130 | 9.0 | 14.0 | 0.00 | 0.21 | 0.00 | 60 | 1017.2 |
| 20260504181808 | 79 | 22 | 7.0 | 10.0 | 0.00 | 0.21 | 0.00 | 48 | 1018.0 |
| 20260504181803 | 79 | 13 | 7.0 | 10.0 | 0.00 | 0.21 | 0.00 | 48 | 1018.0 |
| 20260504181759 | 80 | 0.0 | 0.0 | 0.00 | 0.21 | 0.00 | 56 | 1017.6 | |
| 20260504181753 | 78 | 132 | 10.0 | 13.0 | 0.00 | 0.21 | 0.00 | 57 | 1017.1 |
| 20260504181749 | 77 | 144 | 9.0 | 12.0 | 0.00 | 0.21 | 0.00 | 59 | 1017.0 |
| 20260504181620 | 80 | 59 | 3.0 | 6.0 | 0.00 | 0.21 | 0.00 | 50 | 1018.0 |
| 20260504181616 | 78 | 256 | 3.0 | 5.0 | 0.00 | 0.21 | 0.00 | 51 | 1018.1 |
| 20260504181610 | 79 | 59 | 1.0 | 5.0 | 0.00 | 0.21 | 0.00 | 44 | 1018.0 |
| 20260504181605 | 76 | 256 | 3.0 | 5.0 | 0.00 | 0.21 | 0.00 | 47 | 1018.0 |
| 20260504181600 | 76 | 0.0 | 3.0 | 0.00 | 0.21 | 0.00 | 49 | 1017.9 | |
| 20260504181555 | 78 | 141 | 10.0 | 14.0 | 0.00 | 0.09 | 0.00 | 57 | 1017.0 |
| 20260504181540 | 78 | 140 | 9.0 | 13.0 | 0.00 | 0.00 | 0.00 | 60 | 1017.0 |
| 20260504181420 | 77 | 0.0 | 0.0 | 0.00 | 0.21 | 0.00 | 54 | 1017.9 | |
| 20260504181415 | 76 | 0.0 | 0.0 | 0.00 | 0.21 | 0.00 | 50 | 1017.8 | |
| 20260504181409 | 78 | 0.0 | 0.0 | 0.00 | 0.21 | 0.00 | 51 | 1017.8 | |
| 20260504181405 | 77 | 0.0 | 0.0 | 0.00 | 0.21 | 0.00 | 57 | 1017.4 | |
| 20260504181359 | 76 | 0.0 | 0.0 | 0.00 | 0.21 | 0.00 | 49 | 1017.9 | |
| 20260504181354 | 78 | 0.0 | 0.0 | 0.00 | 0.21 | 0.00 | 52 | 1017.5 | |
| 20260504181350 | 76 | 149 | 10.0 | 14.0 | 0.00 | 0.21 | 0.00 | 56 | 1017.4 |
| 20260504181344 | 77 | 130 | 9.0 | 14.0 | 0.00 | 0.21 | 0.00 | 60 | 1017.2 |
| 20260504181216 | 80 | 0.0 | 0.0 | 0.00 | 0.21 | 0.00 | 56 | 1017.6 | |
| 20260504181212 | 77 | 144 | 9.0 | 12.0 | 0.00 | 0.21 | 0.00 | 59 | 1017.0 |
| 20260504180925 | 78 | 256 | 3.0 | 5.0 | 0.00 | 0.21 | 0.00 | 51 | 1018.1 |
| 20260504180920 | 76 | 0.0 | 3.0 | 0.00 | 0.21 | 0.00 | 49 | 1017.9 | |
| 20260504180914 | 77 | 0.0 | 0.0 | 0.00 | 0.21 | 0.00 | 54 | 1017.9 | |
| 20260504180909 | 76 | 0.0 | 0.0 | 0.00 | 0.21 | 0.00 | 49 | 1017.9 | |
| 20260504180903 | 76 | 0.0 | 0.0 | 0.00 | 0.21 | 0.00 | 49 | 1017.9 | |
| 20260504180859 | 78 | 0.0 | 0.0 | 0.00 | 0.21 | 0.00 | 51 | 1017.8 | |
| 20260504180853 | 78 | 0.0 | 0.0 | 0.00 | 0.21 | 0.00 | 52 | 1017.5 | |
| 20260504180848 | 77 | 0.0 | 0.0 | 0.00 | 0.21 | 0.00 | 57 | 1017.4 | |
| 20260504180842 | 76 | 149 | 10.0 | 14.0 | 0.00 | 0.21 | 0.00 | 56 | 1017.4 |
| 20260504180836 | 77 | 130 | 9.0 | 14.0 | 0.00 | 0.21 | 0.00 | 60 | 1017.2 |
| 20260504180709 | 78 | 132 | 10.0 | 13.0 | 0.00 | 0.21 | 0.00 | 57 | 1017.1 |
| 20260504180535 | 78 | 141 | 10.0 | 14.0 | 0.00 | 0.09 | 0.00 | 57 | 1017.0 |
| 20260504180417 | 77 | 0.0 | 0.0 | 0.00 | 0.21 | 0.00 | 54 | 1017.9 | |
| 20260504180413 | 78 | 0.0 | 0.0 | 0.00 | 0.21 | 0.00 | 52 | 1017.5 | |
| 20260504180247 | 76 | 149 | 10.0 | 14.0 | 0.00 | 0.21 | 0.00 | 56 | 1017.4 |
| 20260504180241 | 77 | 130 | 9.0 | 14.0 | 0.00 | 0.21 | 0.00 | 60 | 1017.2 |
| 20260504180115 | 76 | 0.0 | 3.0 | 0.00 | 0.21 | 0.00 | 49 | 1017.9 | |
| 20260504180109 | 78 | 0.0 | 0.0 | 0.00 | 0.21 | 0.00 | 51 | 1017.8 | |
| 20260504180104 | 76 | 0.0 | 0.0 | 0.00 | 0.21 | 0.00 | 49 | 1017.9 | |
| 20260504180058 | 78 | 132 | 10.0 | 13.0 | 0.00 | 0.21 | 0.00 | 57 | 1017.1 |
| 20260504180052 | 76 | 0.0 | 0.0 | 0.00 | 0.21 | 0.00 | 49 | 1017.9 | |
| 20260504180048 | 80 | 0.0 | 0.0 | 0.00 | 0.21 | 0.00 | 56 | 1017.6 | |
| 20260504180043 | 77 | 144 | 9.0 | 12.0 | 0.00 | 0.21 | 0.00 | 59 | 1017.0 |
| 20260504175755 | 77 | 0.0 | 0.0 | 0.00 | 0.21 | 0.00 | 54 | 1017.9 | |
| 20260504175749 | 86 | 251 | 8.0 | 17.0 | 0.00 | 0.00 | 0.00 | 69 | 1009.2 |
| 20260504175745 | 76 | 0.0 | 0.0 | 0.00 | 0.21 | 0.00 | 50 | 1017.8 | |
| 20260504175739 | 86 | 251 | 10.0 | 21.0 | 0.00 | 0.00 | 0.00 | 65 | 1009.2 |
| 20260504175734 | 77 | 0.0 | 0.0 | 0.00 | 0.21 | 0.00 | 57 | 1017.4 | |
| 20260504175728 | 87 | 232 | 6.0 | 19.0 | 0.00 | 0.00 | 0.00 | 66 | 1009.4 |
| 20260504175723 | 78 | 0.0 | 0.0 | 0.00 | 0.21 | 0.00 | 52 | 1017.5 | |
| 20260504175717 | 87 | 261 | 6.0 | 12.0 | 0.00 | 0.00 | 0.00 | 68 | 1009.4 |
| 20260504175713 | 85 | 237 | 5.0 | 11.0 | 0.00 | 0.00 | 0.00 | 71 | 1009.7 |
| 20260504175705 | 84 | 232 | 4.0 | 8.0 | 0.00 | 0.00 | 0.00 | 72 | 1009.9 |
| 20260504175659 | 84 | 253 | 4.0 | 11.0 | 0.00 | 0.00 | 0.00 | 72 | 1010.1 |
| 20260504175655 | 84 | 238 | 6.0 | 11.0 | 0.00 | 0.00 | 0.00 | 70 | 1010.4 |
| 20260504175649 | 75 | 51 | 8.0 | 11.0 | 0.00 | 0.21 | 0.00 | 63 | 1018.0 |
| 20260504175645 | 76 | 42 | 9.0 | 12.0 | 0.00 | 0.21 | 0.00 | 57 | 1018.0 |
| 20260504175639 | 72 | 40 | 7.0 | 10.0 | 0.00 | 0.21 | 0.00 | 69 | 1018.0 |
| 20260504175634 | 77 | 35 | 9.0 | 12.0 | 0.00 | 0.21 | 0.00 | 59 | 1018.0 |
| 20260504175629 | 76 | 0.0 | 3.0 | 0.00 | 0.21 | 0.00 | 49 | 1017.9 | |
| 20260504175624 | 77 | 130 | 9.0 | 14.0 | 0.00 | 0.21 | 0.00 | 60 | 1017.2 |
| 20260504175619 | 76 | 149 | 10.0 | 14.0 | 0.00 | 0.21 | 0.00 | 56 | 1017.4 |
| 20260504175613 | 78 | 39 | 8.0 | 12.0 | 0.00 | 0.21 | 0.00 | 51 | 1018.1 |
| 20260504175608 | 77 | 54 | 6.0 | 11.0 | 0.00 | 0.21 | 0.00 | 53 | 1018.3 |
| 20260504175600 | 78 | 132 | 10.0 | 13.0 | 0.00 | 0.21 | 0.00 | 57 | 1017.1 |
| 20260504175555 | 78 | 31 | 9.0 | 11.0 | 0.00 | 0.21 | 0.00 | 49 | 1018.1 |
| 20260504175551 | 77 | 36 | 5.0 | 10.0 | 0.00 | 0.21 | 0.00 | 51 | 1018.2 |
| 20260504175545 | 78 | 0.0 | 0.0 | 0.00 | 0.21 | 0.00 | 51 | 1017.8 | |
| 20260504175540 | 76 | 0.0 | 0.0 | 0.00 | 0.21 | 0.00 | 49 | 1017.9 | |
| 20260504175534 | 76 | 0.0 | 0.0 | 0.00 | 0.21 | 0.00 | 49 | 1017.9 | |
| 20260504175529 | 80 | 0.0 | 0.0 | 0.00 | 0.21 | 0.00 | 56 | 1017.6 | |
| 20260504175518 | 77 | 144 | 9.0 | 12.0 | 0.00 | 0.21 | 0.00 | 59 | 1017.0 |
| 20260504175359 | 79 | 22 | 7.0 | 10.0 | 0.00 | 0.21 | 0.00 | 48 | 1018.0 |
| 20260504175354 | 78 | 28 | 6.0 | 11.0 | 0.00 | 0.21 | 0.00 | 46 | 1018.1 |
| 20260504175348 | 79 | 17 | 4.0 | 10.0 | 0.00 | 0.21 | 0.00 | 48 | 1018.0 |
| 20260504175343 | 80 | 59 | 3.0 | 6.0 | 0.00 | 0.21 | 0.00 | 50 | 1018.0 |
| 20260504175337 | 79 | 59 | 1.0 | 5.0 | 0.00 | 0.21 | 0.00 | 44 | 1018.0 |
| 20260504175332 | 79 | 13 | 7.0 | 10.0 | 0.00 | 0.21 | 0.00 | 48 | 1018.0 |
| 20260504175326 | 76 | 256 | 3.0 | 5.0 | 0.00 | 0.21 | 0.00 | 47 | 1018.0 |
| 20260504175321 | 78 | 256 | 3.0 | 5.0 | 0.00 | 0.21 | 0.00 | 51 | 1018.1 |
| 20260504175315 | 85 | 238 | 5.0 | 11.0 | 0.00 | 0.00 | 0.00 | 70 | 1010.2 |
| 20260504175311 | 76 | 0.0 | 0.0 | 0.00 | 0.21 | 0.00 | 50 | 1017.8 | |
| 20260504175304 | 77 | 0.0 | 0.0 | 0.00 | 0.21 | 0.00 | 57 | 1017.4 | |
| 20260504175258 | 77 | 0.0 | 0.0 | 0.00 | 0.21 | 0.00 | 54 | 1017.9 | |
| 20260504175253 | 83 | 234 | 4.0 | 9.0 | 0.00 | 0.00 | 0.00 | 71 | 1010.4 |
| 20260504175247 | 78 | 0.0 | 0.0 | 0.00 | 0.21 | 0.00 | 52 | 1017.5 | |
| 20260504175243 | 85 | 260 | 6.0 | 11.0 | 0.00 | 0.00 | 0.00 | 70 | 1010.6 |
| 20260504175237 | 85 | 281 | 6.0 | 12.0 | 0.00 | 0.00 | 0.00 | 74 | 1010.8 |
| 20260504175232 | 84 | 234 | 6.0 | 11.0 | 0.00 | 0.00 | 0.00 | 74 | 1010.7 |
| 20260504175226 | 84 | 260 | 4.0 | 12.0 | 0.00 | 0.00 | 0.00 | 72 | 1010.7 |
| 20260504175222 | 70 | 32 | 6.0 | 8.0 | 0.00 | 0.21 | 0.00 | 77 | 1017.9 |
| 20260504175216 | 67 | 36 | 6.0 | 8.0 | 0.00 | 0.27 | 0.00 | 82 | 1018.0 |
| 20260504175211 | 65 | 0 | 4.0 | 8.0 | 0.00 | 0.27 | 0.00 | 87 | 1018.0 |
| 20260504175207 | 63 | 343 | 2.0 | 4.0 | 0.00 | 0.27 | 0.00 | 90 | 1017.8 |
| 20260504175159 | 62 | 340 | 1.0 | 4.0 | 0.00 | 0.27 | 0.00 | 91 | 1017.7 |
| 20260504175154 | 61 | 311 | 2.0 | 5.0 | 0.00 | 0.27 | 0.00 | 92 | 1017.8 |
| 20260504175149 | 75 | 51 | 8.0 | 11.0 | 0.00 | 0.21 | 0.00 | 63 | 1018.0 |
| 20260504175143 | 72 | 40 | 7.0 | 10.0 | 0.00 | 0.21 | 0.00 | 69 | 1018.0 |
| 20260504175138 | 76 | 42 | 9.0 | 12.0 | 0.00 | 0.21 | 0.00 | 57 | 1018.0 |
| 20260504175132 | 77 | 35 | 9.0 | 12.0 | 0.00 | 0.21 | 0.00 | 59 | 1018.0 |
| 20260504175126 | 76 | 149 | 10.0 | 14.0 | 0.00 | 0.21 | 0.00 | 56 | 1017.4 |
| 20260504175121 | 78 | 39 | 8.0 | 12.0 | 0.00 | 0.21 | 0.00 | 51 | 1018.1 |
| 20260504175117 | 77 | 130 | 9.0 | 14.0 | 0.00 | 0.21 | 0.00 | 60 | 1017.2 |
| 20260504175112 | 77 | 54 | 6.0 | 11.0 | 0.00 | 0.21 | 0.00 | 53 | 1018.3 |
| 20260504175107 | 78 | 31 | 9.0 | 11.0 | 0.00 | 0.21 | 0.00 | 49 | 1018.1 |
| 20260504175100 | 76 | 0.0 | 3.0 | 0.00 | 0.21 | 0.00 | 49 | 1017.9 | |
| 20260504175054 | 78 | 0.0 | 0.0 | 0.00 | 0.21 | 0.00 | 51 | 1017.8 | |
| 20260504175049 | 78 | 132 | 10.0 | 13.0 | 0.00 | 0.21 | 0.00 | 57 | 1017.1 |
| 20260504174922 | 76 | 0.0 | 0.0 | 0.00 | 0.21 | 0.00 | 49 | 1017.9 | |
| 20260504174918 | 77 | 36 | 5.0 | 10.0 | 0.00 | 0.21 | 0.00 | 51 | 1018.2 |
| 20260504174913 | 80 | 0.0 | 0.0 | 0.00 | 0.21 | 0.00 | 56 | 1017.6 | |
| 20260504174907 | 79 | 22 | 5.0 | 10.0 | 0.00 | 0.21 | 0.00 | 50 | 1018.1 |
| 20260504174903 | 78 | 28 | 6.0 | 11.0 | 0.00 | 0.21 | 0.00 | 46 | 1018.1 |
| 20260504174854 | 79 | 22 | 7.0 | 10.0 | 0.00 | 0.21 | 0.00 | 48 | 1018.0 |
| 20260504174849 | 79 | 13 | 7.0 | 10.0 | 0.00 | 0.21 | 0.00 | 48 | 1018.0 |
| 20260504174845 | 79 | 17 | 4.0 | 10.0 | 0.00 | 0.21 | 0.00 | 48 | 1018.0 |
| 20260504174839 | 80 | 59 | 3.0 | 6.0 | 0.00 | 0.21 | 0.00 | 50 | 1018.0 |
| 20260504174834 | 78 | 256 | 3.0 | 5.0 | 0.00 | 0.21 | 0.00 | 51 | 1018.1 |
| 20260504174828 | 79 | 59 | 1.0 | 5.0 | 0.00 | 0.21 | 0.00 | 44 | 1018.0 |
| 20260504174823 | 76 | 256 | 3.0 | 5.0 | 0.00 | 0.21 | 0.00 | 47 | 1018.0 |
| 20260504174818 | 76 | 0.0 | 0.0 | 0.00 | 0.21 | 0.00 | 50 | 1017.8 | |
| 20260504174813 | 77 | 0.0 | 0.0 | 0.00 | 0.21 | 0.00 | 54 | 1017.9 | |
| 20260504174807 | 78 | 0.0 | 0.0 | 0.00 | 0.21 | 0.00 | 52 | 1017.5 | |
| 20260504174802 | 77 | 0.0 | 0.0 | 0.00 | 0.21 | 0.00 | 57 | 1017.4 | |
| 20260504174635 | 77 | 130 | 9.0 | 14.0 | 0.00 | 0.21 | 0.00 | 60 | 1017.2 |
| 20260504174511 | 75 | 51 | 8.0 | 11.0 | 0.00 | 0.21 | 0.00 | 63 | 1018.0 |
| 20260504174505 | 78 | 0.0 | 0.0 | 0.00 | 0.21 | 0.00 | 51 | 1017.8 | |
| 20260504174500 | 78 | 132 | 10.0 | 13.0 | 0.00 | 0.21 | 0.00 | 57 | 1017.1 |
| 20260504174454 | 72 | 40 | 7.0 | 10.0 | 0.00 | 0.21 | 0.00 | 69 | 1018.0 |
| 20260504174447 | 76 | 42 | 9.0 | 12.0 | 0.00 | 0.21 | 0.00 | 57 | 1018.0 |
| 20260504174442 | 76 | 0.0 | 3.0 | 0.00 | 0.21 | 0.00 | 49 | 1017.9 | |
| 20260504174437 | 76 | 0.0 | 0.0 | 0.00 | 0.21 | 0.00 | 49 | 1017.9 | |
| 20260504174432 | 76 | 0.0 | 0.0 | 0.00 | 0.21 | 0.00 | 49 | 1017.9 | |
| 20260504174427 | 80 | 0.0 | 0.0 | 0.00 | 0.21 | 0.00 | 56 | 1017.6 | |
| 20260504174301 | 78 | 39 | 8.0 | 12.0 | 0.00 | 0.21 | 0.00 | 51 | 1018.1 |
| 20260504174256 | 77 | 54 | 6.0 | 11.0 | 0.00 | 0.21 | 0.00 | 53 | 1018.3 |
| 20260504174249 | 78 | 31 | 9.0 | 11.0 | 0.00 | 0.21 | 0.00 | 49 | 1018.1 |
| 20260504174245 | 77 | 36 | 5.0 | 10.0 | 0.00 | 0.21 | 0.00 | 51 | 1018.2 |
| 20260504174239 | 79 | 22 | 5.0 | 10.0 | 0.00 | 0.21 | 0.00 | 50 | 1018.1 |
| 20260504174234 | 78 | 28 | 6.0 | 11.0 | 0.00 | 0.21 | 0.00 | 46 | 1018.1 |
| 20260504174229 | 79 | 22 | 7.0 | 10.0 | 0.00 | 0.21 | 0.00 | 48 | 1018.0 |
| 20260504174224 | 79 | 13 | 7.0 | 10.0 | 0.00 | 0.21 | 0.00 | 48 | 1018.0 |
| 20260504174218 | 79 | 17 | 4.0 | 10.0 | 0.00 | 0.21 | 0.00 | 48 | 1018.0 |
| 20260504174213 | 77 | 0.0 | 0.0 | 0.00 | 0.21 | 0.00 | 54 | 1017.9 | |
| 20260504174207 | 80 | 59 | 3.0 | 6.0 | 0.00 | 0.21 | 0.00 | 50 | 1018.0 |
| 20260504174202 | 78 | 256 | 3.0 | 5.0 | 0.00 | 0.21 | 0.00 | 51 | 1018.1 |
| 20260504174158 | 79 | 59 | 1.0 | 5.0 | 0.00 | 0.21 | 0.00 | 44 | 1018.0 |
| 20260504174152 | 77 | 0.0 | 0.0 | 0.00 | 0.21 | 0.00 | 57 | 1017.4 | |
| 20260504174145 | 78 | 0.0 | 0.0 | 0.00 | 0.21 | 0.00 | 52 | 1017.5 | |
| 20260504174139 | 76 | 256 | 3.0 | 5.0 | 0.00 | 0.21 | 0.00 | 47 | 1018.0 |
| 20260504174134 | 76 | 0.0 | 0.0 | 0.00 | 0.21 | 0.00 | 50 | 1017.8 | |
| 20260504174130 | 76 | 149 | 10.0 | 14.0 | 0.00 | 0.21 | 0.00 | 56 | 1017.4 |
| 20260504174124 | 77 | 130 | 9.0 | 14.0 | 0.00 | 0.21 | 0.00 | 60 | 1017.2 |
| 20260504173837 | 76 | 0.0 | 0.0 | 0.00 | 0.21 | 0.00 | 49 | 1017.9 | |
| 20260504173832 | 76 | 0.0 | 0.0 | 0.00 | 0.21 | 0.00 | 49 | 1017.9 | |
| 20260504173826 | 80 | 0.0 | 0.0 | 0.00 | 0.21 | 0.00 | 56 | 1017.6 | |
| 20260504173702 | 78 | 0.0 | 0.0 | 0.00 | 0.21 | 0.00 | 52 | 1017.5 | |
| 20260504173656 | 77 | 0.0 | 0.0 | 0.00 | 0.21 | 0.00 | 57 | 1017.4 | |
| 20260504173529 | 76 | 149 | 10.0 | 14.0 | 0.00 | 0.21 | 0.00 | 56 | 1017.4 |
| 20260504173523 | 76 | 256 | 3.0 | 5.0 | 0.00 | 0.21 | 0.00 | 47 | 1018.0 |
| 20260504173515 | 77 | 130 | 9.0 | 14.0 | 0.00 | 0.21 | 0.00 | 60 | 1017.2 |
| 20260504173353 | 76 | 0.0 | 0.0 | 0.00 | 0.21 | 0.00 | 50 | 1017.8 | |
| 20260504173347 | 78 | 0.0 | 0.0 | 0.00 | 0.21 | 0.00 | 51 | 1017.8 | |
| 20260504173340 | 75 | 51 | 8.0 | 11.0 | 0.00 | 0.21 | 0.00 | 63 | 1018.0 |
| 20260504173336 | 72 | 40 | 7.0 | 10.0 | 0.00 | 0.21 | 0.00 | 69 | 1018.0 |
| 20260504173330 | 76 | 42 | 9.0 | 12.0 | 0.00 | 0.21 | 0.00 | 57 | 1018.0 |
| 20260504173325 | 77 | 35 | 9.0 | 12.0 | 0.00 | 0.21 | 0.00 | 59 | 1018.0 |
| 20260504173321 | 78 | 39 | 8.0 | 12.0 | 0.00 | 0.21 | 0.00 | 51 | 1018.1 |
| 20260504173315 | 77 | 54 | 6.0 | 11.0 | 0.00 | 0.21 | 0.00 | 53 | 1018.3 |
| 20260504173310 | 78 | 31 | 9.0 | 11.0 | 0.00 | 0.21 | 0.00 | 49 | 1018.1 |
| 20260504173304 | 77 | 36 | 5.0 | 10.0 | 0.00 | 0.21 | 0.00 | 51 | 1018.2 |
| 20260504173259 | 79 | 22 | 5.0 | 10.0 | 0.00 | 0.21 | 0.00 | 50 | 1018.1 |
| 20260504173253 | 78 | 28 | 6.0 | 11.0 | 0.00 | 0.21 | 0.00 | 46 | 1018.1 |
| 20260504173249 | 80 | 0.0 | 0.0 | 0.00 | 0.21 | 0.00 | 56 | 1017.6 | |
| 20260504173124 | 79 | 13 | 7.0 | 10.0 | 0.00 | 0.21 | 0.00 | 48 | 1018.0 |
| 20260504173118 | 76 | 0.0 | 3.0 | 0.00 | 0.21 | 0.00 | 49 | 1017.9 | |
| 20260504173113 | 76 | 0.0 | 0.0 | 0.00 | 0.21 | 0.00 | 49 | 1017.9 | |
| 20260504173107 | 79 | 17 | 4.0 | 10.0 | 0.00 | 0.21 | 0.00 | 48 | 1018.0 |
| 20260504173103 | 76 | 0.0 | 0.0 | 0.00 | 0.21 | 0.00 | 49 | 1017.9 | |
| 20260504173057 | 77 | 0.0 | 0.0 | 0.00 | 0.21 | 0.00 | 57 | 1017.4 | |
| 20260504173052 | 78 | 0.0 | 0.0 | 0.00 | 0.21 | 0.00 | 52 | 1017.5 | |
| 20260504173048 | 77 | 0.0 | 0.0 | 0.00 | 0.21 | 0.00 | 54 | 1017.9 | |
| 20260504173043 | 76 | 149 | 10.0 | 14.0 | 0.00 | 0.21 | 0.00 | 56 | 1017.4 |
| 20260504172914 | 79 | 59 | 1.0 | 5.0 | 0.00 | 0.21 | 0.00 | 44 | 1018.0 |
| 20260504172909 | 78 | 256 | 3.0 | 5.0 | 0.00 | 0.21 | 0.00 | 51 | 1018.1 |
| 20260504172905 | 76 | 256 | 3.0 | 5.0 | 0.00 | 0.21 | 0.00 | 47 | 1018.0 |
| 20260504172859 | 76 | 0.0 | 0.0 | 0.00 | 0.21 | 0.00 | 50 | 1017.8 | |
| 20260504172854 | 78 | 0.0 | 0.0 | 0.00 | 0.21 | 0.00 | 51 | 1017.8 | |
| 20260504172607 | 78 | 0.0 | 0.0 | 0.00 | 0.21 | 0.00 | 52 | 1017.5 | |
| 20260504172601 | 77 | 0.0 | 0.0 | 0.00 | 0.21 | 0.00 | 57 | 1017.4 | |
| 20260504172556 | 83 | 15 | 4.0 | 12.0 | 0.00 | 0.00 | 0.00 | 74 | 1010.8 |
| 20260504172550 | 76 | 0.0 | 0.0 | 0.00 | 0.21 | 0.00 | 49 | 1017.9 | |
| 20260504172546 | 76 | 0.0 | 0.0 | 0.00 | 0.21 | 0.00 | 49 | 1017.9 | |
| 20260504172540 | 84 | 304 | 4.0 | 12.0 | 0.00 | 0.00 | 0.00 | 75 | 1011.1 |
| 20260504172535 | 82 | 244 | 5.0 | 12.0 | 0.00 | 0.00 | 0.00 | 77 | 1011.3 |
| 20260504172530 | 82 | 331 | 5.0 | 10.0 | 0.00 | 0.00 | 0.00 | 76 | 1011.1 |
| 20260504172523 | 82 | 327 | 3.0 | 11.0 | 0.00 | 0.00 | 0.00 | 79 | 1010.9 |
| 20260504172518 | 81 | 274 | 5.0 | 11.0 | 0.00 | 0.00 | 0.00 | 81 | 1010.9 |
| 20260504172513 | 80 | 221 | 4.0 | 10.0 | 0.00 | 0.00 | 0.00 | 83 | 1011.0 |
| 20260504172507 | 80 | 67 | 3.0 | 10.0 | 0.00 | 0.00 | 0.00 | 83 | 1011.2 |
| 20260504172501 | 80 | 344 | 3.0 | 8.0 | 0.00 | 0.00 | 0.00 | 83 | 1011.0 |
| 20260504172457 | 76 | 149 | 10.0 | 14.0 | 0.00 | 0.21 | 0.00 | 56 | 1017.4 |
| 20260504172452 | 80 | 254 | 4.0 | 11.0 | 0.00 | 0.00 | 0.00 | 84 | 1010.9 |
| 20260504172446 | 79 | 252 | 5.0 | 11.0 | 0.00 | 0.00 | 0.00 | 86 | 1010.4 |
| 20260504172441 | 78 | 276 | 4.0 | 9.0 | 0.00 | 0.00 | 0.00 | 85 | 1010.8 |
| 20260504172435 | 77 | 302 | 5.0 | 10.0 | 0.00 | 0.00 | 0.00 | 87 | 1010.8 |
| 20260504172429 | 77 | 229 | 4.0 | 10.0 | 0.00 | 0.00 | 0.00 | 87 | 1010.6 |
| 20260504172422 | 77 | 252 | 2.0 | 8.0 | 0.00 | 0.00 | 0.00 | 88 | 1010.6 |
| 20260504172418 | 77 | 0.0 | 0.0 | 0.00 | 0.21 | 0.00 | 54 | 1017.9 | |
| 20260504172412 | 76 | 248 | 4.0 | 9.0 | 0.00 | 0.00 | 0.00 | 88 | 1010.6 |
| 20260504172407 | 76 | 252 | 4.0 | 9.0 | 0.00 | 0.00 | 0.00 | 89 | 1010.6 |
| 20260504172403 | 75 | 244 | 4.0 | 8.0 | 0.00 | 0.00 | 0.00 | 89 | 1010.9 |
| 20260504172357 | 75 | 223 | 3.0 | 7.0 | 0.00 | 0.00 | 0.00 | 90 | 1010.8 |
| 20260504172353 | 60 | 18 | 2.0 | 5.0 | 0.00 | 0.27 | 0.00 | 92 | 1017.5 |
| 20260504172347 | 60 | 0 | 1.0 | 5.0 | 0.00 | 0.27 | 0.00 | 93 | 1017.6 |
| 20260504172342 | 59 | 49 | 1.0 | 4.0 | 0.00 | 0.27 | 0.00 | 94 | 1017.5 |
| 20260504172337 | 58 | 48 | 0.0 | 3.0 | 0.00 | 0.27 | 0.00 | 94 | 1017.4 |
| 20260504172331 | 67 | 36 | 6.0 | 8.0 | 0.00 | 0.27 | 0.00 | 82 | 1018.0 |
| 20260504172324 | 65 | 0 | 4.0 | 8.0 | 0.00 | 0.27 | 0.00 | 87 | 1018.0 |
| 20260504172320 | 63 | 343 | 2.0 | 4.0 | 0.00 | 0.27 | 0.00 | 90 | 1017.8 |
| 20260504172314 | 62 | 340 | 1.0 | 4.0 | 0.00 | 0.27 | 0.00 | 91 | 1017.7 |
| 20260504172309 | 78 | 0.0 | 0.0 | 0.00 | 0.21 | 0.00 | 51 | 1017.8 | |
| 20260504172304 | 61 | 311 | 2.0 | 5.0 | 0.00 | 0.27 | 0.00 | 92 | 1017.8 |
| 20260504172258 | 70 | 32 | 6.0 | 8.0 | 0.00 | 0.21 | 0.00 | 77 | 1017.9 |
| 20260504172252 | 75 | 51 | 8.0 | 11.0 | 0.00 | 0.21 | 0.00 | 63 | 1018.0 |
| 20260504172248 | 72 | 40 | 7.0 | 10.0 | 0.00 | 0.21 | 0.00 | 69 | 1018.0 |
| 20260504172242 | 76 | 42 | 9.0 | 12.0 | 0.00 | 0.21 | 0.00 | 57 | 1018.0 |
| 20260504172237 | 77 | 35 | 9.0 | 12.0 | 0.00 | 0.21 | 0.00 | 59 | 1018.0 |
| 20260504172233 | 78 | 39 | 8.0 | 12.0 | 0.00 | 0.21 | 0.00 | 51 | 1018.1 |
| 20260504172227 | 77 | 54 | 6.0 | 11.0 | 0.00 | 0.21 | 0.00 | 53 | 1018.3 |
| 20260504172219 | 78 | 31 | 9.0 | 11.0 | 0.00 | 0.21 | 0.00 | 49 | 1018.1 |
| 20260504172215 | 77 | 36 | 5.0 | 10.0 | 0.00 | 0.21 | 0.00 | 51 | 1018.2 |
| 20260504172210 | 79 | 22 | 5.0 | 10.0 | 0.00 | 0.21 | 0.00 | 50 | 1018.1 |
| 20260504172205 | 78 | 28 | 6.0 | 11.0 | 0.00 | 0.21 | 0.00 | 46 | 1018.1 |
| 20260504172200 | 79 | 22 | 7.0 | 10.0 | 0.00 | 0.21 | 0.00 | 48 | 1018.0 |
| 20260504172153 | 79 | 13 | 7.0 | 10.0 | 0.00 | 0.21 | 0.00 | 48 | 1018.0 |
| 20260504172149 | 79 | 17 | 4.0 | 10.0 | 0.00 | 0.21 | 0.00 | 48 | 1018.0 |
| 20260504172144 | 80 | 0.0 | 0.0 | 0.00 | 0.21 | 0.00 | 56 | 1017.6 | |
| 20260504172138 | 80 | 59 | 3.0 | 6.0 | 0.00 | 0.21 | 0.00 | 50 | 1018.0 |
| 20260504172132 | 76 | 256 | 3.0 | 5.0 | 0.00 | 0.21 | 0.00 | 47 | 1018.0 |
| 20260504172127 | 79 | 59 | 1.0 | 5.0 | 0.00 | 0.21 | 0.00 | 44 | 1018.0 |
| 20260504172121 | 78 | 256 | 3.0 | 5.0 | 0.00 | 0.21 | 0.00 | 51 | 1018.1 |
| 20260504172115 | 76 | 0.0 | 3.0 | 0.00 | 0.21 | 0.00 | 49 | 1017.9 | |
| 20260504172110 | 76 | 0.0 | 0.0 | 0.00 | 0.21 | 0.00 | 49 | 1017.9 | |
| 20260504172104 | 76 | 0.0 | 0.0 | 0.00 | 0.21 | 0.00 | 50 | 1017.8 | |
| 20260504172059 | 76 | 0.0 | 0.0 | 0.00 | 0.21 | 0.00 | 49 | 1017.9 | |
| 20260504172054 | 78 | 0.0 | 0.0 | 0.00 | 0.21 | 0.00 | 52 | 1017.5 | |
| 20260504172049 | 77 | 0.0 | 0.0 | 0.00 | 0.21 | 0.00 | 57 | 1017.4 | |
| 20260504171647 | 79 | 13 | 7.0 | 10.0 | 0.00 | 0.21 | 0.00 | 48 | 1018.0 |
| 20260504171643 | 76 | 256 | 3.0 | 5.0 | 0.00 | 0.21 | 0.00 | 47 | 1018.0 |
| 20260504171638 | 80 | 0.0 | 0.0 | 0.00 | 0.21 | 0.00 | 56 | 1017.6 | |
| 20260504171514 | 78 | 0.0 | 0.0 | 0.00 | 0.21 | 0.00 | 52 | 1017.5 | |
| 20260504171508 | 76 | 0.0 | 0.0 | 0.00 | 0.21 | 0.00 | 50 | 1017.8 | |
| 20260504171504 | 79 | 17 | 4.0 | 10.0 | 0.00 | 0.21 | 0.00 | 48 | 1018.0 |
| 20260504171458 | 77 | 0.0 | 0.0 | 0.00 | 0.21 | 0.00 | 57 | 1017.4 | |
| 20260504171342 | 79 | 59 | 1.0 | 5.0 | 0.00 | 0.21 | 0.00 | 44 | 1018.0 |
| 20260504171338 | 58 | 48 | 1.0 | 6.0 | 0.00 | 0.27 | 0.00 | 95 | 1017.2 |
| 20260504171333 | 60 | 18 | 2.0 | 5.0 | 0.00 | 0.27 | 0.00 | 92 | 1017.5 |
| 20260504171329 | 80 | 59 | 3.0 | 6.0 | 0.00 | 0.21 | 0.00 | 50 | 1018.0 |
| 20260504171324 | 78 | 256 | 3.0 | 5.0 | 0.00 | 0.21 | 0.00 | 51 | 1018.1 |
| 20260504171319 | 76 | 0.0 | 3.0 | 0.00 | 0.21 | 0.00 | 49 | 1017.9 | |
| 20260504171315 | 76 | 0.0 | 0.0 | 0.00 | 0.21 | 0.00 | 49 | 1017.9 | |
| 20260504171156 | 60 | 0 | 1.0 | 5.0 | 0.00 | 0.27 | 0.00 | 93 | 1017.6 |
| 20260504171152 | 59 | 49 | 1.0 | 4.0 | 0.00 | 0.27 | 0.00 | 94 | 1017.5 |
| 20260504171148 | 78 | 0.0 | 0.0 | 0.00 | 0.21 | 0.00 | 51 | 1017.8 | |
| 20260504171143 | 58 | 48 | 0.0 | 3.0 | 0.00 | 0.27 | 0.00 | 94 | 1017.4 |
| 20260504171139 | 67 | 36 | 6.0 | 8.0 | 0.00 | 0.27 | 0.00 | 82 | 1018.0 |
| 20260504171135 | 65 | 0 | 4.0 | 8.0 | 0.00 | 0.27 | 0.00 | 87 | 1018.0 |
| 20260504171129 | 63 | 343 | 2.0 | 4.0 | 0.00 | 0.27 | 0.00 | 90 | 1017.8 |
| 20260504171125 | 62 | 340 | 1.0 | 4.0 | 0.00 | 0.27 | 0.00 | 91 | 1017.7 |
| 20260504171121 | 61 | 311 | 2.0 | 5.0 | 0.00 | 0.27 | 0.00 | 92 | 1017.8 |
| 20260504171115 | 70 | 32 | 6.0 | 8.0 | 0.00 | 0.21 | 0.00 | 77 | 1017.9 |
| 20260504171111 | 75 | 51 | 8.0 | 11.0 | 0.00 | 0.21 | 0.00 | 63 | 1018.0 |
| 20260504171107 | 72 | 40 | 7.0 | 10.0 | 0.00 | 0.21 | 0.00 | 69 | 1018.0 |
| 20260504171102 | 76 | 42 | 9.0 | 12.0 | 0.00 | 0.21 | 0.00 | 57 | 1018.0 |
| 20260504171057 | 77 | 35 | 9.0 | 12.0 | 0.00 | 0.21 | 0.00 | 59 | 1018.0 |
| 20260504171053 | 78 | 39 | 8.0 | 12.0 | 0.00 | 0.21 | 0.00 | 51 | 1018.1 |
| 20260504171048 | 77 | 54 | 6.0 | 11.0 | 0.00 | 0.21 | 0.00 | 53 | 1018.3 |
| 20260504171044 | 78 | 31 | 9.0 | 11.0 | 0.00 | 0.21 | 0.00 | 49 | 1018.1 |
| 20260504171040 | 80 | 0.0 | 0.0 | 0.00 | 0.21 | 0.00 | 56 | 1017.6 | |
| 20260504171033 | 76 | 256 | 3.0 | 5.0 | 0.00 | 0.21 | 0.00 | 47 | 1018.0 |
| 20260504171029 | 78 | 0.0 | 0.0 | 0.00 | 0.21 | 0.00 | 52 | 1017.5 | |
| 20260504171024 | 77 | 36 | 5.0 | 10.0 | 0.00 | 0.21 | 0.00 | 51 | 1018.2 |
| 20260504171019 | 79 | 22 | 5.0 | 10.0 | 0.00 | 0.21 | 0.00 | 50 | 1018.1 |
| 20260504171014 | 78 | 28 | 6.0 | 11.0 | 0.00 | 0.21 | 0.00 | 46 | 1018.1 |
| 20260504171009 | 79 | 22 | 7.0 | 10.0 | 0.00 | 0.21 | 0.00 | 48 | 1018.0 |
| 20260504171005 | 79 | 13 | 7.0 | 10.0 | 0.00 | 0.21 | 0.00 | 48 | 1018.0 |
| 20260504170959 | 79 | 17 | 4.0 | 10.0 | 0.00 | 0.21 | 0.00 | 48 | 1018.0 |
| 20260504170955 | 76 | 0.0 | 0.0 | 0.00 | 0.21 | 0.00 | 49 | 1017.9 | |
| 20260504170951 | 76 | 0.0 | 0.0 | 0.00 | 0.21 | 0.00 | 50 | 1017.8 | |
| 20260504170834 | 79 | 59 | 1.0 | 5.0 | 0.00 | 0.21 | 0.00 | 44 | 1018.0 |
| 20260504170830 | 76 | 0.0 | 0.0 | 0.00 | 0.21 | 0.00 | 49 | 1017.9 | |
| 20260504170715 | 76 | 0.0 | 3.0 | 0.00 | 0.21 | 0.00 | 49 | 1017.9 | |
| 20260504170709 | 77 | 0.0 | 0.0 | 0.00 | 0.21 | 0.00 | 54 | 1017.9 | |
| 20260504170704 | 78 | 0.0 | 0.0 | 0.00 | 0.21 | 0.00 | 51 | 1017.8 | |
| 20260504170548 | 80 | 0.0 | 0.0 | 0.00 | 0.21 | 0.00 | 56 | 1017.6 | |
| 20260504170540 | 78 | 0.0 | 0.0 | 0.00 | 0.21 | 0.00 | 52 | 1017.5 | |
| 20260504170430 | 76 | 0.0 | 0.0 | 0.00 | 0.21 | 0.00 | 50 | 1017.8 | |
| 20260504170314 | 78 | 28 | 6.0 | 11.0 | 0.00 | 0.21 | 0.00 | 46 | 1018.1 |
| 20260504170309 | 79 | 22 | 7.0 | 10.0 | 0.00 | 0.21 | 0.00 | 48 | 1018.0 |
| 20260504170304 | 80 | 59 | 3.0 | 6.0 | 0.00 | 0.21 | 0.00 | 50 | 1018.0 |
| 20260504170300 | 79 | 59 | 1.0 | 5.0 | 0.00 | 0.21 | 0.00 | 44 | 1018.0 |
| 20260504170254 | 76 | 0.0 | 0.0 | 0.00 | 0.21 | 0.00 | 49 | 1017.9 | |
| 20260504170137 | 76 | 0.0 | 3.0 | 0.00 | 0.21 | 0.00 | 49 | 1017.9 | |
| 20260504170133 | 77 | 0.0 | 0.0 | 0.00 | 0.21 | 0.00 | 54 | 1017.9 | |
| 20260504170129 | 78 | 0.0 | 0.0 | 0.00 | 0.21 | 0.00 | 51 | 1017.8 | |
| 20260504160438 | 58 | 48 | 1.0 | 6.0 | 0.00 | 0.27 | 0.00 | 95 | 1017.2 |
| 20260504160434 | 58 | 48 | 0.0 | 3.0 | 0.00 | 0.27 | 0.00 | 94 | 1017.4 |
| 20260504160429 | 61 | 311 | 2.0 | 5.0 | 0.00 | 0.27 | 0.00 | 92 | 1017.8 |
| 20260504160425 | 60 | 18 | 2.0 | 5.0 | 0.00 | 0.27 | 0.00 | 92 | 1017.5 |
| 20260504160421 | 60 | 0 | 1.0 | 5.0 | 0.00 | 0.27 | 0.00 | 93 | 1017.6 |
| 20260504160417 | 59 | 49 | 1.0 | 4.0 | 0.00 | 0.27 | 0.00 | 94 | 1017.5 |
| 20260504160411 | 63 | 343 | 2.0 | 4.0 | 0.00 | 0.27 | 0.00 | 90 | 1017.8 |
| 20260504160407 | 76 | 0.0 | 0.0 | 0.00 | 0.21 | 0.00 | 49 | 1017.9 | |
| 20260504160400 | 62 | 340 | 1.0 | 4.0 | 0.00 | 0.27 | 0.00 | 91 | 1017.7 |
| 20260504160355 | 65 | 0 | 4.0 | 8.0 | 0.00 | 0.27 | 0.00 | 87 | 1018.0 |
| 20260504160351 | 67 | 36 | 6.0 | 8.0 | 0.00 | 0.27 | 0.00 | 82 | 1018.0 |
| 20260504160347 | 79 | 22 | 7.0 | 10.0 | 0.00 | 0.21 | 0.00 | 48 | 1018.0 |
| 20260504160341 | 70 | 32 | 6.0 | 8.0 | 0.00 | 0.21 | 0.00 | 77 | 1017.9 |
| 20260504160337 | 79 | 17 | 4.0 | 10.0 | 0.00 | 0.21 | 0.00 | 48 | 1018.0 |
| 20260504160333 | 75 | 51 | 8.0 | 11.0 | 0.00 | 0.21 | 0.00 | 63 | 1018.0 |
| 20260504160327 | 72 | 40 | 7.0 | 10.0 | 0.00 | 0.21 | 0.00 | 69 | 1018.0 |
| 20260504160323 | 77 | 35 | 9.0 | 12.0 | 0.00 | 0.21 | 0.00 | 59 | 1018.0 |
| 20260504160319 | 78 | 39 | 8.0 | 12.0 | 0.00 | 0.21 | 0.00 | 51 | 1018.1 |
| 20260504160314 | 79 | 59 | 1.0 | 5.0 | 0.00 | 0.21 | 0.00 | 44 | 1018.0 |
| 20260504160158 | 76 | 42 | 9.0 | 12.0 | 0.00 | 0.21 | 0.00 | 57 | 1018.0 |
| 20260504160151 | 78 | 28 | 6.0 | 11.0 | 0.00 | 0.21 | 0.00 | 46 | 1018.1 |
| 20260504160147 | 77 | 36 | 5.0 | 10.0 | 0.00 | 0.21 | 0.00 | 51 | 1018.2 |
| 20260504160143 | 79 | 22 | 5.0 | 10.0 | 0.00 | 0.21 | 0.00 | 50 | 1018.1 |
| 20260504160138 | 78 | 256 | 3.0 | 5.0 | 0.00 | 0.21 | 0.00 | 51 | 1018.1 |
| 20260504160134 | 77 | 54 | 6.0 | 11.0 | 0.00 | 0.21 | 0.00 | 53 | 1018.3 |
| 20260504151148 | 78 | 31 | 9.0 | 11.0 | 0.00 | 0.21 | 0.00 | 49 | 1018.1 |
| 20260504151142 | 78 | 28 | 6.0 | 11.0 | 0.00 | 0.21 | 0.00 | 46 | 1018.1 |
| 20260504151138 | 57 | 54 | 3.0 | 6.0 | 0.00 | 0.27 | 0.00 | 94 | 1017.1 |
| 20260504151133 | 57 | 28 | 3.0 | 9.0 | 0.00 | 0.27 | 0.00 | 94 | 1017.0 |
| 20260504151127 | 79 | 22 | 5.0 | 10.0 | 0.00 | 0.21 | 0.00 | 50 | 1018.1 |
| 20260504151122 | 75 | 51 | 8.0 | 11.0 | 0.00 | 0.21 | 0.00 | 63 | 1018.0 |
| 20260504151118 | 76 | 42 | 9.0 | 12.0 | 0.00 | 0.21 | 0.00 | 57 | 1018.0 |
| 20260504151109 | 77 | 35 | 9.0 | 12.0 | 0.00 | 0.21 | 0.00 | 59 | 1018.0 |
| 20260504151105 | 77 | 54 | 6.0 | 11.0 | 0.00 | 0.21 | 0.00 | 53 | 1018.3 |
| 20260504151059 | 79 | 13 | 7.0 | 10.0 | 0.00 | 0.21 | 0.00 | 48 | 1018.0 |
| 20260504150935 | 79 | 17 | 4.0 | 10.0 | 0.00 | 0.21 | 0.00 | 48 | 1018.0 |
| 20260504150808 | 58 | 48 | 1.0 | 6.0 | 0.00 | 0.27 | 0.00 | 95 | 1017.2 |
| 20260504150803 | 58 | 48 | 0.0 | 3.0 | 0.00 | 0.27 | 0.00 | 94 | 1017.4 |
| 20260504150757 | 59 | 49 | 1.0 | 4.0 | 0.00 | 0.27 | 0.00 | 94 | 1017.5 |
| 20260504150753 | 61 | 311 | 2.0 | 5.0 | 0.00 | 0.27 | 0.00 | 92 | 1017.8 |
| 20260504150747 | 60 | 18 | 2.0 | 5.0 | 0.00 | 0.27 | 0.00 | 92 | 1017.5 |
| 20260504150742 | 60 | 0 | 1.0 | 5.0 | 0.00 | 0.27 | 0.00 | 93 | 1017.6 |
| 20260504150738 | 62 | 340 | 1.0 | 4.0 | 0.00 | 0.27 | 0.00 | 91 | 1017.7 |
| 20260504150732 | 63 | 343 | 2.0 | 4.0 | 0.00 | 0.27 | 0.00 | 90 | 1017.8 |
| 20260504150727 | 65 | 0 | 4.0 | 8.0 | 0.00 | 0.27 | 0.00 | 87 | 1018.0 |
| 20260504150721 | 67 | 36 | 6.0 | 8.0 | 0.00 | 0.27 | 0.00 | 82 | 1018.0 |
| 20260504150717 | 78 | 39 | 8.0 | 12.0 | 0.00 | 0.21 | 0.00 | 51 | 1018.1 |
| 20260504150709 | 78 | 31 | 9.0 | 11.0 | 0.00 | 0.21 | 0.00 | 49 | 1018.1 |
| 20260504150704 | 70 | 32 | 6.0 | 8.0 | 0.00 | 0.21 | 0.00 | 77 | 1017.9 |
| 20260504150659 | 72 | 40 | 7.0 | 10.0 | 0.00 | 0.21 | 0.00 | 69 | 1018.0 |
| 20260504150653 | 77 | 36 | 5.0 | 10.0 | 0.00 | 0.21 | 0.00 | 51 | 1018.2 |
| 20260504150649 | 78 | 28 | 6.0 | 11.0 | 0.00 | 0.21 | 0.00 | 46 | 1018.1 |
| 20260504150644 | 79 | 22 | 5.0 | 10.0 | 0.00 | 0.21 | 0.00 | 50 | 1018.1 |
| 20260504150517 | 76 | 42 | 9.0 | 12.0 | 0.00 | 0.21 | 0.00 | 57 | 1018.0 |
| 20260504150511 | 79 | 13 | 7.0 | 10.0 | 0.00 | 0.21 | 0.00 | 48 | 1018.0 |
| 20260504150503 | 77 | 35 | 9.0 | 12.0 | 0.00 | 0.21 | 0.00 | 59 | 1018.0 |
| 20260504150459 | 77 | 54 | 6.0 | 11.0 | 0.00 | 0.21 | 0.00 | 53 | 1018.3 |
| 20260504150332 | 79 | 17 | 4.0 | 10.0 | 0.00 | 0.21 | 0.00 | 48 | 1018.0 |
| 20260504150208 | 57 | 54 | 3.0 | 6.0 | 0.00 | 0.27 | 0.00 | 94 | 1017.1 |
| 20260504150201 | 58 | 61 | 2.0 | 6.0 | 0.00 | 0.27 | 0.00 | 95 | 1017.2 |
| 20260504150157 | 78 | 31 | 9.0 | 11.0 | 0.00 | 0.21 | 0.00 | 49 | 1018.1 |
| 20260504150152 | 58 | 48 | 1.0 | 6.0 | 0.00 | 0.27 | 0.00 | 95 | 1017.2 |
| 20260504150146 | 58 | 48 | 0.0 | 3.0 | 0.00 | 0.27 | 0.00 | 94 | 1017.4 |
| 20260504150142 | 77 | 36 | 5.0 | 10.0 | 0.00 | 0.21 | 0.00 | 51 | 1018.2 |
| 20260504150136 | 78 | 28 | 6.0 | 11.0 | 0.00 | 0.21 | 0.00 | 46 | 1018.1 |
| 20260504150131 | 79 | 22 | 5.0 | 10.0 | 0.00 | 0.21 | 0.00 | 50 | 1018.1 |
| 20260504141239 | 61 | 311 | 2.0 | 5.0 | 0.00 | 0.27 | 0.00 | 92 | 1017.8 |
| 20260504141235 | 60 | 18 | 2.0 | 5.0 | 0.00 | 0.27 | 0.00 | 92 | 1017.5 |
| 20260504141229 | 60 | 26 | 7.0 | 10.0 | 0.00 | 0.27 | 0.00 | 92 | 1017.1 |
| 20260504141224 | 60 | 57 | 8.0 | 12.0 | 0.00 | 0.27 | 0.00 | 92 | 1016.9 |
| 20260504141219 | 62 | 340 | 1.0 | 4.0 | 0.00 | 0.27 | 0.00 | 91 | 1017.7 |
| 20260504141213 | 63 | 343 | 2.0 | 4.0 | 0.00 | 0.27 | 0.00 | 90 | 1017.8 |
| 20260504141207 | 76 | 42 | 9.0 | 12.0 | 0.00 | 0.21 | 0.00 | 57 | 1018.0 |
| 20260504141200 | 65 | 0 | 4.0 | 8.0 | 0.00 | 0.27 | 0.00 | 87 | 1018.0 |
| 20260504141154 | 61 | 65 | 9.0 | 12.0 | 0.00 | 0.27 | 0.00 | 92 | 1016.9 |
| 20260504141149 | 58 | 36 | 1.0 | 3.0 | 0.00 | 0.27 | 0.00 | 94 | 1016.9 |
| 20260504141144 | 58 | 0 | 6.0 | 10.0 | 0.00 | 0.27 | 0.00 | 94 | 1016.8 |
| 20260504141139 | 57 | 56 | 6.0 | 10.0 | 0.00 | 0.27 | 0.00 | 94 | 1017.0 |
| 20260504141134 | 57 | 28 | 3.0 | 9.0 | 0.00 | 0.27 | 0.00 | 94 | 1017.0 |
| 20260504141128 | 57 | 54 | 3.0 | 6.0 | 0.00 | 0.27 | 0.00 | 94 | 1017.1 |
| 20260504141124 | 58 | 61 | 2.0 | 6.0 | 0.00 | 0.27 | 0.00 | 95 | 1017.2 |
| 20260504141118 | 67 | 36 | 6.0 | 8.0 | 0.00 | 0.27 | 0.00 | 82 | 1018.0 |
| 20260504141113 | 70 | 32 | 6.0 | 8.0 | 0.00 | 0.21 | 0.00 | 77 | 1017.9 |
| 20260504141107 | 72 | 40 | 7.0 | 10.0 | 0.00 | 0.21 | 0.00 | 69 | 1018.0 |
| 20260504141100 | 77 | 35 | 9.0 | 12.0 | 0.00 | 0.21 | 0.00 | 59 | 1018.0 |
| 20260504141056 | 78 | 39 | 8.0 | 12.0 | 0.00 | 0.21 | 0.00 | 51 | 1018.1 |
| 20260504140928 | 77 | 54 | 6.0 | 11.0 | 0.00 | 0.21 | 0.00 | 53 | 1018.3 |
| 20260504140923 | 77 | 36 | 5.0 | 10.0 | 0.00 | 0.21 | 0.00 | 51 | 1018.2 |
| 20260504140754 | 58 | 48 | 0.0 | 3.0 | 0.00 | 0.27 | 0.00 | 94 | 1017.4 |
| 20260504140749 | 59 | 49 | 1.0 | 4.0 | 0.00 | 0.27 | 0.00 | 94 | 1017.5 |
| 20260504140744 | 60 | 0 | 1.0 | 5.0 | 0.00 | 0.27 | 0.00 | 93 | 1017.6 |
| 20260504140738 | 61 | 311 | 2.0 | 5.0 | 0.00 | 0.27 | 0.00 | 92 | 1017.8 |
| 20260504140734 | 60 | 18 | 2.0 | 5.0 | 0.00 | 0.27 | 0.00 | 92 | 1017.5 |
| 20260504140728 | 62 | 340 | 1.0 | 4.0 | 0.00 | 0.27 | 0.00 | 91 | 1017.7 |
| 20260504140723 | 63 | 343 | 2.0 | 4.0 | 0.00 | 0.27 | 0.00 | 90 | 1017.8 |
| 20260504140717 | 76 | 42 | 9.0 | 12.0 | 0.00 | 0.21 | 0.00 | 57 | 1018.0 |
| 20260504140712 | 65 | 0 | 4.0 | 8.0 | 0.00 | 0.27 | 0.00 | 87 | 1018.0 |
| 20260504140544 | 70 | 32 | 6.0 | 8.0 | 0.00 | 0.21 | 0.00 | 77 | 1017.9 |
| 20260504140539 | 72 | 40 | 7.0 | 10.0 | 0.00 | 0.21 | 0.00 | 69 | 1018.0 |
| 20260504140533 | 61 | 69 | 9.0 | 12.0 | 0.00 | 0.27 | 0.00 | 92 | 1016.9 |
| 20260504140528 | 61 | 55 | 9.0 | 11.0 | 0.00 | 0.27 | 0.00 | 92 | 1016.8 |
| 20260504140523 | 77 | 35 | 9.0 | 12.0 | 0.00 | 0.21 | 0.00 | 59 | 1018.0 |
| 20260504140518 | 61 | 63 | 9.0 | 12.0 | 0.00 | 0.27 | 0.00 | 92 | 1017.0 |
| 20260504140512 | 78 | 39 | 8.0 | 12.0 | 0.00 | 0.21 | 0.00 | 51 | 1018.1 |
| 20260504140507 | 61 | 0 | 9.0 | 13.0 | 0.00 | 0.27 | 0.00 | 92 | 1017.1 |
| 20260504140501 | 58 | 37 | 2.0 | 8.0 | 0.00 | 0.27 | 0.00 | 93 | 1016.9 |
| 20260504140456 | 58 | 36 | 1.0 | 3.0 | 0.00 | 0.27 | 0.00 | 94 | 1016.9 |
| 20260504140449 | 58 | 0 | 6.0 | 10.0 | 0.00 | 0.27 | 0.00 | 94 | 1016.8 |
| 20260504140444 | 57 | 56 | 6.0 | 10.0 | 0.00 | 0.27 | 0.00 | 94 | 1017.0 |
| 20260504140439 | 57 | 28 | 3.0 | 9.0 | 0.00 | 0.27 | 0.00 | 94 | 1017.0 |
| 20260504140433 | 57 | 54 | 3.0 | 6.0 | 0.00 | 0.27 | 0.00 | 94 | 1017.1 |
| 20260504140428 | 58 | 61 | 2.0 | 6.0 | 0.00 | 0.27 | 0.00 | 95 | 1017.2 |
| 20260504140424 | 77 | 54 | 6.0 | 11.0 | 0.00 | 0.21 | 0.00 | 53 | 1018.3 |
| 20260504140418 | 75 | 51 | 8.0 | 11.0 | 0.00 | 0.21 | 0.00 | 63 | 1018.0 |
| 20260504140401 | 77 | 36 | 5.0 | 10.0 | 0.00 | 0.21 | 0.00 | 51 | 1018.2 |
| 20260504140244 | 62 | 0 | 8.0 | 12.0 | 0.00 | 0.27 | 0.00 | 90 | 1017.0 |
| 20260504140238 | 63 | 44 | 9.0 | 12.0 | 0.00 | 0.27 | 0.00 | 88 | 1017.0 |
| 20260504140233 | 64 | 63 | 8.0 | 12.0 | 0.00 | 0.27 | 0.00 | 87 | 1016.9 |
| 20260504140228 | 65 | 78 | 9.0 | 12.0 | 0.00 | 0.27 | 0.00 | 87 | 1016.9 |
| 20260504140223 | 65 | 59 | 9.0 | 13.0 | 0.00 | 0.27 | 0.00 | 88 | 1017.0 |
| 20260504140218 | 64 | 67 | 10.0 | 13.0 | 0.00 | 0.27 | 0.00 | 89 | 1017.2 |
| 20260504140213 | 63 | 61 | 8.0 | 12.0 | 0.00 | 0.27 | 0.00 | 87 | 1017.2 |
| 20260504140208 | 58 | 52 | 2.0 | 8.0 | 0.00 | 0.27 | 0.00 | 93 | 1017.0 |
| 20260504140202 | 58 | 48 | 1.0 | 6.0 | 0.00 | 0.27 | 0.00 | 95 | 1017.2 |
| 20260504140157 | 76 | 42 | 9.0 | 12.0 | 0.00 | 0.21 | 0.00 | 57 | 1018.0 |
| 20260504140150 | 58 | 236 | 1.0 | 5.0 | 0.00 | 0.27 | 0.00 | 93 | 1016.9 |
| 20260504140144 | 58 | 90 | 1.0 | 6.0 | 0.00 | 0.27 | 0.00 | 93 | 1016.9 |
| 20260504140140 | 59 | 61 | 1.0 | 6.0 | 0.00 | 0.27 | 0.00 | 92 | 1016.9 |
| 20260504140134 | 58 | 48 | 0.0 | 3.0 | 0.00 | 0.27 | 0.00 | 94 | 1017.4 |
| 20260504140129 | 59 | 49 | 1.0 | 4.0 | 0.00 | 0.27 | 0.00 | 94 | 1017.5 |
| 20260504140123 | 60 | 0 | 1.0 | 5.0 | 0.00 | 0.27 | 0.00 | 93 | 1017.6 |
| 20260504140118 | 61 | 311 | 2.0 | 5.0 | 0.00 | 0.27 | 0.00 | 92 | 1017.8 |
| 20260504140113 | 60 | 18 | 2.0 | 5.0 | 0.00 | 0.27 | 0.00 | 92 | 1017.5 |
| 20260504140108 | 62 | 340 | 1.0 | 4.0 | 0.00 | 0.27 | 0.00 | 91 | 1017.7 |
| 20260504130759 | 61 | 311 | 2.0 | 5.0 | 0.00 | 0.27 | 0.00 | 92 | 1017.8 |
| 20260504130754 | 62 | 340 | 1.0 | 4.0 | 0.00 | 0.27 | 0.00 | 91 | 1017.7 |
| 20260504130747 | 63 | 343 | 2.0 | 4.0 | 0.00 | 0.27 | 0.00 | 90 | 1017.8 |
| 20260504130619 | 58 | 90 | 1.0 | 6.0 | 0.00 | 0.27 | 0.00 | 93 | 1016.9 |
| 20260504130614 | 58 | 52 | 2.0 | 8.0 | 0.00 | 0.27 | 0.00 | 93 | 1017.0 |
| 20260504130609 | 60 | 18 | 2.0 | 5.0 | 0.00 | 0.27 | 0.00 | 92 | 1017.5 |
| 20260504130603 | 65 | 0 | 4.0 | 8.0 | 0.00 | 0.27 | 0.00 | 87 | 1018.0 |
| 20260504130434 | 58 | 36 | 1.0 | 3.0 | 0.00 | 0.27 | 0.00 | 94 | 1016.9 |
| 20260504130429 | 58 | 0 | 6.0 | 10.0 | 0.00 | 0.27 | 0.00 | 94 | 1016.8 |
| 20260504130424 | 57 | 56 | 6.0 | 10.0 | 0.00 | 0.27 | 0.00 | 94 | 1017.0 |
| 20260504130419 | 67 | 36 | 6.0 | 8.0 | 0.00 | 0.27 | 0.00 | 82 | 1018.0 |
| 20260504130414 | 57 | 28 | 3.0 | 9.0 | 0.00 | 0.27 | 0.00 | 94 | 1017.0 |
| 20260504130408 | 57 | 54 | 3.0 | 6.0 | 0.00 | 0.27 | 0.00 | 94 | 1017.1 |
| 20260504130403 | 70 | 32 | 6.0 | 8.0 | 0.00 | 0.21 | 0.00 | 77 | 1017.9 |
| 20260504130357 | 58 | 61 | 2.0 | 6.0 | 0.00 | 0.27 | 0.00 | 95 | 1017.2 |
| 20260504130344 | 72 | 40 | 7.0 | 10.0 | 0.00 | 0.21 | 0.00 | 69 | 1018.0 |
| 20260504130224 | 58 | 48 | 0.0 | 3.0 | 0.00 | 0.27 | 0.00 | 94 | 1017.4 |
| 20260504130219 | 59 | 49 | 1.0 | 4.0 | 0.00 | 0.27 | 0.00 | 94 | 1017.5 |
| 20260504130213 | 60 | 0 | 1.0 | 5.0 | 0.00 | 0.27 | 0.00 | 93 | 1017.6 |
| 20260504130208 | 62 | 340 | 1.0 | 4.0 | 0.00 | 0.27 | 0.00 | 91 | 1017.7 |
| 20260504130202 | 61 | 311 | 2.0 | 5.0 | 0.00 | 0.27 | 0.00 | 92 | 1017.8 |
| 20260504130157 | 63 | 343 | 2.0 | 4.0 | 0.00 | 0.27 | 0.00 | 90 | 1017.8 |
| 20260504120314 | 61 | 311 | 2.0 | 5.0 | 0.00 | 0.27 | 0.00 | 92 | 1017.8 |
| 20260504120309 | 57 | 28 | 3.0 | 9.0 | 0.00 | 0.27 | 0.00 | 94 | 1017.0 |
| 20260504120303 | 63 | 61 | 7.0 | 10.0 | 0.00 | 0.27 | 0.00 | 88 | 1018.0 |
| 20260504120259 | 57 | 54 | 3.0 | 6.0 | 0.00 | 0.27 | 0.00 | 94 | 1017.1 |
| 20260504120253 | 58 | 48 | 1.0 | 6.0 | 0.00 | 0.27 | 0.00 | 95 | 1017.2 |
| 20260504120248 | 58 | 61 | 2.0 | 6.0 | 0.00 | 0.27 | 0.00 | 95 | 1017.2 |
| 20260504120242 | 58 | 48 | 0.0 | 3.0 | 0.00 | 0.27 | 0.00 | 94 | 1017.4 |
| 20260504120113 | 62 | 0 | 10.0 | 13.0 | 0.00 | 0.27 | 0.00 | 91 | 1017.0 |
| 20260504120108 | 61 | 63 | 9.0 | 12.0 | 0.00 | 0.27 | 0.00 | 92 | 1017.0 |
| 20260504120104 | 61 | 55 | 9.0 | 11.0 | 0.00 | 0.27 | 0.00 | 92 | 1016.8 |
| 20260504110639 | 63 | 44 | 9.0 | 12.0 | 0.00 | 0.27 | 0.00 | 88 | 1017.0 |
| 20260504110634 | 59 | 61 | 1.0 | 6.0 | 0.00 | 0.27 | 0.00 | 92 | 1016.9 |
| 20260504110628 | 58 | 236 | 1.0 | 5.0 | 0.00 | 0.27 | 0.00 | 93 | 1016.9 |
| 20260504110624 | 58 | 36 | 1.0 | 3.0 | 0.00 | 0.27 | 0.00 | 94 | 1016.9 |
| 20260504110618 | 58 | 0 | 6.0 | 10.0 | 0.00 | 0.27 | 0.00 | 94 | 1016.8 |
| 20260504110613 | 57 | 56 | 6.0 | 10.0 | 0.00 | 0.27 | 0.00 | 94 | 1017.0 |
| 20260504110445 | 62 | 0 | 8.0 | 12.0 | 0.00 | 0.27 | 0.00 | 90 | 1017.0 |
| 20260504110440 | 61 | 0 | 9.0 | 13.0 | 0.00 | 0.27 | 0.00 | 92 | 1017.1 |
| 20260504110435 | 62 | 0 | 10.0 | 13.0 | 0.00 | 0.27 | 0.00 | 91 | 1017.0 |
| 20260504110429 | 57 | 28 | 3.0 | 9.0 | 0.00 | 0.27 | 0.00 | 94 | 1017.0 |
| 20260504110424 | 57 | 54 | 3.0 | 6.0 | 0.00 | 0.27 | 0.00 | 94 | 1017.1 |
| 20260504110404 | 58 | 61 | 2.0 | 6.0 | 0.00 | 0.27 | 0.00 | 95 | 1017.2 |
| 20260504110251 | 61 | 55 | 9.0 | 11.0 | 0.00 | 0.27 | 0.00 | 92 | 1016.8 |
| 20260504110246 | 61 | 69 | 9.0 | 12.0 | 0.00 | 0.27 | 0.00 | 92 | 1016.9 |
| 20260504110240 | 60 | 57 | 8.0 | 12.0 | 0.00 | 0.27 | 0.00 | 92 | 1016.9 |
| 20260504110235 | 61 | 65 | 9.0 | 12.0 | 0.00 | 0.27 | 0.00 | 92 | 1016.9 |
| 20260504110231 | 59 | 50 | 2.0 | 10.0 | 0.00 | 0.27 | 0.00 | 92 | 1017.0 |
| 20260504110225 | 60 | 26 | 7.0 | 10.0 | 0.00 | 0.27 | 0.00 | 92 | 1017.1 |
| 20260504110219 | 58 | 90 | 1.0 | 6.0 | 0.00 | 0.27 | 0.00 | 93 | 1016.9 |
| 20260504110214 | 58 | 52 | 2.0 | 8.0 | 0.00 | 0.27 | 0.00 | 93 | 1017.0 |
| 20260504110209 | 58 | 37 | 2.0 | 8.0 | 0.00 | 0.27 | 0.00 | 93 | 1016.9 |
| 20260504100506 | 62 | 66 | 7.0 | 11.0 | 0.00 | 0.27 | 0.00 | 89 | 1017.9 |
| 20260504100502 | 64 | 71 | 9.0 | 12.0 | 0.00 | 0.27 | 0.00 | 88 | 1017.6 |
| 20260504100456 | 64 | 0 | 8.0 | 12.0 | 0.00 | 0.27 | 0.00 | 87 | 1017.4 |
| 20260504100450 | 64 | 67 | 10.0 | 13.0 | 0.00 | 0.27 | 0.00 | 89 | 1017.2 |
| 20260504100446 | 63 | 61 | 8.0 | 12.0 | 0.00 | 0.27 | 0.00 | 87 | 1017.2 |
| 20260504100442 | 65 | 59 | 9.0 | 13.0 | 0.00 | 0.27 | 0.00 | 88 | 1017.0 |
| 20260504100437 | 65 | 78 | 9.0 | 12.0 | 0.00 | 0.27 | 0.00 | 87 | 1016.9 |
| 20260504100433 | 64 | 63 | 8.0 | 12.0 | 0.00 | 0.27 | 0.00 | 87 | 1016.9 |
| 20260504100426 | 63 | 44 | 9.0 | 12.0 | 0.00 | 0.27 | 0.00 | 88 | 1017.0 |
| 20260504100421 | 62 | 0 | 8.0 | 12.0 | 0.00 | 0.27 | 0.00 | 90 | 1017.0 |
| 20260504100416 | 62 | 0 | 10.0 | 13.0 | 0.00 | 0.27 | 0.00 | 91 | 1017.0 |
| 20260504100411 | 61 | 0 | 9.0 | 13.0 | 0.00 | 0.27 | 0.00 | 92 | 1017.1 |
| 20260504100405 | 61 | 63 | 9.0 | 12.0 | 0.00 | 0.27 | 0.00 | 92 | 1017.0 |
| 20260504100400 | 61 | 55 | 9.0 | 11.0 | 0.00 | 0.27 | 0.00 | 92 | 1016.8 |
| 20260504100355 | 61 | 69 | 9.0 | 12.0 | 0.00 | 0.27 | 0.00 | 92 | 1016.9 |
| 20260504100350 | 61 | 65 | 9.0 | 12.0 | 0.00 | 0.27 | 0.00 | 92 | 1016.9 |
| 20260504100345 | 60 | 57 | 8.0 | 12.0 | 0.00 | 0.27 | 0.00 | 92 | 1016.9 |
| 20260504100340 | 59 | 50 | 2.0 | 10.0 | 0.00 | 0.27 | 0.00 | 92 | 1017.0 |
| 20260504100335 | 59 | 61 | 1.0 | 6.0 | 0.00 | 0.27 | 0.00 | 92 | 1016.9 |
| 20260504100328 | 58 | 52 | 2.0 | 8.0 | 0.00 | 0.27 | 0.00 | 93 | 1017.0 |
| 20260504100320 | 58 | 37 | 2.0 | 8.0 | 0.00 | 0.27 | 0.00 | 93 | 1016.9 |
| 20260504100159 | 68 | 78 | 8.0 | 13.0 | 0.00 | 0.27 | 0.27 | 74 | 1017.7 |
| 20260504100153 | 67 | 59 | 8.0 | 10.0 | 0.00 | 0.27 | 0.00 | 81 | 1018.2 |
| 20260504100149 | 67 | 67 | 7.0 | 11.0 | 0.00 | 0.27 | 0.00 | 82 | 1018.3 |
| 20260504100143 | 67 | 72 | 8.0 | 11.0 | 0.00 | 0.27 | 0.00 | 81 | 1018.3 |
| 20260504100138 | 67 | 80 | 6.0 | 8.0 | 0.00 | 0.27 | 0.00 | 81 | 1018.2 |
| 20260504100133 | 67 | 73 | 7.0 | 11.0 | 0.00 | 0.27 | 0.00 | 80 | 1018.1 |
| 20260504100126 | 67 | 70 | 7.0 | 11.0 | 0.00 | 0.27 | 0.00 | 81 | 1018.2 |
| 20260504100121 | 67 | 69 | 8.0 | 11.0 | 0.00 | 0.27 | 0.27 | 79 | 1018.3 |
| 20260504100117 | 67 | 71 | 9.0 | 13.0 | 0.00 | 0.27 | 0.27 | 81 | 1018.1 |
| 20260504100111 | 67 | 74 | 9.0 | 13.0 | 0.00 | 0.27 | 0.27 | 79 | 1018.1 |
| 20260504100106 | 67 | 69 | 8.0 | 11.0 | 0.00 | 0.27 | 0.00 | 83 | 1018.1 |
| 20260504081858 | 67 | 59 | 8.0 | 10.0 | 0.00 | 0.27 | 0.00 | 81 | 1018.2 |
| 20260504081853 | 67 | 67 | 7.0 | 11.0 | 0.00 | 0.27 | 0.00 | 82 | 1018.3 |
| 20260504081849 | 67 | 69 | 8.0 | 11.0 | 0.00 | 0.27 | 0.00 | 83 | 1018.1 |
| 20260504081843 | 65 | 61 | 7.0 | 10.0 | 0.00 | 0.27 | 0.00 | 84 | 1018.0 |
| 20260504081838 | 67 | 69 | 8.0 | 12.0 | 0.00 | 0.27 | 0.00 | 82 | 1018.0 |
| 20260504081833 | 67 | 77 | 8.0 | 11.0 | 0.00 | 0.27 | 0.00 | 83 | 1018.0 |
| 20260504081828 | 61 | 63 | 9.0 | 12.0 | 0.00 | 0.27 | 0.00 | 92 | 1017.0 |
| 20260504081822 | 64 | 66 | 7.0 | 10.0 | 0.00 | 0.27 | 0.00 | 86 | 1018.0 |
| 20260504081655 | 63 | 61 | 7.0 | 10.0 | 0.00 | 0.27 | 0.00 | 88 | 1018.0 |
| 20260504081649 | 63 | 44 | 9.0 | 12.0 | 0.00 | 0.27 | 0.00 | 88 | 1017.0 |
| 20260504081644 | 62 | 0 | 8.0 | 12.0 | 0.00 | 0.27 | 0.00 | 90 | 1017.0 |
| 20260504081640 | 62 | 71 | 7.0 | 11.0 | 0.00 | 0.27 | 0.00 | 90 | 1017.7 |
| 20260504081513 | 64 | 67 | 10.0 | 13.0 | 0.00 | 0.27 | 0.00 | 89 | 1017.2 |
| 20260504081505 | 63 | 61 | 8.0 | 12.0 | 0.00 | 0.27 | 0.00 | 87 | 1017.2 |
| 20260504081500 | 64 | 71 | 9.0 | 12.0 | 0.00 | 0.27 | 0.00 | 88 | 1017.6 |
| 20260504081455 | 65 | 59 | 9.0 | 13.0 | 0.00 | 0.27 | 0.00 | 88 | 1017.0 |
| 20260504081450 | 61 | 0 | 9.0 | 13.0 | 0.00 | 0.27 | 0.00 | 92 | 1017.1 |
| 20260504081445 | 62 | 0 | 10.0 | 13.0 | 0.00 | 0.27 | 0.00 | 91 | 1017.0 |
| 20260504081439 | 65 | 78 | 9.0 | 12.0 | 0.00 | 0.27 | 0.00 | 87 | 1016.9 |
| 20260504081434 | 64 | 63 | 8.0 | 12.0 | 0.00 | 0.27 | 0.00 | 87 | 1016.9 |
| 20260504081146 | 62 | 0 | 8.0 | 12.0 | 0.00 | 0.27 | 0.00 | 90 | 1017.0 |
| 20260504081020 | 63 | 61 | 8.0 | 12.0 | 0.00 | 0.27 | 0.00 | 87 | 1017.2 |
| 20260504081015 | 64 | 67 | 10.0 | 13.0 | 0.00 | 0.27 | 0.00 | 89 | 1017.2 |
| 20260504081009 | 65 | 59 | 9.0 | 13.0 | 0.00 | 0.27 | 0.00 | 88 | 1017.0 |
| 20260504081002 | 62 | 0 | 10.0 | 13.0 | 0.00 | 0.27 | 0.00 | 91 | 1017.0 |
| 20260504080957 | 61 | 0 | 9.0 | 13.0 | 0.00 | 0.27 | 0.00 | 92 | 1017.1 |
| 20260504080830 | 64 | 63 | 8.0 | 12.0 | 0.00 | 0.27 | 0.00 | 87 | 1016.9 |
| 20260504080654 | 67 | 72 | 8.0 | 11.0 | 0.00 | 0.27 | 0.00 | 81 | 1018.3 |
| 20260504080650 | 67 | 59 | 8.0 | 10.0 | 0.00 | 0.27 | 0.00 | 81 | 1018.2 |
| 20260504080644 | 67 | 67 | 7.0 | 11.0 | 0.00 | 0.27 | 0.00 | 82 | 1018.3 |
| 20260504080639 | 67 | 69 | 8.0 | 11.0 | 0.00 | 0.27 | 0.00 | 83 | 1018.1 |
| 20260504080633 | 65 | 61 | 7.0 | 10.0 | 0.00 | 0.27 | 0.00 | 84 | 1018.0 |
| 20260504080627 | 67 | 69 | 8.0 | 12.0 | 0.00 | 0.27 | 0.00 | 82 | 1018.0 |
| 20260504080622 | 67 | 77 | 8.0 | 11.0 | 0.00 | 0.27 | 0.00 | 83 | 1018.0 |
| 20260504080617 | 63 | 44 | 9.0 | 12.0 | 0.00 | 0.27 | 0.00 | 88 | 1017.0 |
| 20260504080612 | 62 | 0 | 8.0 | 12.0 | 0.00 | 0.27 | 0.00 | 90 | 1017.0 |
| 20260504080443 | 62 | 66 | 7.0 | 11.0 | 0.00 | 0.27 | 0.00 | 89 | 1017.9 |
| 20260504080438 | 63 | 61 | 7.0 | 10.0 | 0.00 | 0.27 | 0.00 | 88 | 1018.0 |
| 20260504080432 | 62 | 71 | 7.0 | 11.0 | 0.00 | 0.27 | 0.00 | 90 | 1017.7 |
| 20260504080428 | 64 | 71 | 9.0 | 12.0 | 0.00 | 0.27 | 0.00 | 88 | 1017.6 |
| 20260504080423 | 65 | 59 | 9.0 | 13.0 | 0.00 | 0.27 | 0.00 | 88 | 1017.0 |
| 20260504080417 | 62 | 0 | 10.0 | 13.0 | 0.00 | 0.27 | 0.00 | 91 | 1017.0 |
| 20260504080358 | 61 | 0 | 9.0 | 13.0 | 0.00 | 0.27 | 0.00 | 92 | 1017.1 |
| 20260504080243 | 63 | 61 | 8.0 | 12.0 | 0.00 | 0.27 | 0.00 | 87 | 1017.2 |
| 20260504080238 | 64 | 63 | 8.0 | 12.0 | 0.00 | 0.27 | 0.00 | 87 | 1016.9 |
| 20260504080234 | 64 | 67 | 10.0 | 13.0 | 0.00 | 0.27 | 0.00 | 89 | 1017.2 |
| 20260504080228 | 65 | 78 | 9.0 | 12.0 | 0.00 | 0.27 | 0.00 | 87 | 1016.9 |
| 20260504080103 | 63 | 44 | 9.0 | 12.0 | 0.00 | 0.27 | 0.00 | 88 | 1017.0 |
| 20260504070343 | 65 | 59 | 9.0 | 13.0 | 0.00 | 0.27 | 0.00 | 88 | 1017.0 |
| 20260504070231 | 67 | 75 | 8.0 | 11.0 | 0.00 | 0.27 | 0.27 | 79 | 1018.2 |
| 20260504070226 | 67 | 73 | 8.0 | 12.0 | 0.00 | 0.27 | 0.27 | 78 | 1018.3 |
| 20260504070221 | 67 | 74 | 9.0 | 13.0 | 0.00 | 0.27 | 0.27 | 79 | 1018.1 |
| 20260504070217 | 67 | 71 | 9.0 | 12.0 | 0.00 | 0.27 | 0.27 | 79 | 1018.2 |
| 20260504070211 | 67 | 71 | 9.0 | 13.0 | 0.00 | 0.27 | 0.27 | 81 | 1018.1 |
| 20260504070205 | 67 | 69 | 8.0 | 11.0 | 0.00 | 0.27 | 0.27 | 79 | 1018.3 |
| 20260504070201 | 67 | 70 | 7.0 | 11.0 | 0.00 | 0.27 | 0.00 | 81 | 1018.2 |
| 20260504070153 | 67 | 73 | 7.0 | 11.0 | 0.00 | 0.27 | 0.00 | 80 | 1018.1 |
| 20260504070148 | 67 | 80 | 6.0 | 8.0 | 0.00 | 0.27 | 0.00 | 81 | 1018.2 |
| 20260504070143 | 67 | 72 | 8.0 | 11.0 | 0.00 | 0.27 | 0.00 | 81 | 1018.3 |
| 20260504070137 | 67 | 59 | 8.0 | 10.0 | 0.00 | 0.27 | 0.00 | 81 | 1018.2 |
| 20260504070132 | 67 | 67 | 7.0 | 11.0 | 0.00 | 0.27 | 0.00 | 82 | 1018.3 |
| 20260504070126 | 67 | 69 | 8.0 | 11.0 | 0.00 | 0.27 | 0.00 | 83 | 1018.1 |
| 20260504070122 | 62 | 71 | 7.0 | 11.0 | 0.00 | 0.27 | 0.00 | 90 | 1017.7 |
| 20260504070116 | 67 | 69 | 8.0 | 12.0 | 0.00 | 0.27 | 0.00 | 82 | 1018.0 |
| 20260504070112 | 62 | 66 | 7.0 | 11.0 | 0.00 | 0.27 | 0.00 | 89 | 1017.9 |
| 20260504070107 | 64 | 71 | 9.0 | 12.0 | 0.00 | 0.27 | 0.00 | 88 | 1017.6 |
| 20260504060124 | 65 | 61 | 7.0 | 10.0 | 0.00 | 0.27 | 0.00 | 84 | 1018.0 |
| 20260504050747 | 67 | 69 | 8.0 | 11.0 | 0.00 | 0.27 | 0.00 | 83 | 1018.1 |
| 20260504050740 | 67 | 71 | 9.0 | 12.0 | 0.00 | 0.27 | 0.27 | 79 | 1018.2 |
| 20260504050736 | 67 | 69 | 8.0 | 11.0 | 0.00 | 0.27 | 0.27 | 79 | 1018.3 |
| 20260504050730 | 67 | 80 | 6.0 | 8.0 | 0.00 | 0.27 | 0.00 | 81 | 1018.2 |
| 20260504050605 | 67 | 73 | 7.0 | 11.0 | 0.00 | 0.27 | 0.00 | 80 | 1018.1 |
| 20260504050600 | 67 | 72 | 8.0 | 11.0 | 0.00 | 0.27 | 0.00 | 81 | 1018.3 |
| 20260504050434 | 74 | 86 | 8.0 | 12.0 | 0.00 | 0.27 | 0.27 | 59 | 1016.8 |
| 20260504050428 | 67 | 85 | 7.0 | 11.0 | 0.00 | 0.27 | 0.27 | 77 | 1018.2 |
| 20260504050424 | 74 | 78 | 7.0 | 12.0 | 0.00 | 0.27 | 0.27 | 61 | 1016.8 |
| 20260504050418 | 74 | 61 | 6.0 | 13.0 | 0.00 | 0.27 | 0.27 | 57 | 1016.8 |
| 20260504050414 | 75 | 78 | 8.0 | 15.0 | 0.00 | 0.27 | 0.27 | 57 | 1016.7 |
| 20260504050407 | 75 | 85 | 7.0 | 14.0 | 0.00 | 0.27 | 0.27 | 63 | 1016.6 |
| 20260504050402 | 75 | 71 | 10.0 | 14.0 | 0.00 | 0.27 | 0.27 | 63 | 1016.6 |
| 20260504050356 | 75 | 76 | 6.0 | 18.0 | 0.00 | 0.27 | 0.27 | 59 | 1016.7 |
| 20260504050351 | 75 | 96 | 11.0 | 18.0 | 0.00 | 0.27 | 0.27 | 63 | 1016.8 |
| 20260504050345 | 76 | 101 | 11.0 | 15.0 | 0.00 | 0.27 | 0.27 | 63 | 1016.7 |
| 20260504050340 | 76 | 83 | 10.0 | 21.0 | 0.00 | 0.27 | 0.27 | 59 | 1016.9 |
| 20260504050333 | 70 | 76 | 12.0 | 16.0 | 0.00 | 0.27 | 0.27 | 70 | 1017.0 |
| 20260504050329 | 69 | 0 | 11.0 | 14.0 | 0.00 | 0.27 | 0.27 | 70 | 1017.1 |
| 20260504050324 | 67 | 0 | 8.0 | 12.0 | 0.00 | 0.27 | 0.27 | 78 | 1018.3 |
| 20260504050319 | 67 | 71 | 8.0 | 11.0 | 0.00 | 0.27 | 0.27 | 77 | 1018.4 |
| 20260504050313 | 67 | 75 | 8.0 | 11.0 | 0.00 | 0.27 | 0.27 | 79 | 1018.2 |
| 20260504050308 | 67 | 74 | 9.0 | 13.0 | 0.00 | 0.27 | 0.27 | 79 | 1018.1 |
| 20260504050302 | 67 | 71 | 9.0 | 13.0 | 0.00 | 0.27 | 0.27 | 81 | 1018.1 |
| 20260504050258 | 67 | 59 | 8.0 | 10.0 | 0.00 | 0.27 | 0.00 | 81 | 1018.2 |
| 20260504050253 | 67 | 67 | 7.0 | 11.0 | 0.00 | 0.27 | 0.00 | 82 | 1018.3 |
| 20260504050247 | 67 | 69 | 8.0 | 11.0 | 0.00 | 0.27 | 0.00 | 83 | 1018.1 |
| 20260504050242 | 69 | 0 | 12.0 | 15.0 | 0.00 | 0.27 | 0.27 | 70 | 1017.0 |
| 20260504050236 | 69 | 86 | 10.0 | 14.0 | 0.00 | 0.27 | 0.27 | 71 | 1017.1 |
| 20260504050229 | 69 | 0 | 9.0 | 14.0 | 0.00 | 0.27 | 0.27 | 71 | 1017.1 |
| 20260504050225 | 69 | 91 | 10.0 | 13.0 | 0.00 | 0.27 | 0.27 | 72 | 1017.1 |
| 20260504050219 | 68 | 85 | 10.0 | 14.0 | 0.00 | 0.27 | 0.27 | 73 | 1017.1 |
| 20260504050214 | 68 | 0 | 9.0 | 14.0 | 0.00 | 0.27 | 0.27 | 73 | 1017.3 |
| 20260504050208 | 68 | 77 | 8.0 | 13.0 | 0.00 | 0.27 | 0.27 | 74 | 1017.6 |
| 20260504050203 | 67 | 73 | 8.0 | 12.0 | 0.00 | 0.27 | 0.27 | 78 | 1018.3 |
| 20260504050157 | 67 | 71 | 9.0 | 12.0 | 0.00 | 0.27 | 0.27 | 79 | 1018.2 |
| 20260504050152 | 67 | 69 | 8.0 | 11.0 | 0.00 | 0.27 | 0.27 | 79 | 1018.3 |
| 20260504050147 | 67 | 80 | 6.0 | 8.0 | 0.00 | 0.27 | 0.00 | 81 | 1018.2 |
| 20260504050020 | 67 | 72 | 8.0 | 11.0 | 0.00 | 0.27 | 0.00 | 81 | 1018.3 |
| 20260504050014 | 67 | 70 | 7.0 | 11.0 | 0.00 | 0.27 | 0.00 | 81 | 1018.2 |
| 20260504050009 | 68 | 84 | 9.0 | 12.0 | 0.00 | 0.27 | 0.27 | 74 | 1017.4 |
| 20260504050005 | 68 | 78 | 8.0 | 13.0 | 0.00 | 0.27 | 0.27 | 74 | 1017.7 |
| 20260504050000 | 68 | 74 | 8.0 | 12.0 | 0.00 | 0.27 | 0.27 | 75 | 1017.8 |
| 20260504045955 | 67 | 70 | 8.0 | 12.0 | 0.00 | 0.27 | 0.27 | 75 | 1018.0 |
| 20260504045949 | 67 | 90 | 6.0 | 12.0 | 0.00 | 0.27 | 0.27 | 75 | 1018.1 |
| 20260504045945 | 67 | 85 | 7.0 | 11.0 | 0.00 | 0.27 | 0.27 | 77 | 1018.2 |
| 20260504045817 | 67 | 0 | 8.0 | 12.0 | 0.00 | 0.27 | 0.27 | 78 | 1018.3 |
| 20260504045812 | 67 | 67 | 7.0 | 11.0 | 0.00 | 0.27 | 0.00 | 82 | 1018.3 |
| 20260504045806 | 67 | 75 | 8.0 | 11.0 | 0.00 | 0.27 | 0.27 | 79 | 1018.2 |
| 20260504045801 | 67 | 74 | 9.0 | 13.0 | 0.00 | 0.27 | 0.27 | 79 | 1018.1 |
| 20260504045755 | 67 | 71 | 9.0 | 13.0 | 0.00 | 0.27 | 0.27 | 81 | 1018.1 |
| 20260504045750 | 67 | 59 | 8.0 | 10.0 | 0.00 | 0.27 | 0.00 | 81 | 1018.2 |
| 20260504045625 | 69 | 0 | 11.0 | 14.0 | 0.00 | 0.27 | 0.27 | 70 | 1017.1 |
| 20260504045618 | 69 | 86 | 10.0 | 14.0 | 0.00 | 0.27 | 0.27 | 71 | 1017.1 |
| 20260504045612 | 69 | 0 | 9.0 | 14.0 | 0.00 | 0.27 | 0.27 | 71 | 1017.1 |
| 20260504045608 | 68 | 85 | 10.0 | 14.0 | 0.00 | 0.27 | 0.27 | 73 | 1017.1 |
| 20260504045603 | 68 | 0 | 9.0 | 14.0 | 0.00 | 0.27 | 0.27 | 73 | 1017.3 |
| 20260504045557 | 68 | 77 | 8.0 | 13.0 | 0.00 | 0.27 | 0.27 | 74 | 1017.6 |
| 20260504045553 | 67 | 73 | 8.0 | 12.0 | 0.00 | 0.27 | 0.27 | 78 | 1018.3 |
| 20260504045547 | 67 | 71 | 9.0 | 12.0 | 0.00 | 0.27 | 0.27 | 79 | 1018.2 |
| 20260504045542 | 67 | 69 | 8.0 | 11.0 | 0.00 | 0.27 | 0.27 | 79 | 1018.3 |
| 20260504045536 | 67 | 70 | 7.0 | 11.0 | 0.00 | 0.27 | 0.00 | 81 | 1018.2 |
| 20260504045532 | 67 | 73 | 7.0 | 11.0 | 0.00 | 0.27 | 0.00 | 80 | 1018.1 |
| 20260504045526 | 67 | 80 | 6.0 | 8.0 | 0.00 | 0.27 | 0.00 | 81 | 1018.2 |
| 20260504045520 | 67 | 72 | 8.0 | 11.0 | 0.00 | 0.27 | 0.00 | 81 | 1018.3 |
| 20260504045353 | 71 | 90 | 13.0 | 18.0 | 0.00 | 0.27 | 0.27 | 69 | 1017.1 |
| 20260504045348 | 71 | 0 | 13.0 | 18.0 | 0.00 | 0.27 | 0.27 | 70 | 1017.0 |
| 20260504045342 | 71 | 101 | 11.0 | 15.0 | 0.00 | 0.27 | 0.27 | 66 | 1017.0 |
| 20260504045338 | 70 | 76 | 12.0 | 16.0 | 0.00 | 0.27 | 0.27 | 70 | 1017.0 |
| 20260504045333 | 69 | 0 | 12.0 | 15.0 | 0.00 | 0.27 | 0.27 | 70 | 1017.0 |
| 20260504045327 | 69 | 91 | 10.0 | 13.0 | 0.00 | 0.27 | 0.27 | 72 | 1017.1 |
| 20260504045320 | 68 | 84 | 9.0 | 12.0 | 0.00 | 0.27 | 0.27 | 74 | 1017.4 |
| 20260504045316 | 67 | 67 | 7.0 | 11.0 | 0.00 | 0.27 | 0.00 | 82 | 1018.3 |
| 20260504045311 | 68 | 78 | 8.0 | 13.0 | 0.00 | 0.27 | 0.27 | 74 | 1017.7 |
| 20260504045306 | 68 | 74 | 8.0 | 12.0 | 0.00 | 0.27 | 0.27 | 75 | 1017.8 |
| 20260504045301 | 67 | 70 | 8.0 | 12.0 | 0.00 | 0.27 | 0.27 | 75 | 1018.0 |
| 20260504045255 | 67 | 90 | 6.0 | 12.0 | 0.00 | 0.27 | 0.27 | 75 | 1018.1 |
| 20260504045250 | 67 | 59 | 8.0 | 10.0 | 0.00 | 0.27 | 0.00 | 81 | 1018.2 |
| 20260504045244 | 67 | 85 | 7.0 | 11.0 | 0.00 | 0.27 | 0.27 | 77 | 1018.2 |
| 20260504045240 | 67 | 71 | 8.0 | 11.0 | 0.00 | 0.27 | 0.27 | 77 | 1018.4 |
| 20260504045234 | 67 | 0 | 8.0 | 12.0 | 0.00 | 0.27 | 0.27 | 78 | 1018.3 |
| 20260504045229 | 67 | 75 | 8.0 | 11.0 | 0.00 | 0.27 | 0.27 | 79 | 1018.2 |
| 20260504045222 | 67 | 74 | 9.0 | 13.0 | 0.00 | 0.27 | 0.27 | 79 | 1018.1 |
| 20260504045216 | 67 | 71 | 9.0 | 13.0 | 0.00 | 0.27 | 0.27 | 81 | 1018.1 |
| 20260504045049 | 67 | 71 | 9.0 | 12.0 | 0.00 | 0.27 | 0.27 | 79 | 1018.2 |
| 20260504045043 | 67 | 69 | 8.0 | 11.0 | 0.00 | 0.27 | 0.27 | 79 | 1018.3 |
| 20260504045038 | 69 | 86 | 10.0 | 14.0 | 0.00 | 0.27 | 0.27 | 71 | 1017.1 |
| 20260504045034 | 69 | 0 | 9.0 | 14.0 | 0.00 | 0.27 | 0.27 | 71 | 1017.1 |
| 20260504045028 | 67 | 73 | 7.0 | 11.0 | 0.00 | 0.27 | 0.00 | 80 | 1018.1 |
| 20260504045023 | 68 | 85 | 10.0 | 14.0 | 0.00 | 0.27 | 0.27 | 73 | 1017.1 |
| 20260504045016 | 68 | 0 | 9.0 | 14.0 | 0.00 | 0.27 | 0.27 | 73 | 1017.3 |
| 20260504045010 | 68 | 77 | 8.0 | 13.0 | 0.00 | 0.27 | 0.27 | 74 | 1017.6 |
| 20260504045006 | 67 | 73 | 8.0 | 12.0 | 0.00 | 0.27 | 0.27 | 78 | 1018.3 |
| 20260504045001 | 67 | 70 | 7.0 | 11.0 | 0.00 | 0.27 | 0.00 | 81 | 1018.2 |
| 20260504044955 | 67 | 80 | 6.0 | 8.0 | 0.00 | 0.27 | 0.00 | 81 | 1018.2 |
| 20260504044950 | 67 | 72 | 8.0 | 11.0 | 0.00 | 0.27 | 0.00 | 81 | 1018.3 |
| 20260504044702 | 68 | 84 | 9.0 | 12.0 | 0.00 | 0.27 | 0.27 | 74 | 1017.4 |
| 20260504044657 | 68 | 78 | 8.0 | 13.0 | 0.00 | 0.27 | 0.27 | 74 | 1017.7 |
| 20260504044651 | 68 | 74 | 8.0 | 12.0 | 0.00 | 0.27 | 0.27 | 75 | 1017.8 |
| 20260504044646 | 67 | 70 | 8.0 | 12.0 | 0.00 | 0.27 | 0.27 | 75 | 1018.0 |
| 20260504044641 | 67 | 90 | 6.0 | 12.0 | 0.00 | 0.27 | 0.27 | 75 | 1018.1 |
| 20260504044636 | 67 | 85 | 7.0 | 11.0 | 0.00 | 0.27 | 0.27 | 77 | 1018.2 |
| 20260504044631 | 67 | 71 | 8.0 | 11.0 | 0.00 | 0.27 | 0.27 | 77 | 1018.4 |
| 20260504044625 | 67 | 0 | 8.0 | 12.0 | 0.00 | 0.27 | 0.27 | 78 | 1018.3 |
| 20260504044620 | 67 | 75 | 8.0 | 11.0 | 0.00 | 0.27 | 0.27 | 79 | 1018.2 |
| 20260504044614 | 67 | 74 | 9.0 | 13.0 | 0.00 | 0.27 | 0.27 | 79 | 1018.1 |
| 20260504044607 | 67 | 71 | 9.0 | 12.0 | 0.00 | 0.27 | 0.27 | 79 | 1018.2 |
| 20260504044602 | 67 | 71 | 9.0 | 13.0 | 0.00 | 0.27 | 0.27 | 81 | 1018.1 |
| 20260504044556 | 67 | 69 | 8.0 | 11.0 | 0.00 | 0.27 | 0.27 | 79 | 1018.3 |
| 20260504044552 | 67 | 73 | 7.0 | 11.0 | 0.00 | 0.27 | 0.00 | 80 | 1018.1 |
| 20260504044303 | 67 | 72 | 8.0 | 11.0 | 0.00 | 0.27 | 0.00 | 81 | 1018.3 |
| 20260504044258 | 68 | 85 | 10.0 | 14.0 | 0.00 | 0.27 | 0.27 | 73 | 1017.1 |
| 20260504044252 | 68 | 0 | 9.0 | 14.0 | 0.00 | 0.27 | 0.27 | 73 | 1017.3 |
| 20260504044248 | 67 | 67 | 7.0 | 11.0 | 0.00 | 0.27 | 0.00 | 82 | 1018.3 |
| 20260504044242 | 68 | 77 | 8.0 | 13.0 | 0.00 | 0.27 | 0.27 | 74 | 1017.6 |
| 20260504044237 | 67 | 73 | 8.0 | 12.0 | 0.00 | 0.27 | 0.27 | 78 | 1018.3 |
| 20260504044108 | 76 | 93 | 8.0 | 16.0 | 0.00 | 0.27 | 0.27 | 62 | 1017.0 |
| 20260504044104 | 71 | 87 | 12.0 | 15.0 | 0.00 | 0.27 | 0.27 | 64 | 1016.8 |
| 20260504044058 | 71 | 96 | 10.0 | 14.0 | 0.00 | 0.27 | 0.27 | 63 | 1016.6 |
| 20260504044054 | 71 | 80 | 10.0 | 14.0 | 0.00 | 0.27 | 0.27 | 63 | 1016.9 |
| 20260504044048 | 72 | 123 | 8.0 | 12.0 | 0.00 | 0.27 | 0.27 | 64 | 1016.8 |
| 20260504044043 | 70 | 80 | 12.0 | 18.0 | 0.00 | 0.27 | 0.27 | 69 | 1017.1 |
| 20260504044037 | 70 | 91 | 13.0 | 18.0 | 0.00 | 0.27 | 0.27 | 70 | 1017.1 |
| 20260504044032 | 71 | 90 | 13.0 | 18.0 | 0.00 | 0.27 | 0.27 | 69 | 1017.1 |
| 20260504044026 | 71 | 0 | 13.0 | 18.0 | 0.00 | 0.27 | 0.27 | 70 | 1017.0 |
| 20260504044022 | 71 | 101 | 11.0 | 15.0 | 0.00 | 0.27 | 0.27 | 66 | 1017.0 |
| 20260504044016 | 70 | 76 | 12.0 | 16.0 | 0.00 | 0.27 | 0.27 | 70 | 1017.0 |
| 20260504044011 | 68 | 78 | 8.0 | 13.0 | 0.00 | 0.27 | 0.27 | 74 | 1017.7 |
| 20260504044004 | 67 | 69 | 8.0 | 11.0 | 0.00 | 0.27 | 0.27 | 79 | 1018.3 |
| 20260504043958 | 68 | 74 | 8.0 | 12.0 | 0.00 | 0.27 | 0.27 | 75 | 1017.8 |
| 20260504043954 | 67 | 73 | 7.0 | 11.0 | 0.00 | 0.27 | 0.00 | 80 | 1018.1 |
| 20260504043948 | 67 | 70 | 7.0 | 11.0 | 0.00 | 0.27 | 0.00 | 81 | 1018.2 |
| 20260504043943 | 69 | 0 | 12.0 | 15.0 | 0.00 | 0.27 | 0.27 | 70 | 1017.0 |
| 20260504043938 | 69 | 0 | 11.0 | 14.0 | 0.00 | 0.27 | 0.27 | 70 | 1017.1 |
| 20260504043933 | 69 | 86 | 10.0 | 14.0 | 0.00 | 0.27 | 0.27 | 71 | 1017.1 |
| 20260504043928 | 69 | 0 | 9.0 | 14.0 | 0.00 | 0.27 | 0.27 | 71 | 1017.1 |
| 20260504043922 | 69 | 91 | 10.0 | 13.0 | 0.00 | 0.27 | 0.27 | 72 | 1017.1 |
| 20260504043918 | 68 | 84 | 9.0 | 12.0 | 0.00 | 0.27 | 0.27 | 74 | 1017.4 |
| 20260504043913 | 67 | 70 | 8.0 | 12.0 | 0.00 | 0.27 | 0.27 | 75 | 1018.0 |
| 20260504043906 | 67 | 90 | 6.0 | 12.0 | 0.00 | 0.27 | 0.27 | 75 | 1018.1 |
| 20260504043900 | 67 | 85 | 7.0 | 11.0 | 0.00 | 0.27 | 0.27 | 77 | 1018.2 |
| 20260504043856 | 67 | 71 | 8.0 | 11.0 | 0.00 | 0.27 | 0.27 | 77 | 1018.4 |
| 20260504043850 | 67 | 0 | 8.0 | 12.0 | 0.00 | 0.27 | 0.27 | 78 | 1018.3 |
| 20260504043845 | 67 | 75 | 8.0 | 11.0 | 0.00 | 0.27 | 0.27 | 79 | 1018.2 |
| 20260504043839 | 67 | 74 | 9.0 | 13.0 | 0.00 | 0.27 | 0.27 | 79 | 1018.1 |
| 20260504043834 | 67 | 71 | 9.0 | 12.0 | 0.00 | 0.27 | 0.27 | 79 | 1018.2 |
| 20260504043830 | 67 | 71 | 9.0 | 13.0 | 0.00 | 0.27 | 0.27 | 81 | 1018.1 |
| 20260504043824 | 67 | 80 | 6.0 | 8.0 | 0.00 | 0.27 | 0.00 | 81 | 1018.2 |
| 20260504043819 | 67 | 72 | 8.0 | 11.0 | 0.00 | 0.27 | 0.00 | 81 | 1018.3 |
| 20260504043653 | 68 | 0 | 9.0 | 14.0 | 0.00 | 0.27 | 0.27 | 73 | 1017.3 |
| 20260504043647 | 68 | 77 | 8.0 | 13.0 | 0.00 | 0.27 | 0.27 | 74 | 1017.6 |
| 20260504043643 | 67 | 73 | 8.0 | 12.0 | 0.00 | 0.27 | 0.27 | 78 | 1018.3 |
| 20260504043517 | 67 | 73 | 7.0 | 11.0 | 0.00 | 0.27 | 0.00 | 80 | 1018.1 |
| 20260504043511 | 67 | 69 | 8.0 | 11.0 | 0.00 | 0.27 | 0.27 | 79 | 1018.3 |
| 20260504043506 | 68 | 74 | 8.0 | 12.0 | 0.00 | 0.27 | 0.27 | 75 | 1017.8 |
| 20260504043459 | 67 | 70 | 7.0 | 11.0 | 0.00 | 0.27 | 0.00 | 81 | 1018.2 |
| 20260504043332 | 67 | 75 | 8.0 | 11.0 | 0.00 | 0.27 | 0.27 | 79 | 1018.2 |
| 20260504043327 | 67 | 70 | 8.0 | 12.0 | 0.00 | 0.27 | 0.27 | 75 | 1018.0 |
| 20260504043322 | 67 | 90 | 6.0 | 12.0 | 0.00 | 0.27 | 0.27 | 75 | 1018.1 |
| 20260504043316 | 67 | 71 | 9.0 | 13.0 | 0.00 | 0.27 | 0.27 | 81 | 1018.1 |
| 20260504043310 | 67 | 85 | 7.0 | 11.0 | 0.00 | 0.27 | 0.27 | 77 | 1018.2 |
| 20260504043306 | 67 | 71 | 8.0 | 11.0 | 0.00 | 0.27 | 0.27 | 77 | 1018.4 |
| 20260504043258 | 67 | 80 | 6.0 | 8.0 | 0.00 | 0.27 | 0.00 | 81 | 1018.2 |
| 20260504043254 | 67 | 0 | 8.0 | 12.0 | 0.00 | 0.27 | 0.27 | 78 | 1018.3 |
| 20260504043249 | 67 | 72 | 8.0 | 11.0 | 0.00 | 0.27 | 0.00 | 81 | 1018.3 |
| 20260504043244 | 67 | 74 | 9.0 | 13.0 | 0.00 | 0.27 | 0.27 | 79 | 1018.1 |
| 20260504043239 | 67 | 71 | 9.0 | 12.0 | 0.00 | 0.27 | 0.27 | 79 | 1018.2 |
| 20260504043113 | 71 | 96 | 10.0 | 14.0 | 0.00 | 0.27 | 0.27 | 63 | 1016.6 |
| 20260504043108 | 69 | 0 | 12.0 | 15.0 | 0.00 | 0.27 | 0.27 | 70 | 1017.0 |
| 20260504043103 | 69 | 0 | 11.0 | 14.0 | 0.00 | 0.27 | 0.27 | 70 | 1017.1 |
| 20260504043057 | 69 | 0 | 9.0 | 14.0 | 0.00 | 0.27 | 0.27 | 71 | 1017.1 |
| 20260504043050 | 69 | 86 | 10.0 | 14.0 | 0.00 | 0.27 | 0.27 | 71 | 1017.1 |
| 20260504043045 | 67 | 73 | 8.0 | 12.0 | 0.00 | 0.27 | 0.27 | 78 | 1018.3 |
| 20260504043040 | 69 | 91 | 10.0 | 13.0 | 0.00 | 0.27 | 0.27 | 72 | 1017.1 |
| 20260504043035 | 68 | 85 | 10.0 | 14.0 | 0.00 | 0.27 | 0.27 | 73 | 1017.1 |
| 20260504043029 | 68 | 0 | 9.0 | 14.0 | 0.00 | 0.27 | 0.27 | 73 | 1017.3 |
| 20260504043024 | 68 | 77 | 8.0 | 13.0 | 0.00 | 0.27 | 0.27 | 74 | 1017.6 |
| 20260504043018 | 67 | 69 | 8.0 | 11.0 | 0.00 | 0.27 | 0.27 | 79 | 1018.3 |
| 20260504043013 | 67 | 70 | 7.0 | 11.0 | 0.00 | 0.27 | 0.00 | 81 | 1018.2 |
| 20260504043007 | 67 | 73 | 7.0 | 11.0 | 0.00 | 0.27 | 0.00 | 80 | 1018.1 |
| 20260504042839 | 71 | 80 | 10.0 | 14.0 | 0.00 | 0.27 | 0.27 | 63 | 1016.9 |
| 20260504042834 | 68 | 84 | 9.0 | 12.0 | 0.00 | 0.27 | 0.27 | 74 | 1017.4 |
| 20260504042830 | 68 | 74 | 8.0 | 12.0 | 0.00 | 0.27 | 0.27 | 75 | 1017.8 |
| 20260504042824 | 67 | 75 | 8.0 | 11.0 | 0.00 | 0.27 | 0.27 | 79 | 1018.2 |
| 20260504042820 | 70 | 80 | 12.0 | 18.0 | 0.00 | 0.27 | 0.27 | 69 | 1017.1 |
| 20260504042814 | 67 | 71 | 9.0 | 13.0 | 0.00 | 0.27 | 0.27 | 81 | 1018.1 |
| 20260504042809 | 70 | 91 | 13.0 | 18.0 | 0.00 | 0.27 | 0.27 | 70 | 1017.1 |
| 20260504042803 | 67 | 80 | 6.0 | 8.0 | 0.00 | 0.27 | 0.00 | 81 | 1018.2 |
| 20260504042758 | 71 | 90 | 13.0 | 18.0 | 0.00 | 0.27 | 0.27 | 69 | 1017.1 |
| 20260504042751 | 70 | 76 | 12.0 | 16.0 | 0.00 | 0.27 | 0.27 | 70 | 1017.0 |
| 20260504042746 | 67 | 70 | 8.0 | 12.0 | 0.00 | 0.27 | 0.27 | 75 | 1018.0 |
| 20260504042741 | 67 | 90 | 6.0 | 12.0 | 0.00 | 0.27 | 0.27 | 75 | 1018.1 |
| 20260504042736 | 67 | 85 | 7.0 | 11.0 | 0.00 | 0.27 | 0.27 | 77 | 1018.2 |
| 20260504042731 | 67 | 71 | 8.0 | 11.0 | 0.00 | 0.27 | 0.27 | 77 | 1018.4 |
| 20260504042726 | 67 | 0 | 8.0 | 12.0 | 0.00 | 0.27 | 0.27 | 78 | 1018.3 |
| 20260504042720 | 67 | 74 | 9.0 | 13.0 | 0.00 | 0.27 | 0.27 | 79 | 1018.1 |
| 20260504042716 | 67 | 71 | 9.0 | 12.0 | 0.00 | 0.27 | 0.27 | 79 | 1018.2 |
| 20260504042549 | 69 | 0 | 12.0 | 15.0 | 0.00 | 0.27 | 0.27 | 70 | 1017.0 |
| 20260504042545 | 69 | 0 | 11.0 | 14.0 | 0.00 | 0.27 | 0.27 | 70 | 1017.1 |
| 20260504042540 | 69 | 86 | 10.0 | 14.0 | 0.00 | 0.27 | 0.27 | 71 | 1017.1 |
| 20260504042534 | 69 | 0 | 9.0 | 14.0 | 0.00 | 0.27 | 0.27 | 71 | 1017.1 |
| 20260504042530 | 69 | 91 | 10.0 | 13.0 | 0.00 | 0.27 | 0.27 | 72 | 1017.1 |
| 20260504042524 | 68 | 85 | 10.0 | 14.0 | 0.00 | 0.27 | 0.27 | 73 | 1017.1 |
| 20260504042520 | 68 | 0 | 9.0 | 14.0 | 0.00 | 0.27 | 0.27 | 73 | 1017.3 |
| 20260504042514 | 67 | 69 | 8.0 | 11.0 | 0.00 | 0.27 | 0.27 | 79 | 1018.3 |
| 20260504042509 | 67 | 73 | 7.0 | 11.0 | 0.00 | 0.27 | 0.00 | 80 | 1018.1 |
| 20260504042504 | 67 | 70 | 7.0 | 11.0 | 0.00 | 0.27 | 0.00 | 81 | 1018.2 |
| 20260504042336 | 68 | 84 | 9.0 | 12.0 | 0.00 | 0.27 | 0.27 | 74 | 1017.4 |
| 20260504042331 | 68 | 78 | 8.0 | 13.0 | 0.00 | 0.27 | 0.27 | 74 | 1017.7 |
| 20260504042326 | 68 | 74 | 8.0 | 12.0 | 0.00 | 0.27 | 0.27 | 75 | 1017.8 |
| 20260504042321 | 67 | 75 | 8.0 | 11.0 | 0.00 | 0.27 | 0.27 | 79 | 1018.2 |
| 20260504042316 | 67 | 71 | 9.0 | 13.0 | 0.00 | 0.27 | 0.27 | 81 | 1018.1 |
| 20260504042307 | 67 | 80 | 6.0 | 8.0 | 0.00 | 0.27 | 0.00 | 81 | 1018.2 |
| 20260504042146 | 67 | 90 | 6.0 | 12.0 | 0.00 | 0.27 | 0.27 | 75 | 1018.1 |
| 20260504042139 | 67 | 74 | 9.0 | 13.0 | 0.00 | 0.27 | 0.27 | 79 | 1018.1 |
| 20260504042133 | 67 | 85 | 7.0 | 11.0 | 0.00 | 0.27 | 0.27 | 77 | 1018.2 |
| 20260504042128 | 67 | 71 | 8.0 | 11.0 | 0.00 | 0.27 | 0.27 | 77 | 1018.4 |
| 20260504042122 | 67 | 0 | 8.0 | 12.0 | 0.00 | 0.27 | 0.27 | 78 | 1018.3 |
| 20260504042118 | 67 | 73 | 8.0 | 12.0 | 0.00 | 0.27 | 0.27 | 78 | 1018.3 |
| 20260504042112 | 67 | 71 | 9.0 | 12.0 | 0.00 | 0.27 | 0.27 | 79 | 1018.2 |
| 20260504041949 | 67 | 70 | 7.0 | 11.0 | 0.00 | 0.27 | 0.00 | 81 | 1018.2 |
| 20260504041944 | 67 | 73 | 7.0 | 11.0 | 0.00 | 0.27 | 0.00 | 80 | 1018.1 |
| 20260504041657 | 67 | 71 | 9.0 | 13.0 | 0.00 | 0.27 | 0.27 | 81 | 1018.1 |
| 20260504041528 | 68 | 78 | 8.0 | 13.0 | 0.00 | 0.27 | 0.27 | 74 | 1017.7 |
| 20260504041403 | 67 | 70 | 8.0 | 12.0 | 0.00 | 0.27 | 0.27 | 75 | 1018.0 |
| 20260504041358 | 67 | 85 | 7.0 | 11.0 | 0.00 | 0.27 | 0.27 | 77 | 1018.2 |
| 20260504041352 | 67 | 0 | 8.0 | 12.0 | 0.00 | 0.27 | 0.27 | 78 | 1018.3 |
| 20260504041348 | 67 | 73 | 8.0 | 12.0 | 0.00 | 0.27 | 0.27 | 78 | 1018.3 |
| 20260504041342 | 67 | 69 | 8.0 | 11.0 | 0.00 | 0.27 | 0.27 | 79 | 1018.3 |
| 20260504041337 | 67 | 70 | 7.0 | 11.0 | 0.00 | 0.27 | 0.00 | 81 | 1018.2 |
| 20260504041323 | 67 | 73 | 7.0 | 11.0 | 0.00 | 0.27 | 0.00 | 80 | 1018.1 |
| 20260504041205 | 67 | 71 | 9.0 | 12.0 | 0.00 | 0.27 | 0.27 | 79 | 1018.2 |
| 20260504041201 | 67 | 71 | 8.0 | 11.0 | 0.00 | 0.27 | 0.27 | 77 | 1018.4 |
| 20260504041155 | 69 | 86 | 10.0 | 14.0 | 0.00 | 0.27 | 0.27 | 71 | 1017.1 |
| 20260504041150 | 69 | 0 | 9.0 | 14.0 | 0.00 | 0.27 | 0.27 | 71 | 1017.1 |
| 20260504041144 | 67 | 75 | 8.0 | 11.0 | 0.00 | 0.27 | 0.27 | 79 | 1018.2 |
| 20260504041138 | 67 | 74 | 9.0 | 13.0 | 0.00 | 0.27 | 0.27 | 79 | 1018.1 |
| 20260504041132 | 67 | 71 | 9.0 | 13.0 | 0.00 | 0.27 | 0.27 | 81 | 1018.1 |
| 20260504041006 | 68 | 85 | 10.0 | 14.0 | 0.00 | 0.27 | 0.27 | 73 | 1017.1 |
| 20260504041001 | 68 | 0 | 9.0 | 14.0 | 0.00 | 0.27 | 0.27 | 73 | 1017.3 |
| 20260504040956 | 68 | 84 | 9.0 | 12.0 | 0.00 | 0.27 | 0.27 | 74 | 1017.4 |
| 20260504040828 | 67 | 0 | 8.0 | 12.0 | 0.00 | 0.27 | 0.27 | 78 | 1018.3 |
| 20260504040822 | 71 | 0 | 13.0 | 18.0 | 0.00 | 0.27 | 0.27 | 70 | 1017.0 |
| 20260504040817 | 67 | 69 | 8.0 | 11.0 | 0.00 | 0.27 | 0.27 | 79 | 1018.3 |
| 20260504040812 | 71 | 101 | 11.0 | 15.0 | 0.00 | 0.27 | 0.27 | 66 | 1017.0 |
| 20260504040807 | 71 | 87 | 12.0 | 15.0 | 0.00 | 0.27 | 0.27 | 64 | 1016.8 |
| 20260504040801 | 70 | 80 | 12.0 | 18.0 | 0.00 | 0.27 | 0.27 | 69 | 1017.1 |
| 20260504040756 | 70 | 76 | 12.0 | 16.0 | 0.00 | 0.27 | 0.27 | 70 | 1017.0 |
| 20260504040750 | 67 | 70 | 7.0 | 11.0 | 0.00 | 0.27 | 0.00 | 81 | 1018.2 |
| 20260504040745 | 68 | 78 | 8.0 | 13.0 | 0.00 | 0.27 | 0.27 | 74 | 1017.7 |
| 20260504040740 | 68 | 74 | 8.0 | 12.0 | 0.00 | 0.27 | 0.27 | 75 | 1017.8 |
| 20260504040734 | 67 | 70 | 8.0 | 12.0 | 0.00 | 0.27 | 0.27 | 75 | 1018.0 |
| 20260504040727 | 67 | 90 | 6.0 | 12.0 | 0.00 | 0.27 | 0.27 | 75 | 1018.1 |
| 20260504040723 | 67 | 85 | 7.0 | 11.0 | 0.00 | 0.27 | 0.27 | 77 | 1018.2 |
| 20260504040717 | 67 | 71 | 8.0 | 11.0 | 0.00 | 0.27 | 0.27 | 77 | 1018.4 |
| 20260504040712 | 67 | 73 | 8.0 | 12.0 | 0.00 | 0.27 | 0.27 | 78 | 1018.3 |
| 20260504040706 | 67 | 71 | 9.0 | 12.0 | 0.00 | 0.27 | 0.27 | 79 | 1018.2 |
| 20260504040542 | 67 | 75 | 8.0 | 11.0 | 0.00 | 0.27 | 0.27 | 79 | 1018.2 |
| 20260504040536 | 67 | 74 | 9.0 | 13.0 | 0.00 | 0.27 | 0.27 | 79 | 1018.1 |
| 20260504040408 | 71 | 96 | 10.0 | 14.0 | 0.00 | 0.27 | 0.27 | 63 | 1016.6 |
| 20260504040403 | 69 | 86 | 10.0 | 14.0 | 0.00 | 0.27 | 0.27 | 71 | 1017.1 |
| 20260504040358 | 69 | 0 | 12.0 | 15.0 | 0.00 | 0.27 | 0.27 | 70 | 1017.0 |
| 20260504040354 | 69 | 0 | 9.0 | 14.0 | 0.00 | 0.27 | 0.27 | 71 | 1017.1 |
| 20260504040349 | 69 | 91 | 10.0 | 13.0 | 0.00 | 0.27 | 0.27 | 72 | 1017.1 |
| 20260504040343 | 68 | 85 | 10.0 | 14.0 | 0.00 | 0.27 | 0.27 | 73 | 1017.1 |
| 20260504040338 | 68 | 0 | 9.0 | 14.0 | 0.00 | 0.27 | 0.27 | 73 | 1017.3 |
| 20260504040332 | 68 | 84 | 9.0 | 12.0 | 0.00 | 0.27 | 0.27 | 74 | 1017.4 |
| 20260504040328 | 68 | 77 | 8.0 | 13.0 | 0.00 | 0.27 | 0.27 | 74 | 1017.6 |
| 20260504040321 | 67 | 0 | 8.0 | 12.0 | 0.00 | 0.27 | 0.27 | 78 | 1018.3 |
| 20260504040316 | 67 | 69 | 8.0 | 11.0 | 0.00 | 0.27 | 0.27 | 79 | 1018.3 |
| 20260504040305 | 67 | 70 | 7.0 | 11.0 | 0.00 | 0.27 | 0.00 | 81 | 1018.2 |
| 20260504040146 | 68 | 78 | 8.0 | 13.0 | 0.00 | 0.27 | 0.27 | 74 | 1017.7 |
| 20260504040141 | 68 | 74 | 8.0 | 12.0 | 0.00 | 0.27 | 0.27 | 75 | 1017.8 |
| 20260504040135 | 67 | 70 | 8.0 | 12.0 | 0.00 | 0.27 | 0.27 | 75 | 1018.0 |
| 20260504040130 | 67 | 90 | 6.0 | 12.0 | 0.00 | 0.27 | 0.27 | 75 | 1018.1 |
| 20260504040124 | 67 | 85 | 7.0 | 11.0 | 0.00 | 0.27 | 0.27 | 77 | 1018.2 |
| 20260504040119 | 67 | 71 | 8.0 | 11.0 | 0.00 | 0.27 | 0.27 | 77 | 1018.4 |
| 20260504040113 | 67 | 73 | 8.0 | 12.0 | 0.00 | 0.27 | 0.27 | 78 | 1018.3 |
| 20260504040108 | 67 | 71 | 9.0 | 12.0 | 0.00 | 0.27 | 0.27 | 79 | 1018.2 |
| 20260504035937 | 67 | 74 | 9.0 | 13.0 | 0.00 | 0.27 | 0.27 | 79 | 1018.1 |
| 20260504035932 | 70 | 91 | 13.0 | 18.0 | 0.00 | 0.27 | 0.27 | 70 | 1017.1 |
| 20260504035928 | 71 | 90 | 13.0 | 18.0 | 0.00 | 0.27 | 0.27 | 69 | 1017.1 |
| 20260504035920 | 71 | 0 | 13.0 | 18.0 | 0.00 | 0.27 | 0.27 | 70 | 1017.0 |
| 20260504035915 | 71 | 101 | 11.0 | 15.0 | 0.00 | 0.27 | 0.27 | 66 | 1017.0 |
| 20260504035910 | 70 | 80 | 12.0 | 18.0 | 0.00 | 0.27 | 0.27 | 69 | 1017.1 |
| 20260504035904 | 70 | 76 | 12.0 | 16.0 | 0.00 | 0.27 | 0.27 | 70 | 1017.0 |
| 20260504035900 | 69 | 0 | 12.0 | 15.0 | 0.00 | 0.27 | 0.27 | 70 | 1017.0 |
| 20260504035854 | 69 | 0 | 11.0 | 14.0 | 0.00 | 0.27 | 0.27 | 70 | 1017.1 |
| 20260504035850 | 69 | 86 | 10.0 | 14.0 | 0.00 | 0.27 | 0.27 | 71 | 1017.1 |
| 20260504035845 | 69 | 0 | 9.0 | 14.0 | 0.00 | 0.27 | 0.27 | 71 | 1017.1 |
| 20260504035839 | 69 | 91 | 10.0 | 13.0 | 0.00 | 0.27 | 0.27 | 72 | 1017.1 |
| 20260504035834 | 68 | 85 | 10.0 | 14.0 | 0.00 | 0.27 | 0.27 | 73 | 1017.1 |
| 20260504035828 | 68 | 0 | 9.0 | 14.0 | 0.00 | 0.27 | 0.27 | 73 | 1017.3 |
| 20260504035821 | 68 | 84 | 9.0 | 12.0 | 0.00 | 0.27 | 0.27 | 74 | 1017.4 |
| 20260504035816 | 68 | 77 | 8.0 | 13.0 | 0.00 | 0.27 | 0.27 | 74 | 1017.6 |
| 20260504035810 | 67 | 69 | 8.0 | 11.0 | 0.00 | 0.27 | 0.27 | 79 | 1018.3 |
| 20260504035527 | 68 | 74 | 8.0 | 12.0 | 0.00 | 0.27 | 0.27 | 75 | 1017.8 |
| 20260504035522 | 67 | 70 | 8.0 | 12.0 | 0.00 | 0.27 | 0.27 | 75 | 1018.0 |
| 20260504035517 | 67 | 71 | 8.0 | 11.0 | 0.00 | 0.27 | 0.27 | 77 | 1018.4 |
| 20260504035511 | 67 | 90 | 6.0 | 12.0 | 0.00 | 0.27 | 0.27 | 75 | 1018.1 |
| 20260504035506 | 67 | 71 | 9.0 | 12.0 | 0.00 | 0.27 | 0.27 | 79 | 1018.2 |
| 20260504035500 | 67 | 73 | 8.0 | 12.0 | 0.00 | 0.27 | 0.27 | 78 | 1018.3 |
| 20260504035454 | 67 | 85 | 7.0 | 11.0 | 0.00 | 0.27 | 0.27 | 77 | 1018.2 |
| 20260504035449 | 67 | 75 | 8.0 | 11.0 | 0.00 | 0.27 | 0.27 | 79 | 1018.2 |
| 20260504035445 | 67 | 74 | 9.0 | 13.0 | 0.00 | 0.27 | 0.27 | 79 | 1018.1 |
| 20260504035439 | 67 | 71 | 9.0 | 13.0 | 0.00 | 0.27 | 0.27 | 81 | 1018.1 |
| 20260504035032 | 71 | 87 | 12.0 | 15.0 | 0.00 | 0.27 | 0.27 | 64 | 1016.8 |
| 20260504035027 | 70 | 91 | 13.0 | 18.0 | 0.00 | 0.27 | 0.27 | 70 | 1017.1 |
| 20260504035022 | 67 | 71 | 9.0 | 12.0 | 0.00 | 0.27 | 0.27 | 79 | 1018.2 |
| 20260504035015 | 71 | 90 | 13.0 | 18.0 | 0.00 | 0.27 | 0.27 | 69 | 1017.1 |
| 20260504035011 | 67 | 73 | 8.0 | 12.0 | 0.00 | 0.27 | 0.27 | 78 | 1018.3 |
| 20260504035006 | 70 | 80 | 12.0 | 18.0 | 0.00 | 0.27 | 0.27 | 69 | 1017.1 |
| 20260504034841 | 69 | 0 | 12.0 | 15.0 | 0.00 | 0.27 | 0.27 | 70 | 1017.0 |
| 20260504034835 | 69 | 86 | 10.0 | 14.0 | 0.00 | 0.27 | 0.27 | 71 | 1017.1 |
| 20260504034831 | 76 | 86 | 8.0 | 14.0 | 0.00 | 0.27 | 0.27 | 59 | 1017.2 |
| 20260504034826 | 69 | 0 | 9.0 | 14.0 | 0.00 | 0.27 | 0.27 | 71 | 1017.1 |
| 20260504034821 | 69 | 91 | 10.0 | 13.0 | 0.00 | 0.27 | 0.27 | 72 | 1017.1 |
| 20260504034814 | 69 | 0 | 11.0 | 14.0 | 0.00 | 0.27 | 0.27 | 70 | 1017.1 |
| 20260504034810 | 68 | 85 | 10.0 | 14.0 | 0.00 | 0.27 | 0.27 | 73 | 1017.1 |
| 20260504034804 | 68 | 84 | 9.0 | 12.0 | 0.00 | 0.27 | 0.27 | 74 | 1017.4 |
| 20260504034759 | 68 | 0 | 9.0 | 14.0 | 0.00 | 0.27 | 0.27 | 73 | 1017.3 |
| 20260504034753 | 75 | 82 | 8.0 | 14.0 | 0.00 | 0.27 | 0.27 | 60 | 1017.1 |
| 20260504034748 | 68 | 77 | 8.0 | 13.0 | 0.00 | 0.27 | 0.27 | 74 | 1017.6 |
| 20260504034742 | 67 | 74 | 9.0 | 13.0 | 0.00 | 0.27 | 0.27 | 79 | 1018.1 |
| 20260504034738 | 68 | 74 | 8.0 | 12.0 | 0.00 | 0.27 | 0.27 | 75 | 1017.8 |
| 20260504034732 | 67 | 71 | 9.0 | 13.0 | 0.00 | 0.27 | 0.27 | 81 | 1018.1 |
| 20260504034727 | 68 | 78 | 8.0 | 13.0 | 0.00 | 0.27 | 0.27 | 74 | 1017.7 |
| 20260504034723 | 75 | 100 | 8.0 | 14.0 | 0.00 | 0.27 | 0.27 | 64 | 1017.4 |
| 20260504034717 | 76 | 65 | 8.0 | 14.0 | 0.00 | 0.27 | 0.27 | 63 | 1017.4 |
| 20260504034710 | 75 | 73 | 6.0 | 11.0 | 0.00 | 0.27 | 0.27 | 59 | 1017.6 |
| 20260504034705 | 67 | 70 | 8.0 | 12.0 | 0.00 | 0.27 | 0.27 | 75 | 1018.0 |
| 20260504034700 | 67 | 90 | 6.0 | 12.0 | 0.00 | 0.27 | 0.27 | 75 | 1018.1 |
| 20260504034655 | 67 | 75 | 8.0 | 11.0 | 0.00 | 0.27 | 0.27 | 79 | 1018.2 |
| 20260504034649 | 76 | 64 | 5.0 | 14.0 | 0.00 | 0.27 | 0.27 | 58 | 1017.7 |
| 20260504034645 | 77 | 47 | 8.0 | 12.0 | 0.00 | 0.27 | 0.27 | 57 | 1017.9 |
| 20260504034641 | 78 | 19 | 6.0 | 11.0 | 0.21 | 0.27 | 0.27 | 61 | 1018.1 |
| 20260504034635 | 78 | 39 | 8.0 | 14.0 | 0.21 | 0.27 | 0.27 | 61 | 1018.2 |
| 20260504034630 | 78 | 25 | 8.0 | 14.0 | 0.21 | 0.27 | 0.27 | 56 | 1018.3 |
| 20260504034626 | 78 | 23 | 10.0 | 14.0 | 0.21 | 0.27 | 0.27 | 56 | 1018.3 |
| 20260504034620 | 73 | 78 | 8.0 | 12.0 | 0.00 | 0.27 | 0.27 | 61 | 1016.8 |
| 20260504034613 | 67 | 85 | 7.0 | 11.0 | 0.00 | 0.27 | 0.27 | 77 | 1018.2 |
| 20260504034608 | 74 | 74 | 6.0 | 13.0 | 0.00 | 0.27 | 0.27 | 58 | 1016.8 |
| 20260504034602 | 72 | 123 | 8.0 | 12.0 | 0.00 | 0.27 | 0.27 | 64 | 1016.8 |
| 20260504034558 | 71 | 96 | 10.0 | 14.0 | 0.00 | 0.27 | 0.27 | 63 | 1016.6 |
| 20260504034552 | 71 | 80 | 10.0 | 14.0 | 0.00 | 0.27 | 0.27 | 63 | 1016.9 |
| 20260504034547 | 67 | 0 | 8.0 | 12.0 | 0.00 | 0.27 | 0.27 | 78 | 1018.3 |
| 20260504034542 | 67 | 71 | 8.0 | 11.0 | 0.00 | 0.27 | 0.27 | 77 | 1018.4 |
| 20260504034537 | 71 | 0 | 13.0 | 18.0 | 0.00 | 0.27 | 0.27 | 70 | 1017.0 |
| 20260504034531 | 71 | 101 | 11.0 | 15.0 | 0.00 | 0.27 | 0.27 | 66 | 1017.0 |
| 20260504034526 | 67 | 73 | 8.0 | 12.0 | 0.00 | 0.27 | 0.27 | 78 | 1018.3 |
| 20260504034520 | 67 | 71 | 9.0 | 12.0 | 0.00 | 0.27 | 0.27 | 79 | 1018.2 |
| 20260504034355 | 70 | 91 | 13.0 | 18.0 | 0.00 | 0.27 | 0.27 | 70 | 1017.1 |
| 20260504034349 | 71 | 90 | 13.0 | 18.0 | 0.00 | 0.27 | 0.27 | 69 | 1017.1 |
| 20260504034344 | 70 | 80 | 12.0 | 18.0 | 0.00 | 0.27 | 0.27 | 69 | 1017.1 |
| 20260504034339 | 70 | 76 | 12.0 | 16.0 | 0.00 | 0.27 | 0.27 | 70 | 1017.0 |
| 20260504034333 | 69 | 0 | 12.0 | 15.0 | 0.00 | 0.27 | 0.27 | 70 | 1017.0 |
| 20260504034328 | 69 | 0 | 11.0 | 14.0 | 0.00 | 0.27 | 0.27 | 70 | 1017.1 |
| 20260504034323 | 69 | 86 | 10.0 | 14.0 | 0.00 | 0.27 | 0.27 | 71 | 1017.1 |
| 20260504034319 | 69 | 0 | 9.0 | 14.0 | 0.00 | 0.27 | 0.27 | 71 | 1017.1 |
| 20260504034311 | 69 | 91 | 10.0 | 13.0 | 0.00 | 0.27 | 0.27 | 72 | 1017.1 |
| 20260504034306 | 68 | 85 | 10.0 | 14.0 | 0.00 | 0.27 | 0.27 | 73 | 1017.1 |
| 20260504034301 | 68 | 0 | 9.0 | 14.0 | 0.00 | 0.27 | 0.27 | 73 | 1017.3 |
| 20260504034255 | 68 | 84 | 9.0 | 12.0 | 0.00 | 0.27 | 0.27 | 74 | 1017.4 |
| 20260504034250 | 68 | 77 | 8.0 | 13.0 | 0.00 | 0.27 | 0.27 | 74 | 1017.6 |
| 20260504034246 | 67 | 74 | 9.0 | 13.0 | 0.00 | 0.27 | 0.27 | 79 | 1018.1 |
| 20260504034240 | 67 | 71 | 9.0 | 13.0 | 0.00 | 0.27 | 0.27 | 81 | 1018.1 |
| 20260504034235 | 68 | 78 | 8.0 | 13.0 | 0.00 | 0.27 | 0.27 | 74 | 1017.7 |
| 20260504034229 | 68 | 74 | 8.0 | 12.0 | 0.00 | 0.27 | 0.27 | 75 | 1017.8 |
| 20260504034224 | 67 | 70 | 8.0 | 12.0 | 0.00 | 0.27 | 0.27 | 75 | 1018.0 |
| 20260504034218 | 67 | 90 | 6.0 | 12.0 | 0.00 | 0.27 | 0.27 | 75 | 1018.1 |
| 20260504034211 | 67 | 75 | 8.0 | 11.0 | 0.00 | 0.27 | 0.27 | 79 | 1018.2 |
| 20260504034049 | 67 | 71 | 8.0 | 11.0 | 0.00 | 0.27 | 0.27 | 77 | 1018.4 |
| 20260504034043 | 67 | 0 | 8.0 | 12.0 | 0.00 | 0.27 | 0.27 | 78 | 1018.3 |
| 20260504033919 | 67 | 71 | 9.0 | 12.0 | 0.00 | 0.27 | 0.27 | 79 | 1018.2 |
| 20260504033632 | 67 | 75 | 8.0 | 11.0 | 0.00 | 0.27 | 0.27 | 79 | 1018.2 |
| 20260504033627 | 71 | 101 | 11.0 | 15.0 | 0.00 | 0.27 | 0.27 | 66 | 1017.0 |
| 20260504033622 | 70 | 91 | 13.0 | 18.0 | 0.00 | 0.27 | 0.27 | 70 | 1017.1 |
| 20260504033617 | 71 | 90 | 13.0 | 18.0 | 0.00 | 0.27 | 0.27 | 69 | 1017.1 |
| 20260504033609 | 70 | 80 | 12.0 | 18.0 | 0.00 | 0.27 | 0.27 | 69 | 1017.1 |
| 20260504033604 | 70 | 76 | 12.0 | 16.0 | 0.00 | 0.27 | 0.27 | 70 | 1017.0 |
| 20260504033559 | 69 | 0 | 12.0 | 15.0 | 0.00 | 0.27 | 0.27 | 70 | 1017.0 |
| 20260504033555 | 69 | 0 | 11.0 | 14.0 | 0.00 | 0.27 | 0.27 | 70 | 1017.1 |
| 20260504033549 | 69 | 86 | 10.0 | 14.0 | 0.00 | 0.27 | 0.27 | 71 | 1017.1 |
| 20260504033544 | 69 | 0 | 9.0 | 14.0 | 0.00 | 0.27 | 0.27 | 71 | 1017.1 |
| 20260504033538 | 69 | 91 | 10.0 | 13.0 | 0.00 | 0.27 | 0.27 | 72 | 1017.1 |
| 20260504033250 | 68 | 0 | 9.0 | 14.0 | 0.00 | 0.27 | 0.27 | 73 | 1017.3 |
| 20260504033244 | 68 | 84 | 9.0 | 12.0 | 0.00 | 0.27 | 0.27 | 74 | 1017.4 |
| 20260504033240 | 67 | 74 | 9.0 | 13.0 | 0.00 | 0.27 | 0.27 | 79 | 1018.1 |
| 20260504033234 | 68 | 77 | 8.0 | 13.0 | 0.00 | 0.27 | 0.27 | 74 | 1017.6 |
| 20260504033229 | 68 | 78 | 8.0 | 13.0 | 0.00 | 0.27 | 0.27 | 74 | 1017.7 |
| 20260504033223 | 68 | 74 | 8.0 | 12.0 | 0.00 | 0.27 | 0.27 | 75 | 1017.8 |
| 20260504033218 | 67 | 70 | 8.0 | 12.0 | 0.00 | 0.27 | 0.27 | 75 | 1018.0 |
| 20260504033212 | 67 | 90 | 6.0 | 12.0 | 0.00 | 0.27 | 0.27 | 75 | 1018.1 |
| 20260504033208 | 67 | 85 | 7.0 | 11.0 | 0.00 | 0.27 | 0.27 | 77 | 1018.2 |
| 20260504033202 | 67 | 71 | 8.0 | 11.0 | 0.00 | 0.27 | 0.27 | 77 | 1018.4 |
| 20260504033155 | 67 | 0 | 8.0 | 12.0 | 0.00 | 0.27 | 0.27 | 78 | 1018.3 |
| 20260504033150 | 67 | 73 | 8.0 | 12.0 | 0.00 | 0.27 | 0.27 | 78 | 1018.3 |
| 20260504033144 | 67 | 75 | 8.0 | 11.0 | 0.00 | 0.27 | 0.27 | 79 | 1018.2 |
| 20260504030936 | 67 | 0 | 8.0 | 12.0 | 0.00 | 0.27 | 0.27 | 78 | 1018.3 |
| 20260504030811 | 71 | 90 | 13.0 | 18.0 | 0.00 | 0.27 | 0.27 | 69 | 1017.1 |
| 20260504030806 | 70 | 80 | 12.0 | 18.0 | 0.00 | 0.27 | 0.27 | 69 | 1017.1 |
| 20260504030800 | 70 | 76 | 12.0 | 16.0 | 0.00 | 0.27 | 0.27 | 70 | 1017.0 |
| 20260504030755 | 69 | 0 | 12.0 | 15.0 | 0.00 | 0.27 | 0.27 | 70 | 1017.0 |
| 20260504030748 | 69 | 0 | 11.0 | 14.0 | 0.00 | 0.27 | 0.27 | 70 | 1017.1 |
| 20260504030742 | 69 | 86 | 10.0 | 14.0 | 0.00 | 0.27 | 0.27 | 71 | 1017.1 |
| 20260504030738 | 69 | 0 | 9.0 | 14.0 | 0.00 | 0.27 | 0.27 | 71 | 1017.1 |
| 20260504030733 | 69 | 91 | 10.0 | 13.0 | 0.00 | 0.27 | 0.27 | 72 | 1017.1 |
| 20260504030727 | 68 | 85 | 10.0 | 14.0 | 0.00 | 0.27 | 0.27 | 73 | 1017.1 |
| 20260504030723 | 67 | 70 | 8.0 | 12.0 | 0.00 | 0.27 | 0.27 | 75 | 1018.0 |
| 20260504030717 | 68 | 0 | 9.0 | 14.0 | 0.00 | 0.27 | 0.27 | 73 | 1017.3 |
| 20260504030712 | 67 | 73 | 8.0 | 12.0 | 0.00 | 0.27 | 0.27 | 78 | 1018.3 |
| 20260504030706 | 68 | 84 | 9.0 | 12.0 | 0.00 | 0.27 | 0.27 | 74 | 1017.4 |
| 20260504030701 | 68 | 74 | 8.0 | 12.0 | 0.00 | 0.27 | 0.27 | 75 | 1017.8 |
| 20260504030657 | 67 | 90 | 6.0 | 12.0 | 0.00 | 0.27 | 0.27 | 75 | 1018.1 |
| 20260504030530 | 68 | 78 | 8.0 | 13.0 | 0.00 | 0.27 | 0.27 | 74 | 1017.7 |
| 20260504030525 | 67 | 85 | 7.0 | 11.0 | 0.00 | 0.27 | 0.27 | 77 | 1018.2 |
| 20260504030400 | 67 | 0 | 8.0 | 12.0 | 0.00 | 0.27 | 0.27 | 78 | 1018.3 |
| 20260504030232 | 71 | 96 | 10.0 | 14.0 | 0.00 | 0.27 | 0.27 | 63 | 1016.6 |
| 20260504030227 | 71 | 87 | 12.0 | 15.0 | 0.00 | 0.27 | 0.27 | 64 | 1016.8 |
| 20260504030223 | 71 | 0 | 13.0 | 18.0 | 0.00 | 0.27 | 0.27 | 70 | 1017.0 |
| 20260504030217 | 71 | 101 | 11.0 | 15.0 | 0.00 | 0.27 | 0.27 | 66 | 1017.0 |
| 20260504030213 | 70 | 91 | 13.0 | 18.0 | 0.00 | 0.27 | 0.27 | 70 | 1017.1 |
| 20260504030207 | 71 | 90 | 13.0 | 18.0 | 0.00 | 0.27 | 0.27 | 69 | 1017.1 |
| 20260504030202 | 68 | 74 | 8.0 | 12.0 | 0.00 | 0.27 | 0.27 | 75 | 1017.8 |
| 20260504030156 | 67 | 70 | 8.0 | 12.0 | 0.00 | 0.27 | 0.27 | 75 | 1018.0 |
| 20260504030149 | 67 | 90 | 6.0 | 12.0 | 0.00 | 0.27 | 0.27 | 75 | 1018.1 |
| 20260504030024 | 70 | 76 | 12.0 | 16.0 | 0.00 | 0.27 | 0.27 | 70 | 1017.0 |
| 20260504030019 | 69 | 91 | 10.0 | 13.0 | 0.00 | 0.27 | 0.27 | 72 | 1017.1 |
| 20260504025851 | 69 | 0 | 12.0 | 15.0 | 0.00 | 0.27 | 0.27 | 70 | 1017.0 |
| 20260504025844 | 69 | 86 | 10.0 | 14.0 | 0.00 | 0.27 | 0.27 | 71 | 1017.1 |
| 20260504025840 | 69 | 0 | 11.0 | 14.0 | 0.00 | 0.27 | 0.27 | 70 | 1017.1 |
| 20260504025835 | 69 | 0 | 9.0 | 14.0 | 0.00 | 0.27 | 0.27 | 71 | 1017.1 |
| 20260504025829 | 67 | 71 | 8.0 | 11.0 | 0.00 | 0.27 | 0.27 | 77 | 1018.4 |
| 20260504025825 | 68 | 85 | 10.0 | 14.0 | 0.00 | 0.27 | 0.27 | 73 | 1017.1 |
| 20260504025819 | 68 | 84 | 9.0 | 12.0 | 0.00 | 0.27 | 0.27 | 74 | 1017.4 |
| 20260504025814 | 68 | 0 | 9.0 | 14.0 | 0.00 | 0.27 | 0.27 | 73 | 1017.3 |
| 20260504025808 | 68 | 77 | 8.0 | 13.0 | 0.00 | 0.27 | 0.27 | 74 | 1017.6 |
| 20260504025803 | 67 | 0 | 8.0 | 12.0 | 0.00 | 0.27 | 0.27 | 78 | 1018.3 |
| 20260504025757 | 68 | 78 | 8.0 | 13.0 | 0.00 | 0.27 | 0.27 | 74 | 1017.7 |
| 20260504025629 | 68 | 74 | 8.0 | 12.0 | 0.00 | 0.27 | 0.27 | 75 | 1017.8 |
| 20260504025623 | 71 | 80 | 10.0 | 14.0 | 0.00 | 0.27 | 0.27 | 63 | 1016.9 |
| 20260504025619 | 67 | 70 | 8.0 | 12.0 | 0.00 | 0.27 | 0.27 | 75 | 1018.0 |
| 20260504025613 | 71 | 96 | 10.0 | 14.0 | 0.00 | 0.27 | 0.27 | 63 | 1016.6 |
| 20260504025608 | 71 | 87 | 12.0 | 15.0 | 0.00 | 0.27 | 0.27 | 64 | 1016.8 |
| 20260504025602 | 67 | 90 | 6.0 | 12.0 | 0.00 | 0.27 | 0.27 | 75 | 1018.1 |
| 20260504025557 | 71 | 0 | 13.0 | 18.0 | 0.00 | 0.27 | 0.27 | 70 | 1017.0 |
| 20260504025551 | 71 | 101 | 11.0 | 15.0 | 0.00 | 0.27 | 0.27 | 66 | 1017.0 |
| 20260504025544 | 70 | 91 | 13.0 | 18.0 | 0.00 | 0.27 | 0.27 | 70 | 1017.1 |
| 20260504025539 | 71 | 90 | 13.0 | 18.0 | 0.00 | 0.27 | 0.27 | 69 | 1017.1 |
| 20260504025535 | 70 | 76 | 12.0 | 16.0 | 0.00 | 0.27 | 0.27 | 70 | 1017.0 |
| 20260504025409 | 70 | 80 | 12.0 | 18.0 | 0.00 | 0.27 | 0.27 | 69 | 1017.1 |
| 20260504025403 | 67 | 85 | 7.0 | 11.0 | 0.00 | 0.27 | 0.27 | 77 | 1018.2 |
| 20260504025359 | 69 | 0 | 12.0 | 15.0 | 0.00 | 0.27 | 0.27 | 70 | 1017.0 |
| 20260504025353 | 69 | 0 | 11.0 | 14.0 | 0.00 | 0.27 | 0.27 | 70 | 1017.1 |
| 20260504025346 | 69 | 86 | 10.0 | 14.0 | 0.00 | 0.27 | 0.27 | 71 | 1017.1 |
| 20260504025342 | 68 | 85 | 10.0 | 14.0 | 0.00 | 0.27 | 0.27 | 73 | 1017.1 |
| 20260504025337 | 68 | 0 | 9.0 | 14.0 | 0.00 | 0.27 | 0.27 | 73 | 1017.3 |
| 20260504025331 | 68 | 84 | 9.0 | 12.0 | 0.00 | 0.27 | 0.27 | 74 | 1017.4 |
| 20260504025326 | 67 | 71 | 8.0 | 11.0 | 0.00 | 0.27 | 0.27 | 77 | 1018.4 |
| 20260504025312 | 67 | 0 | 8.0 | 12.0 | 0.00 | 0.27 | 0.27 | 78 | 1018.3 |
| 20260504025156 | 69 | 0 | 9.0 | 14.0 | 0.00 | 0.27 | 0.27 | 71 | 1017.1 |
| 20260504025151 | 68 | 78 | 8.0 | 13.0 | 0.00 | 0.27 | 0.27 | 74 | 1017.7 |
| 20260504025145 | 68 | 74 | 8.0 | 12.0 | 0.00 | 0.27 | 0.27 | 75 | 1017.8 |
| 20260504025138 | 67 | 70 | 8.0 | 12.0 | 0.00 | 0.27 | 0.27 | 75 | 1018.0 |
| 20260504025133 | 78 | 25 | 7.0 | 13.0 | 0.21 | 0.27 | 0.27 | 62 | 1018.3 |
| 20260504025127 | 77 | 12 | 10.0 | 13.0 | 0.21 | 0.27 | 0.27 | 61 | 1018.4 |
| 20260504025122 | 77 | 36 | 9.0 | 13.0 | 0.00 | 0.06 | 0.06 | 58 | 1018.6 |
| 20260504025117 | 67 | 90 | 6.0 | 12.0 | 0.00 | 0.27 | 0.27 | 75 | 1018.1 |
| 20260504025112 | 78 | 13 | 9.0 | 13.0 | 0.00 | 0.07 | 0.06 | 60 | 1018.5 |
| 20260504025106 | 77 | 14 | 9.0 | 13.0 | 0.00 | 0.07 | 0.06 | 59 | 1018.6 |
| 20260504025101 | 77 | 355 | 9.0 | 14.0 | 0.00 | 0.07 | 0.06 | 59 | 1018.6 |
| 20260504025057 | 78 | 19 | 10.0 | 15.0 | 0.00 | 0.07 | 0.06 | 64 | 1018.7 |
| 20260504025051 | 78 | 24 | 10.0 | 14.0 | 0.00 | 0.07 | 0.06 | 62 | 1018.8 |
| 20260504025043 | 78 | 23 | 10.0 | 14.0 | 0.00 | 0.07 | 0.06 | 60 | 1018.9 |
| 20260504025038 | 77 | 17 | 9.0 | 15.0 | 0.00 | 0.07 | 0.06 | 62 | 1019.0 |
| 20260504025033 | 74 | 86 | 8.0 | 12.0 | 0.00 | 0.27 | 0.27 | 59 | 1016.8 |
| 20260504025028 | 74 | 78 | 7.0 | 12.0 | 0.00 | 0.27 | 0.27 | 61 | 1016.8 |
| 20260504025022 | 74 | 61 | 6.0 | 13.0 | 0.00 | 0.27 | 0.27 | 57 | 1016.8 |
| 20260504025018 | 75 | 78 | 8.0 | 15.0 | 0.00 | 0.27 | 0.27 | 57 | 1016.7 |
| 20260504025012 | 75 | 85 | 7.0 | 14.0 | 0.00 | 0.27 | 0.27 | 63 | 1016.6 |
| 20260504025007 | 73 | 78 | 8.0 | 12.0 | 0.00 | 0.27 | 0.27 | 61 | 1016.8 |
| 20260504025003 | 74 | 74 | 6.0 | 13.0 | 0.00 | 0.27 | 0.27 | 58 | 1016.8 |
| 20260504024957 | 72 | 123 | 8.0 | 12.0 | 0.00 | 0.27 | 0.27 | 64 | 1016.8 |
| 20260504024952 | 71 | 80 | 10.0 | 14.0 | 0.00 | 0.27 | 0.27 | 63 | 1016.9 |
| 20260504024946 | 71 | 96 | 10.0 | 14.0 | 0.00 | 0.27 | 0.27 | 63 | 1016.6 |
| 20260504024939 | 71 | 87 | 12.0 | 15.0 | 0.00 | 0.27 | 0.27 | 64 | 1016.8 |
| 20260504024933 | 71 | 0 | 13.0 | 18.0 | 0.00 | 0.27 | 0.27 | 70 | 1017.0 |
| 20260504024929 | 69 | 91 | 10.0 | 13.0 | 0.00 | 0.27 | 0.27 | 72 | 1017.1 |
| 20260504024924 | 67 | 85 | 7.0 | 11.0 | 0.00 | 0.27 | 0.27 | 77 | 1018.2 |
| 20260504024918 | 71 | 101 | 11.0 | 15.0 | 0.00 | 0.27 | 0.27 | 66 | 1017.0 |
| 20260504024913 | 70 | 91 | 13.0 | 18.0 | 0.00 | 0.27 | 0.27 | 70 | 1017.1 |
| 20260504024907 | 70 | 76 | 12.0 | 16.0 | 0.00 | 0.27 | 0.27 | 70 | 1017.0 |
| 20260504024739 | 67 | 71 | 8.0 | 11.0 | 0.00 | 0.27 | 0.27 | 77 | 1018.4 |
| 20260504024734 | 69 | 86 | 10.0 | 14.0 | 0.00 | 0.27 | 0.27 | 71 | 1017.1 |
| 20260504024728 | 68 | 84 | 9.0 | 12.0 | 0.00 | 0.27 | 0.27 | 74 | 1017.4 |
| 20260504024723 | 69 | 0 | 12.0 | 15.0 | 0.00 | 0.27 | 0.27 | 70 | 1017.0 |
| 20260504024717 | 68 | 0 | 9.0 | 14.0 | 0.00 | 0.27 | 0.27 | 73 | 1017.3 |
| 20260504024713 | 71 | 90 | 13.0 | 18.0 | 0.00 | 0.27 | 0.27 | 69 | 1017.1 |
| 20260504024708 | 68 | 77 | 8.0 | 13.0 | 0.00 | 0.27 | 0.27 | 74 | 1017.6 |
| 20260504024702 | 70 | 80 | 12.0 | 18.0 | 0.00 | 0.27 | 0.27 | 69 | 1017.1 |
| 20260504024656 | 69 | 0 | 11.0 | 14.0 | 0.00 | 0.27 | 0.27 | 70 | 1017.1 |
| 20260504024651 | 67 | 70 | 8.0 | 12.0 | 0.00 | 0.27 | 0.27 | 75 | 1018.0 |
| 20260504024647 | 68 | 78 | 8.0 | 13.0 | 0.00 | 0.27 | 0.27 | 74 | 1017.7 |
| 20260504024641 | 68 | 74 | 8.0 | 12.0 | 0.00 | 0.27 | 0.27 | 75 | 1017.8 |
| 20260504024634 | 69 | 0 | 9.0 | 14.0 | 0.00 | 0.27 | 0.27 | 71 | 1017.1 |
| 20260504024630 | 67 | 90 | 6.0 | 12.0 | 0.00 | 0.27 | 0.27 | 75 | 1018.1 |
| 20260504024504 | 75 | 71 | 10.0 | 14.0 | 0.00 | 0.27 | 0.27 | 63 | 1016.6 |
| 20260504024458 | 74 | 78 | 7.0 | 12.0 | 0.00 | 0.27 | 0.27 | 61 | 1016.8 |
| 20260504024453 | 72 | 123 | 8.0 | 12.0 | 0.00 | 0.27 | 0.27 | 64 | 1016.8 |
| 20260504024448 | 69 | 91 | 10.0 | 13.0 | 0.00 | 0.27 | 0.27 | 72 | 1017.1 |
| 20260504024443 | 73 | 78 | 8.0 | 12.0 | 0.00 | 0.27 | 0.27 | 61 | 1016.8 |
| 20260504024436 | 71 | 80 | 10.0 | 14.0 | 0.00 | 0.27 | 0.27 | 63 | 1016.9 |
| 20260504024432 | 67 | 85 | 7.0 | 11.0 | 0.00 | 0.27 | 0.27 | 77 | 1018.2 |
| 20260504024426 | 71 | 0 | 13.0 | 18.0 | 0.00 | 0.27 | 0.27 | 70 | 1017.0 |
| 20260504024301 | 71 | 87 | 12.0 | 15.0 | 0.00 | 0.27 | 0.27 | 64 | 1016.8 |
| 20260504024256 | 71 | 101 | 11.0 | 15.0 | 0.00 | 0.27 | 0.27 | 66 | 1017.0 |
| 20260504024250 | 70 | 76 | 12.0 | 16.0 | 0.00 | 0.27 | 0.27 | 70 | 1017.0 |
| 20260504024245 | 68 | 85 | 10.0 | 14.0 | 0.00 | 0.27 | 0.27 | 73 | 1017.1 |
| 20260504024239 | 67 | 71 | 8.0 | 11.0 | 0.00 | 0.27 | 0.27 | 77 | 1018.4 |
| 20260504024232 | 69 | 0 | 12.0 | 15.0 | 0.00 | 0.27 | 0.27 | 70 | 1017.0 |
| 20260504024227 | 69 | 86 | 10.0 | 14.0 | 0.00 | 0.27 | 0.27 | 71 | 1017.1 |
| 20260504024221 | 68 | 0 | 9.0 | 14.0 | 0.00 | 0.27 | 0.27 | 73 | 1017.3 |
| 20260504024216 | 68 | 77 | 8.0 | 13.0 | 0.00 | 0.27 | 0.27 | 74 | 1017.6 |
| 20260504024210 | 68 | 84 | 9.0 | 12.0 | 0.00 | 0.27 | 0.27 | 74 | 1017.4 |
| 20260504024205 | 74 | 74 | 6.0 | 13.0 | 0.00 | 0.27 | 0.27 | 58 | 1016.8 |
| 20260504024200 | 70 | 91 | 13.0 | 18.0 | 0.00 | 0.27 | 0.27 | 70 | 1017.1 |
| 20260504024155 | 67 | 70 | 8.0 | 12.0 | 0.00 | 0.27 | 0.27 | 75 | 1018.0 |
| 20260504024150 | 68 | 74 | 8.0 | 12.0 | 0.00 | 0.27 | 0.27 | 75 | 1017.8 |
| 20260504024145 | 68 | 78 | 8.0 | 13.0 | 0.00 | 0.27 | 0.27 | 74 | 1017.7 |
| 20260504024140 | 71 | 90 | 13.0 | 18.0 | 0.00 | 0.27 | 0.27 | 69 | 1017.1 |
| 20260504024132 | 70 | 80 | 12.0 | 18.0 | 0.00 | 0.27 | 0.27 | 69 | 1017.1 |
| 20260504024128 | 69 | 0 | 11.0 | 14.0 | 0.00 | 0.27 | 0.27 | 70 | 1017.1 |
| 20260504024123 | 69 | 0 | 9.0 | 14.0 | 0.00 | 0.27 | 0.27 | 71 | 1017.1 |
| 20260504024117 | 67 | 90 | 6.0 | 12.0 | 0.00 | 0.27 | 0.27 | 75 | 1018.1 |
| 20260504023951 | 69 | 91 | 10.0 | 13.0 | 0.00 | 0.27 | 0.27 | 72 | 1017.1 |
| 20260504023947 | 73 | 78 | 8.0 | 12.0 | 0.00 | 0.27 | 0.27 | 61 | 1016.8 |
| 20260504023941 | 72 | 123 | 8.0 | 12.0 | 0.00 | 0.27 | 0.27 | 64 | 1016.8 |
| 20260504023936 | 67 | 85 | 7.0 | 11.0 | 0.00 | 0.27 | 0.27 | 77 | 1018.2 |
| 20260504023807 | 71 | 96 | 10.0 | 14.0 | 0.00 | 0.27 | 0.27 | 63 | 1016.6 |
| 20260504023803 | 71 | 87 | 12.0 | 15.0 | 0.00 | 0.27 | 0.27 | 64 | 1016.8 |
| 20260504023758 | 71 | 0 | 13.0 | 18.0 | 0.00 | 0.27 | 0.27 | 70 | 1017.0 |
| 20260504023752 | 71 | 101 | 11.0 | 15.0 | 0.00 | 0.27 | 0.27 | 66 | 1017.0 |
| 20260504023746 | 70 | 76 | 12.0 | 16.0 | 0.00 | 0.27 | 0.27 | 70 | 1017.0 |
| 20260504023741 | 69 | 0 | 12.0 | 15.0 | 0.00 | 0.27 | 0.27 | 70 | 1017.0 |
| 20260504023737 | 68 | 85 | 10.0 | 14.0 | 0.00 | 0.27 | 0.27 | 73 | 1017.1 |
| 20260504023728 | 69 | 86 | 10.0 | 14.0 | 0.00 | 0.27 | 0.27 | 71 | 1017.1 |
| 20260504023723 | 68 | 0 | 9.0 | 14.0 | 0.00 | 0.27 | 0.27 | 73 | 1017.3 |
| 20260504023719 | 68 | 84 | 9.0 | 12.0 | 0.00 | 0.27 | 0.27 | 74 | 1017.4 |
| 20260504023713 | 68 | 77 | 8.0 | 13.0 | 0.00 | 0.27 | 0.27 | 74 | 1017.6 |
| 20260504023707 | 68 | 78 | 8.0 | 13.0 | 0.00 | 0.27 | 0.27 | 74 | 1017.7 |
| 20260504023702 | 68 | 74 | 8.0 | 12.0 | 0.00 | 0.27 | 0.27 | 75 | 1017.8 |
| 20260504023656 | 67 | 70 | 8.0 | 12.0 | 0.00 | 0.27 | 0.27 | 75 | 1018.0 |
| 20260504023528 | 71 | 90 | 13.0 | 18.0 | 0.00 | 0.27 | 0.27 | 69 | 1017.1 |
| 20260504023522 | 70 | 80 | 12.0 | 18.0 | 0.00 | 0.27 | 0.27 | 69 | 1017.1 |
| 20260504023517 | 69 | 0 | 11.0 | 14.0 | 0.00 | 0.27 | 0.27 | 70 | 1017.1 |
| 20260504023512 | 69 | 0 | 9.0 | 14.0 | 0.00 | 0.27 | 0.27 | 71 | 1017.1 |
| 20260504023507 | 69 | 91 | 10.0 | 13.0 | 0.00 | 0.27 | 0.27 | 72 | 1017.1 |
| 20260504023501 | 67 | 90 | 6.0 | 12.0 | 0.00 | 0.27 | 0.27 | 75 | 1018.1 |
| 20260504023213 | 75 | 76 | 6.0 | 18.0 | 0.00 | 0.27 | 0.27 | 59 | 1016.7 |
| 20260504023208 | 68 | 85 | 10.0 | 14.0 | 0.00 | 0.27 | 0.27 | 73 | 1017.1 |
| 20260504023202 | 68 | 84 | 9.0 | 12.0 | 0.00 | 0.27 | 0.27 | 74 | 1017.4 |
| 20260504023158 | 74 | 61 | 6.0 | 13.0 | 0.00 | 0.27 | 0.27 | 57 | 1016.8 |
| 20260504023152 | 74 | 78 | 7.0 | 12.0 | 0.00 | 0.27 | 0.27 | 61 | 1016.8 |
| 20260504023147 | 74 | 74 | 6.0 | 13.0 | 0.00 | 0.27 | 0.27 | 58 | 1016.8 |
| 20260504023141 | 68 | 78 | 8.0 | 13.0 | 0.00 | 0.27 | 0.27 | 74 | 1017.7 |
| 20260504023136 | 68 | 77 | 8.0 | 13.0 | 0.00 | 0.27 | 0.27 | 74 | 1017.6 |
| 20260504023132 | 74 | 86 | 8.0 | 12.0 | 0.00 | 0.27 | 0.27 | 59 | 1016.8 |
| 20260504023124 | 68 | 0 | 9.0 | 14.0 | 0.00 | 0.27 | 0.27 | 73 | 1017.3 |
| 20260504023119 | 70 | 76 | 12.0 | 16.0 | 0.00 | 0.27 | 0.27 | 70 | 1017.0 |
| 20260504023113 | 69 | 0 | 12.0 | 15.0 | 0.00 | 0.27 | 0.27 | 70 | 1017.0 |
| 20260504023109 | 68 | 74 | 8.0 | 12.0 | 0.00 | 0.27 | 0.27 | 75 | 1017.8 |
| 20260504023104 | 67 | 70 | 8.0 | 12.0 | 0.00 | 0.27 | 0.27 | 75 | 1018.0 |
| 20260504022937 | 72 | 123 | 8.0 | 12.0 | 0.00 | 0.27 | 0.27 | 64 | 1016.8 |
| 20260504022932 | 71 | 80 | 10.0 | 14.0 | 0.00 | 0.27 | 0.27 | 63 | 1016.9 |
| 20260504022925 | 67 | 90 | 6.0 | 12.0 | 0.00 | 0.27 | 0.27 | 75 | 1018.1 |
| 20260504022759 | 71 | 87 | 12.0 | 15.0 | 0.00 | 0.27 | 0.27 | 64 | 1016.8 |
| 20260504022753 | 71 | 0 | 13.0 | 18.0 | 0.00 | 0.27 | 0.27 | 70 | 1017.0 |
| 20260504022749 | 71 | 101 | 11.0 | 15.0 | 0.00 | 0.27 | 0.27 | 66 | 1017.0 |
| 20260504022743 | 70 | 91 | 13.0 | 18.0 | 0.00 | 0.27 | 0.27 | 70 | 1017.1 |
| 20260504022738 | 71 | 90 | 13.0 | 18.0 | 0.00 | 0.27 | 0.27 | 69 | 1017.1 |
| 20260504022733 | 69 | 0 | 9.0 | 14.0 | 0.00 | 0.27 | 0.27 | 71 | 1017.1 |
| 20260504022725 | 69 | 86 | 10.0 | 14.0 | 0.00 | 0.27 | 0.27 | 71 | 1017.1 |
| 20260504022720 | 70 | 80 | 12.0 | 18.0 | 0.00 | 0.27 | 0.27 | 69 | 1017.1 |
| 20260504022714 | 69 | 0 | 11.0 | 14.0 | 0.00 | 0.27 | 0.27 | 70 | 1017.1 |
| 20260504022709 | 69 | 91 | 10.0 | 13.0 | 0.00 | 0.27 | 0.27 | 72 | 1017.1 |
| 20260504022703 | 68 | 85 | 10.0 | 14.0 | 0.00 | 0.27 | 0.27 | 73 | 1017.1 |
| 20260504022659 | 68 | 84 | 9.0 | 12.0 | 0.00 | 0.27 | 0.27 | 74 | 1017.4 |
| 20260504022653 | 68 | 77 | 8.0 | 13.0 | 0.00 | 0.27 | 0.27 | 74 | 1017.6 |
| 20260504022648 | 68 | 0 | 9.0 | 14.0 | 0.00 | 0.27 | 0.27 | 73 | 1017.3 |
| 20260504022642 | 68 | 78 | 8.0 | 13.0 | 0.00 | 0.27 | 0.27 | 74 | 1017.7 |
| 20260504022515 | 70 | 76 | 12.0 | 16.0 | 0.00 | 0.27 | 0.27 | 70 | 1017.0 |
| 20260504022510 | 69 | 0 | 12.0 | 15.0 | 0.00 | 0.27 | 0.27 | 70 | 1017.0 |
| 20260504022505 | 67 | 70 | 8.0 | 12.0 | 0.00 | 0.27 | 0.27 | 75 | 1018.0 |
| 20260504022217 | 69 | 0 | 9.0 | 14.0 | 0.00 | 0.27 | 0.27 | 71 | 1017.1 |
| 20260504022212 | 69 | 86 | 10.0 | 14.0 | 0.00 | 0.27 | 0.27 | 71 | 1017.1 |
| 20260504022206 | 69 | 91 | 10.0 | 13.0 | 0.00 | 0.27 | 0.27 | 72 | 1017.1 |
| 20260504022201 | 68 | 85 | 10.0 | 14.0 | 0.00 | 0.27 | 0.27 | 73 | 1017.1 |
| 20260504022157 | 68 | 0 | 9.0 | 14.0 | 0.00 | 0.27 | 0.27 | 73 | 1017.3 |
| 20260504022151 | 68 | 84 | 9.0 | 12.0 | 0.00 | 0.27 | 0.27 | 74 | 1017.4 |
| 20260504022146 | 68 | 77 | 8.0 | 13.0 | 0.00 | 0.27 | 0.27 | 74 | 1017.6 |
| 20260504022140 | 68 | 78 | 8.0 | 13.0 | 0.00 | 0.27 | 0.27 | 74 | 1017.7 |
| 20260504021607 | 72 | 123 | 8.0 | 12.0 | 0.00 | 0.27 | 0.27 | 64 | 1016.8 |
| 20260504021602 | 71 | 80 | 10.0 | 14.0 | 0.00 | 0.27 | 0.27 | 63 | 1016.9 |
| 20260504021556 | 71 | 96 | 10.0 | 14.0 | 0.00 | 0.27 | 0.27 | 63 | 1016.6 |
| 20260504021551 | 71 | 87 | 12.0 | 15.0 | 0.00 | 0.27 | 0.27 | 64 | 1016.8 |
| 20260504021547 | 68 | 77 | 8.0 | 13.0 | 0.00 | 0.27 | 0.27 | 74 | 1017.6 |
| 20260504021541 | 71 | 0 | 13.0 | 18.0 | 0.00 | 0.27 | 0.27 | 70 | 1017.0 |
| 20260504021536 | 71 | 101 | 11.0 | 15.0 | 0.00 | 0.27 | 0.27 | 66 | 1017.0 |
| 20260504021530 | 70 | 91 | 13.0 | 18.0 | 0.00 | 0.27 | 0.27 | 70 | 1017.1 |
| 20260504021526 | 68 | 78 | 8.0 | 13.0 | 0.00 | 0.27 | 0.27 | 74 | 1017.7 |
| 20260504021359 | 70 | 80 | 12.0 | 18.0 | 0.00 | 0.27 | 0.27 | 69 | 1017.1 |
| 20260504021352 | 70 | 76 | 12.0 | 16.0 | 0.00 | 0.27 | 0.27 | 70 | 1017.0 |
| 20260504021347 | 69 | 0 | 12.0 | 15.0 | 0.00 | 0.27 | 0.27 | 70 | 1017.0 |
| 20260504021343 | 69 | 0 | 9.0 | 14.0 | 0.00 | 0.27 | 0.27 | 71 | 1017.1 |
| 20260504021337 | 69 | 0 | 11.0 | 14.0 | 0.00 | 0.27 | 0.27 | 70 | 1017.1 |
| 20260504021332 | 69 | 86 | 10.0 | 14.0 | 0.00 | 0.27 | 0.27 | 71 | 1017.1 |
| 20260504021326 | 68 | 85 | 10.0 | 14.0 | 0.00 | 0.27 | 0.27 | 73 | 1017.1 |
| 20260504021321 | 69 | 91 | 10.0 | 13.0 | 0.00 | 0.27 | 0.27 | 72 | 1017.1 |
| 20260504021317 | 68 | 0 | 9.0 | 14.0 | 0.00 | 0.27 | 0.27 | 73 | 1017.3 |
| 20260504021311 | 68 | 84 | 9.0 | 12.0 | 0.00 | 0.27 | 0.27 | 74 | 1017.4 |
| 20260504021304 | 75 | 78 | 8.0 | 15.0 | 0.00 | 0.27 | 0.27 | 57 | 1016.7 |
| 20260504021259 | 68 | 74 | 8.0 | 12.0 | 0.00 | 0.27 | 0.27 | 75 | 1017.8 |
| 20260504021251 | 67 | 70 | 8.0 | 12.0 | 0.00 | 0.27 | 0.27 | 75 | 1018.0 |
| 20260504021128 | 75 | 71 | 10.0 | 14.0 | 0.00 | 0.27 | 0.27 | 63 | 1016.6 |
| 20260504021123 | 75 | 76 | 6.0 | 18.0 | 0.00 | 0.27 | 0.27 | 59 | 1016.7 |
| 20260504021117 | 74 | 78 | 7.0 | 12.0 | 0.00 | 0.27 | 0.27 | 61 | 1016.8 |
| 20260504021113 | 74 | 86 | 8.0 | 12.0 | 0.00 | 0.27 | 0.27 | 59 | 1016.8 |
| 20260504021105 | 68 | 77 | 8.0 | 13.0 | 0.00 | 0.27 | 0.27 | 74 | 1017.6 |
| 20260504021100 | 74 | 74 | 6.0 | 13.0 | 0.00 | 0.27 | 0.27 | 58 | 1016.8 |
| 20260504021055 | 73 | 78 | 8.0 | 12.0 | 0.00 | 0.27 | 0.27 | 61 | 1016.8 |
| 20260504021049 | 72 | 123 | 8.0 | 12.0 | 0.00 | 0.27 | 0.27 | 64 | 1016.8 |
| 20260504021044 | 71 | 80 | 10.0 | 14.0 | 0.00 | 0.27 | 0.27 | 63 | 1016.9 |
| 20260504021038 | 71 | 96 | 10.0 | 14.0 | 0.00 | 0.27 | 0.27 | 63 | 1016.6 |
| 20260504021033 | 71 | 87 | 12.0 | 15.0 | 0.00 | 0.27 | 0.27 | 64 | 1016.8 |
| 20260504021029 | 71 | 0 | 13.0 | 18.0 | 0.00 | 0.27 | 0.27 | 70 | 1017.0 |
| 20260504021023 | 71 | 101 | 11.0 | 15.0 | 0.00 | 0.27 | 0.27 | 66 | 1017.0 |
| 20260504021019 | 68 | 78 | 8.0 | 13.0 | 0.00 | 0.27 | 0.27 | 74 | 1017.7 |
| 20260504020849 | 71 | 90 | 13.0 | 18.0 | 0.00 | 0.27 | 0.27 | 69 | 1017.1 |
| 20260504020843 | 70 | 80 | 12.0 | 18.0 | 0.00 | 0.27 | 0.27 | 69 | 1017.1 |
| 20260504020838 | 70 | 76 | 12.0 | 16.0 | 0.00 | 0.27 | 0.27 | 70 | 1017.0 |
| 20260504020832 | 69 | 0 | 12.0 | 15.0 | 0.00 | 0.27 | 0.27 | 70 | 1017.0 |
| 20260504020826 | 69 | 0 | 11.0 | 14.0 | 0.00 | 0.27 | 0.27 | 70 | 1017.1 |
| 20260504020821 | 69 | 0 | 9.0 | 14.0 | 0.00 | 0.27 | 0.27 | 71 | 1017.1 |
| 20260504020815 | 69 | 86 | 10.0 | 14.0 | 0.00 | 0.27 | 0.27 | 71 | 1017.1 |
| 20260504020811 | 69 | 91 | 10.0 | 13.0 | 0.00 | 0.27 | 0.27 | 72 | 1017.1 |
| 20260504020806 | 68 | 85 | 10.0 | 14.0 | 0.00 | 0.27 | 0.27 | 73 | 1017.1 |
| 20260504020759 | 68 | 0 | 9.0 | 14.0 | 0.00 | 0.27 | 0.27 | 73 | 1017.3 |
| 20260504020753 | 68 | 74 | 8.0 | 12.0 | 0.00 | 0.27 | 0.27 | 75 | 1017.8 |
| 20260504020749 | 68 | 84 | 9.0 | 12.0 | 0.00 | 0.27 | 0.27 | 74 | 1017.4 |
| 20260504020500 | 74 | 74 | 6.0 | 13.0 | 0.00 | 0.27 | 0.27 | 58 | 1016.8 |
| 20260504020453 | 73 | 78 | 8.0 | 12.0 | 0.00 | 0.27 | 0.27 | 61 | 1016.8 |
| 20260504020448 | 72 | 123 | 8.0 | 12.0 | 0.00 | 0.27 | 0.27 | 64 | 1016.8 |
| 20260504020442 | 71 | 80 | 10.0 | 14.0 | 0.00 | 0.27 | 0.27 | 63 | 1016.9 |
| 20260504020437 | 71 | 96 | 10.0 | 14.0 | 0.00 | 0.27 | 0.27 | 63 | 1016.6 |
| 20260504020433 | 68 | 78 | 8.0 | 13.0 | 0.00 | 0.27 | 0.27 | 74 | 1017.7 |
| 20260504020306 | 71 | 0 | 13.0 | 18.0 | 0.00 | 0.27 | 0.27 | 70 | 1017.0 |
| 20260504020301 | 71 | 101 | 11.0 | 15.0 | 0.00 | 0.27 | 0.27 | 66 | 1017.0 |
| 20260504020255 | 68 | 0 | 9.0 | 14.0 | 0.00 | 0.27 | 0.27 | 73 | 1017.3 |
| 20260504020248 | 70 | 91 | 13.0 | 18.0 | 0.00 | 0.27 | 0.27 | 70 | 1017.1 |
| 20260504020243 | 68 | 74 | 8.0 | 12.0 | 0.00 | 0.27 | 0.27 | 75 | 1017.8 |
| 20260504020118 | 69 | 0 | 12.0 | 15.0 | 0.00 | 0.27 | 0.27 | 70 | 1017.0 |
| 20260504020112 | 71 | 90 | 13.0 | 18.0 | 0.00 | 0.27 | 0.27 | 69 | 1017.1 |
| 20260504020107 | 70 | 76 | 12.0 | 16.0 | 0.00 | 0.27 | 0.27 | 70 | 1017.0 |
| 20260504020057 | 69 | 86 | 10.0 | 14.0 | 0.00 | 0.27 | 0.27 | 71 | 1017.1 |
| 20260504020050 | 69 | 0 | 9.0 | 14.0 | 0.00 | 0.27 | 0.27 | 71 | 1017.1 |
| 20260504020046 | 69 | 91 | 10.0 | 13.0 | 0.00 | 0.27 | 0.27 | 72 | 1017.1 |
| 20260504020040 | 68 | 84 | 9.0 | 12.0 | 0.00 | 0.27 | 0.27 | 74 | 1017.4 |
| 20260504020035 | 68 | 85 | 10.0 | 14.0 | 0.00 | 0.27 | 0.27 | 73 | 1017.1 |
| 20260504020029 | 68 | 77 | 8.0 | 13.0 | 0.00 | 0.27 | 0.27 | 74 | 1017.6 |
| 20260504015619 | 70 | 76 | 12.0 | 16.0 | 0.00 | 0.27 | 0.27 | 70 | 1017.0 |
| 20260504015613 | 69 | 0 | 12.0 | 15.0 | 0.00 | 0.27 | 0.27 | 70 | 1017.0 |
| 20260504015608 | 69 | 86 | 10.0 | 14.0 | 0.00 | 0.27 | 0.27 | 71 | 1017.1 |
| 20260504015602 | 68 | 84 | 9.0 | 12.0 | 0.00 | 0.27 | 0.27 | 74 | 1017.4 |
| 20260504015435 | 68 | 77 | 8.0 | 13.0 | 0.00 | 0.27 | 0.27 | 74 | 1017.6 |
| 20260504015301 | 68 | 78 | 8.0 | 13.0 | 0.00 | 0.27 | 0.27 | 74 | 1017.7 |
| 20260504015145 | 69 | 0 | 9.0 | 14.0 | 0.00 | 0.27 | 0.27 | 71 | 1017.1 |
| 20260504015137 | 68 | 85 | 10.0 | 14.0 | 0.00 | 0.27 | 0.27 | 73 | 1017.1 |
| 20260504015131 | 68 | 0 | 9.0 | 14.0 | 0.00 | 0.27 | 0.27 | 73 | 1017.3 |
| 20260504014845 | 69 | 91 | 10.0 | 13.0 | 0.00 | 0.27 | 0.27 | 72 | 1017.1 |
| 20260504014840 | 68 | 77 | 8.0 | 13.0 | 0.00 | 0.27 | 0.27 | 74 | 1017.6 |
| 20260504014712 | 70 | 76 | 12.0 | 16.0 | 0.00 | 0.27 | 0.27 | 70 | 1017.0 |
| 20260504014707 | 69 | 0 | 12.0 | 15.0 | 0.00 | 0.27 | 0.27 | 70 | 1017.0 |
| 20260504014703 | 69 | 0 | 11.0 | 14.0 | 0.00 | 0.27 | 0.27 | 70 | 1017.1 |
| 20260504014534 | 68 | 85 | 10.0 | 14.0 | 0.00 | 0.27 | 0.27 | 73 | 1017.1 |
| 20260504014407 | 68 | 84 | 9.0 | 12.0 | 0.00 | 0.27 | 0.27 | 74 | 1017.4 |
| 20260504014402 | 74 | 61 | 6.0 | 13.0 | 0.00 | 0.27 | 0.27 | 57 | 1016.8 |
| 20260504014357 | 74 | 78 | 7.0 | 12.0 | 0.00 | 0.27 | 0.27 | 61 | 1016.8 |
| 20260504014351 | 74 | 86 | 8.0 | 12.0 | 0.00 | 0.27 | 0.27 | 59 | 1016.8 |
| 20260504014347 | 74 | 74 | 6.0 | 13.0 | 0.00 | 0.27 | 0.27 | 58 | 1016.8 |
| 20260504014341 | 73 | 78 | 8.0 | 12.0 | 0.00 | 0.27 | 0.27 | 61 | 1016.8 |
| 20260504014337 | 72 | 123 | 8.0 | 12.0 | 0.00 | 0.27 | 0.27 | 64 | 1016.8 |
| 20260504014329 | 71 | 0 | 13.0 | 18.0 | 0.00 | 0.27 | 0.27 | 70 | 1017.0 |
| 20260504014323 | 71 | 90 | 13.0 | 18.0 | 0.00 | 0.27 | 0.27 | 69 | 1017.1 |
| 20260504014319 | 70 | 91 | 13.0 | 18.0 | 0.00 | 0.27 | 0.27 | 70 | 1017.1 |
| 20260504014313 | 69 | 86 | 10.0 | 14.0 | 0.00 | 0.27 | 0.27 | 71 | 1017.1 |
| 20260504014308 | 69 | 91 | 10.0 | 13.0 | 0.00 | 0.27 | 0.27 | 72 | 1017.1 |
| 20260504014257 | 68 | 77 | 8.0 | 13.0 | 0.00 | 0.27 | 0.27 | 74 | 1017.6 |
| 20260504014016 | 71 | 87 | 12.0 | 15.0 | 0.00 | 0.27 | 0.27 | 64 | 1016.8 |
| 20260504014010 | 70 | 80 | 12.0 | 18.0 | 0.00 | 0.27 | 0.27 | 69 | 1017.1 |
| 20260504014005 | 71 | 101 | 11.0 | 15.0 | 0.00 | 0.27 | 0.27 | 66 | 1017.0 |
| 20260504013959 | 68 | 85 | 10.0 | 14.0 | 0.00 | 0.27 | 0.27 | 73 | 1017.1 |
| 20260504013954 | 70 | 76 | 12.0 | 16.0 | 0.00 | 0.27 | 0.27 | 70 | 1017.0 |
| 20260504013948 | 69 | 0 | 12.0 | 15.0 | 0.00 | 0.27 | 0.27 | 70 | 1017.0 |
| 20260504013943 | 69 | 0 | 11.0 | 14.0 | 0.00 | 0.27 | 0.27 | 70 | 1017.1 |
| 20260504013937 | 69 | 0 | 9.0 | 14.0 | 0.00 | 0.27 | 0.27 | 71 | 1017.1 |
| 20260504013933 | 68 | 0 | 9.0 | 14.0 | 0.00 | 0.27 | 0.27 | 73 | 1017.3 |
| 20260504013928 | 68 | 84 | 9.0 | 12.0 | 0.00 | 0.27 | 0.27 | 74 | 1017.4 |
| 20260504013638 | 69 | 86 | 10.0 | 14.0 | 0.00 | 0.27 | 0.27 | 71 | 1017.1 |
| 20260504013632 | 70 | 91 | 13.0 | 18.0 | 0.00 | 0.27 | 0.27 | 70 | 1017.1 |
| 20260504013627 | 69 | 91 | 10.0 | 13.0 | 0.00 | 0.27 | 0.27 | 72 | 1017.1 |
| 20260504013458 | 70 | 80 | 12.0 | 18.0 | 0.00 | 0.27 | 0.27 | 69 | 1017.1 |
| 20260504013332 | 69 | 0 | 12.0 | 15.0 | 0.00 | 0.27 | 0.27 | 70 | 1017.0 |
| 20260504013326 | 69 | 0 | 11.0 | 14.0 | 0.00 | 0.27 | 0.27 | 70 | 1017.1 |
| 20260504013321 | 69 | 0 | 9.0 | 14.0 | 0.00 | 0.27 | 0.27 | 71 | 1017.1 |
| 20260504013315 | 68 | 0 | 9.0 | 14.0 | 0.00 | 0.27 | 0.27 | 73 | 1017.3 |
| 20260504013302 | 68 | 84 | 9.0 | 12.0 | 0.00 | 0.27 | 0.27 | 74 | 1017.4 |
| 20260504013022 | 69 | 91 | 10.0 | 13.0 | 0.00 | 0.27 | 0.27 | 72 | 1017.1 |
| 20260504013015 | 68 | 85 | 10.0 | 14.0 | 0.00 | 0.27 | 0.27 | 73 | 1017.1 |
| 20260504012850 | 74 | 78 | 7.0 | 12.0 | 0.00 | 0.27 | 0.27 | 61 | 1016.8 |
| 20260504012844 | 74 | 86 | 8.0 | 12.0 | 0.00 | 0.27 | 0.27 | 59 | 1016.8 |
| 20260504012839 | 74 | 74 | 6.0 | 13.0 | 0.00 | 0.27 | 0.27 | 58 | 1016.8 |
| 20260504012833 | 73 | 78 | 8.0 | 12.0 | 0.00 | 0.27 | 0.27 | 61 | 1016.8 |
| 20260504012829 | 72 | 123 | 8.0 | 12.0 | 0.00 | 0.27 | 0.27 | 64 | 1016.8 |
| 20260504012824 | 71 | 80 | 10.0 | 14.0 | 0.00 | 0.27 | 0.27 | 63 | 1016.9 |
| 20260504012818 | 71 | 96 | 10.0 | 14.0 | 0.00 | 0.27 | 0.27 | 63 | 1016.6 |
| 20260504012811 | 71 | 87 | 12.0 | 15.0 | 0.00 | 0.27 | 0.27 | 64 | 1016.8 |
| 20260504012805 | 71 | 101 | 11.0 | 15.0 | 0.00 | 0.27 | 0.27 | 66 | 1017.0 |
| 20260504012759 | 71 | 0 | 13.0 | 18.0 | 0.00 | 0.27 | 0.27 | 70 | 1017.0 |
| 20260504012754 | 71 | 90 | 13.0 | 18.0 | 0.00 | 0.27 | 0.27 | 69 | 1017.1 |
| 20260504012748 | 70 | 91 | 13.0 | 18.0 | 0.00 | 0.27 | 0.27 | 70 | 1017.1 |
| 20260504012743 | 70 | 80 | 12.0 | 18.0 | 0.00 | 0.27 | 0.27 | 69 | 1017.1 |
| 20260504012738 | 70 | 76 | 12.0 | 16.0 | 0.00 | 0.27 | 0.27 | 70 | 1017.0 |
| 20260504012733 | 69 | 0 | 12.0 | 15.0 | 0.00 | 0.27 | 0.27 | 70 | 1017.0 |
| 20260504012727 | 69 | 0 | 11.0 | 14.0 | 0.00 | 0.27 | 0.27 | 70 | 1017.1 |
| 20260504012723 | 69 | 0 | 9.0 | 14.0 | 0.00 | 0.27 | 0.27 | 71 | 1017.1 |
| 20260504012717 | 68 | 0 | 9.0 | 14.0 | 0.00 | 0.27 | 0.27 | 73 | 1017.3 |
| 20260504012429 | 75 | 71 | 10.0 | 14.0 | 0.00 | 0.27 | 0.27 | 63 | 1016.6 |
| 20260504012425 | 69 | 91 | 10.0 | 13.0 | 0.00 | 0.27 | 0.27 | 72 | 1017.1 |
| 20260504012420 | 74 | 61 | 6.0 | 13.0 | 0.00 | 0.27 | 0.27 | 57 | 1016.8 |
| 20260504012414 | 68 | 85 | 10.0 | 14.0 | 0.00 | 0.27 | 0.27 | 73 | 1017.1 |
| 20260504012247 | 71 | 101 | 11.0 | 15.0 | 0.00 | 0.27 | 0.27 | 66 | 1017.0 |
| 20260504012241 | 71 | 87 | 12.0 | 15.0 | 0.00 | 0.27 | 0.27 | 64 | 1016.8 |
| 20260504012237 | 71 | 0 | 13.0 | 18.0 | 0.00 | 0.27 | 0.27 | 70 | 1017.0 |
| 20260504012231 | 68 | 0 | 9.0 | 14.0 | 0.00 | 0.27 | 0.27 | 73 | 1017.3 |
| 20260504012226 | 74 | 86 | 8.0 | 12.0 | 0.00 | 0.27 | 0.27 | 59 | 1016.8 |
| 20260504012220 | 71 | 90 | 13.0 | 18.0 | 0.00 | 0.27 | 0.27 | 69 | 1017.1 |
| 20260504012214 | 74 | 74 | 6.0 | 13.0 | 0.00 | 0.27 | 0.27 | 58 | 1016.8 |
| 20260504012209 | 70 | 91 | 13.0 | 18.0 | 0.00 | 0.27 | 0.27 | 70 | 1017.1 |
| 20260504012202 | 69 | 0 | 9.0 | 14.0 | 0.00 | 0.27 | 0.27 | 71 | 1017.1 |
| 20260504012157 | 73 | 78 | 8.0 | 12.0 | 0.00 | 0.27 | 0.27 | 61 | 1016.8 |
| 20260504012151 | 69 | 0 | 11.0 | 14.0 | 0.00 | 0.27 | 0.27 | 70 | 1017.1 |
| 20260504012146 | 72 | 123 | 8.0 | 12.0 | 0.00 | 0.27 | 0.27 | 64 | 1016.8 |
| 20260504012141 | 71 | 80 | 10.0 | 14.0 | 0.00 | 0.27 | 0.27 | 63 | 1016.9 |
| 20260504012014 | 69 | 86 | 10.0 | 14.0 | 0.00 | 0.27 | 0.27 | 71 | 1017.1 |
| 20260504012008 | 70 | 80 | 12.0 | 18.0 | 0.00 | 0.27 | 0.27 | 69 | 1017.1 |
| 20260504012001 | 76 | 0 | 9.0 | 15.0 | 0.00 | 0.08 | 0.06 | 67 | 1019.2 |
| 20260504011957 | 71 | 96 | 10.0 | 14.0 | 0.00 | 0.27 | 0.27 | 63 | 1016.6 |
| 20260504011952 | 75 | 96 | 11.0 | 18.0 | 0.00 | 0.27 | 0.27 | 63 | 1016.8 |
| 20260504011946 | 69 | 91 | 10.0 | 13.0 | 0.00 | 0.27 | 0.27 | 72 | 1017.1 |
| 20260504011941 | 69 | 0 | 12.0 | 15.0 | 0.00 | 0.27 | 0.27 | 70 | 1017.0 |
| 20260504011935 | 75 | 76 | 6.0 | 18.0 | 0.00 | 0.27 | 0.27 | 59 | 1016.7 |
| 20260504011810 | 68 | 85 | 10.0 | 14.0 | 0.00 | 0.27 | 0.27 | 73 | 1017.1 |
| 20260504011805 | 75 | 85 | 7.0 | 14.0 | 0.00 | 0.27 | 0.27 | 63 | 1016.6 |
| 20260504011758 | 75 | 71 | 10.0 | 14.0 | 0.00 | 0.27 | 0.27 | 63 | 1016.6 |
| 20260504011752 | 74 | 61 | 6.0 | 13.0 | 0.00 | 0.27 | 0.27 | 57 | 1016.8 |
| 20260504011747 | 74 | 78 | 7.0 | 12.0 | 0.00 | 0.27 | 0.27 | 61 | 1016.8 |
| 20260504011741 | 71 | 87 | 12.0 | 15.0 | 0.00 | 0.27 | 0.27 | 64 | 1016.8 |
| 20260504011737 | 74 | 86 | 8.0 | 12.0 | 0.00 | 0.27 | 0.27 | 59 | 1016.8 |
| 20260504011732 | 71 | 101 | 11.0 | 15.0 | 0.00 | 0.27 | 0.27 | 66 | 1017.0 |
| 20260504011726 | 71 | 0 | 13.0 | 18.0 | 0.00 | 0.27 | 0.27 | 70 | 1017.0 |
| 20260504011721 | 71 | 90 | 13.0 | 18.0 | 0.00 | 0.27 | 0.27 | 69 | 1017.1 |
| 20260504011715 | 70 | 91 | 13.0 | 18.0 | 0.00 | 0.27 | 0.27 | 70 | 1017.1 |
| 20260504011711 | 69 | 0 | 11.0 | 14.0 | 0.00 | 0.27 | 0.27 | 70 | 1017.1 |
| 20260504011705 | 69 | 0 | 9.0 | 14.0 | 0.00 | 0.27 | 0.27 | 71 | 1017.1 |
| 20260504011536 | 73 | 78 | 8.0 | 12.0 | 0.00 | 0.27 | 0.27 | 61 | 1016.8 |
| 20260504011531 | 72 | 123 | 8.0 | 12.0 | 0.00 | 0.27 | 0.27 | 64 | 1016.8 |
| 20260504011527 | 71 | 80 | 10.0 | 14.0 | 0.00 | 0.27 | 0.27 | 63 | 1016.9 |
| 20260504011521 | 71 | 96 | 10.0 | 14.0 | 0.00 | 0.27 | 0.27 | 63 | 1016.6 |
| 20260504011516 | 70 | 76 | 12.0 | 16.0 | 0.00 | 0.27 | 0.27 | 70 | 1017.0 |
| 20260504011510 | 70 | 80 | 12.0 | 18.0 | 0.00 | 0.27 | 0.27 | 69 | 1017.1 |
| 20260504011505 | 69 | 0 | 12.0 | 15.0 | 0.00 | 0.27 | 0.27 | 70 | 1017.0 |
| 20260504011458 | 69 | 86 | 10.0 | 14.0 | 0.00 | 0.27 | 0.27 | 71 | 1017.1 |
| 20260504011454 | 69 | 91 | 10.0 | 13.0 | 0.00 | 0.27 | 0.27 | 72 | 1017.1 |
| 20260504011206 | 71 | 101 | 11.0 | 15.0 | 0.00 | 0.27 | 0.27 | 66 | 1017.0 |
| 20260504011200 | 71 | 0 | 13.0 | 18.0 | 0.00 | 0.27 | 0.27 | 70 | 1017.0 |
| 20260504011153 | 71 | 90 | 13.0 | 18.0 | 0.00 | 0.27 | 0.27 | 69 | 1017.1 |
| 20260504011147 | 70 | 91 | 13.0 | 18.0 | 0.00 | 0.27 | 0.27 | 70 | 1017.1 |
| 20260504011143 | 69 | 0 | 11.0 | 14.0 | 0.00 | 0.27 | 0.27 | 70 | 1017.1 |
| 20260504011138 | 69 | 0 | 9.0 | 14.0 | 0.00 | 0.27 | 0.27 | 71 | 1017.1 |
| 20260504011012 | 75 | 85 | 7.0 | 14.0 | 0.00 | 0.27 | 0.27 | 63 | 1016.6 |
| 20260504011006 | 70 | 80 | 12.0 | 18.0 | 0.00 | 0.27 | 0.27 | 69 | 1017.1 |
| 20260504011002 | 70 | 76 | 12.0 | 16.0 | 0.00 | 0.27 | 0.27 | 70 | 1017.0 |
| 20260504010956 | 69 | 0 | 12.0 | 15.0 | 0.00 | 0.27 | 0.27 | 70 | 1017.0 |
| 20260504010827 | 74 | 78 | 7.0 | 12.0 | 0.00 | 0.27 | 0.27 | 61 | 1016.8 |
| 20260504010822 | 74 | 86 | 8.0 | 12.0 | 0.00 | 0.27 | 0.27 | 59 | 1016.8 |
| 20260504010816 | 69 | 86 | 10.0 | 14.0 | 0.00 | 0.27 | 0.27 | 71 | 1017.1 |
| 20260504010811 | 69 | 91 | 10.0 | 13.0 | 0.00 | 0.27 | 0.27 | 72 | 1017.1 |
| 20260504010643 | 73 | 78 | 8.0 | 12.0 | 0.00 | 0.27 | 0.27 | 61 | 1016.8 |
| 20260504010639 | 72 | 123 | 8.0 | 12.0 | 0.00 | 0.27 | 0.27 | 64 | 1016.8 |
| 20260504010634 | 71 | 80 | 10.0 | 14.0 | 0.00 | 0.27 | 0.27 | 63 | 1016.9 |
| 20260504010628 | 71 | 96 | 10.0 | 14.0 | 0.00 | 0.27 | 0.27 | 63 | 1016.6 |
| 20260504010624 | 71 | 87 | 12.0 | 15.0 | 0.00 | 0.27 | 0.27 | 64 | 1016.8 |
| 20260504010618 | 71 | 101 | 11.0 | 15.0 | 0.00 | 0.27 | 0.27 | 66 | 1017.0 |
| 20260504010613 | 71 | 0 | 13.0 | 18.0 | 0.00 | 0.27 | 0.27 | 70 | 1017.0 |
| 20260504010609 | 71 | 90 | 13.0 | 18.0 | 0.00 | 0.27 | 0.27 | 69 | 1017.1 |
| 20260504010603 | 70 | 91 | 13.0 | 18.0 | 0.00 | 0.27 | 0.27 | 70 | 1017.1 |
| 20260504010558 | 69 | 0 | 11.0 | 14.0 | 0.00 | 0.27 | 0.27 | 70 | 1017.1 |
| 20260504010552 | 69 | 0 | 9.0 | 14.0 | 0.00 | 0.27 | 0.27 | 71 | 1017.1 |
| 20260504010425 | 70 | 76 | 12.0 | 16.0 | 0.00 | 0.27 | 0.27 | 70 | 1017.0 |
| 20260504010419 | 69 | 0 | 12.0 | 15.0 | 0.00 | 0.27 | 0.27 | 70 | 1017.0 |
| 20260504010252 | 76 | 25 | 9.0 | 15.0 | 0.00 | 0.08 | 0.06 | 68 | 1019.2 |
| 20260504010247 | 75 | 71 | 10.0 | 14.0 | 0.00 | 0.27 | 0.27 | 63 | 1016.6 |
| 20260504010240 | 75 | 78 | 8.0 | 15.0 | 0.00 | 0.27 | 0.27 | 57 | 1016.7 |
| 20260504010234 | 69 | 91 | 10.0 | 13.0 | 0.00 | 0.27 | 0.27 | 72 | 1017.1 |
| 20260504010109 | 76 | 14 | 10.0 | 15.0 | 0.00 | 0.08 | 0.06 | 70 | 1019.3 |
| 20260504010058 | 75 | 85 | 7.0 | 14.0 | 0.00 | 0.27 | 0.27 | 63 | 1016.6 |
| 20260504010052 | 75 | 76 | 6.0 | 18.0 | 0.00 | 0.27 | 0.27 | 59 | 1016.7 |
| 20260504010047 | 74 | 61 | 6.0 | 13.0 | 0.00 | 0.27 | 0.27 | 57 | 1016.8 |
| 20260504010039 | 75 | 0 | 9.0 | 15.0 | 0.00 | 0.08 | 0.06 | 69 | 1019.3 |
| 20260504010034 | 74 | 78 | 7.0 | 12.0 | 0.00 | 0.27 | 0.27 | 61 | 1016.8 |
| 20260504010029 | 74 | 74 | 6.0 | 13.0 | 0.00 | 0.27 | 0.27 | 58 | 1016.8 |
| 20260504010023 | 74 | 86 | 8.0 | 12.0 | 0.00 | 0.27 | 0.27 | 59 | 1016.8 |
| 20260504010019 | 72 | 123 | 8.0 | 12.0 | 0.00 | 0.27 | 0.27 | 64 | 1016.8 |
| 20260504010013 | 75 | 28 | 10.0 | 15.0 | 0.00 | 0.08 | 0.06 | 73 | 1019.3 |
| 20260504010009 | 73 | 78 | 8.0 | 12.0 | 0.00 | 0.27 | 0.27 | 61 | 1016.8 |
| 20260504010004 | 69 | 0 | 11.0 | 14.0 | 0.00 | 0.27 | 0.27 | 70 | 1017.1 |
| 20260504005958 | 69 | 0 | 9.0 | 14.0 | 0.00 | 0.27 | 0.27 | 71 | 1017.1 |
| 20260504005953 | 75 | 0 | 10.0 | 14.0 | 0.00 | 0.08 | 0.06 | 72 | 1019.2 |
| 20260504005947 | 75 | 12 | 9.0 | 14.0 | 0.00 | 0.08 | 0.06 | 76 | 1019.2 |
| 20260504005940 | 75 | 22 | 10.0 | 14.0 | 0.00 | 0.08 | 0.06 | 74 | 1019.2 |
| 20260504005936 | 74 | 17 | 9.0 | 12.0 | 0.00 | 0.08 | 0.06 | 77 | 1019.1 |
| 20260504005931 | 74 | 0 | 8.0 | 13.0 | 0.00 | 0.08 | 0.06 | 75 | 1019.2 |
| 20260504005926 | 73 | 19 | 8.0 | 12.0 | 0.00 | 0.08 | 0.06 | 76 | 1019.2 |
| 20260504005920 | 73 | 26 | 9.0 | 12.0 | 0.00 | 0.08 | 0.06 | 77 | 1019.2 |
| 20260504005915 | 72 | 23 | 8.0 | 14.0 | 0.00 | 0.08 | 0.06 | 80 | 1019.3 |
| 20260504005909 | 71 | 80 | 10.0 | 14.0 | 0.00 | 0.27 | 0.27 | 63 | 1016.9 |
| 20260504005904 | 71 | 96 | 10.0 | 14.0 | 0.00 | 0.27 | 0.27 | 63 | 1016.6 |
| 20260504005858 | 71 | 87 | 12.0 | 15.0 | 0.00 | 0.27 | 0.27 | 64 | 1016.8 |
| 20260504005853 | 71 | 17 | 9.0 | 14.0 | 0.00 | 0.09 | 0.06 | 80 | 1019.2 |
| 20260504005847 | 71 | 101 | 11.0 | 15.0 | 0.00 | 0.27 | 0.27 | 66 | 1017.0 |
| 20260504005843 | 71 | 0 | 13.0 | 18.0 | 0.00 | 0.27 | 0.27 | 70 | 1017.0 |
| 20260504005835 | 71 | 90 | 13.0 | 18.0 | 0.00 | 0.27 | 0.27 | 69 | 1017.1 |
| 20260504005830 | 70 | 91 | 13.0 | 18.0 | 0.00 | 0.27 | 0.27 | 70 | 1017.1 |
| 20260504005825 | 70 | 80 | 12.0 | 18.0 | 0.00 | 0.27 | 0.27 | 69 | 1017.1 |
| 20260504005820 | 70 | 76 | 12.0 | 16.0 | 0.00 | 0.27 | 0.27 | 70 | 1017.0 |
| 20260504005814 | 69 | 0 | 12.0 | 15.0 | 0.00 | 0.27 | 0.27 | 70 | 1017.0 |
| 20260504005809 | 69 | 86 | 10.0 | 14.0 | 0.00 | 0.27 | 0.27 | 71 | 1017.1 |
| 20260504005643 | 69 | 21 | 10.0 | 14.0 | 0.00 | 0.09 | 0.06 | 83 | 1019.0 |
| 20260504005637 | 68 | 18 | 9.0 | 15.0 | 0.00 | 0.09 | 0.06 | 83 | 1018.9 |
| 20260504005630 | 68 | 32 | 9.0 | 15.0 | 0.00 | 0.09 | 0.06 | 84 | 1018.7 |
| 20260504005626 | 67 | 350 | 10.0 | 13.0 | 0.06 | 0.09 | 0.06 | 86 | 1018.7 |
| 20260504005621 | 76 | 101 | 11.0 | 15.0 | 0.00 | 0.27 | 0.27 | 63 | 1016.7 |
| 20260504005615 | 75 | 96 | 11.0 | 18.0 | 0.00 | 0.27 | 0.27 | 63 | 1016.8 |
| 20260504005611 | 75 | 76 | 6.0 | 18.0 | 0.00 | 0.27 | 0.27 | 59 | 1016.7 |
| 20260504005605 | 75 | 71 | 10.0 | 14.0 | 0.00 | 0.27 | 0.27 | 63 | 1016.6 |
| 20260504005600 | 75 | 78 | 8.0 | 15.0 | 0.00 | 0.27 | 0.27 | 57 | 1016.7 |
| 20260504005554 | 75 | 85 | 7.0 | 14.0 | 0.00 | 0.27 | 0.27 | 63 | 1016.6 |
| 20260504005549 | 74 | 61 | 6.0 | 13.0 | 0.00 | 0.27 | 0.27 | 57 | 1016.8 |
| 20260504005543 | 74 | 78 | 7.0 | 12.0 | 0.00 | 0.27 | 0.27 | 61 | 1016.8 |
| 20260504005539 | 74 | 86 | 8.0 | 12.0 | 0.00 | 0.27 | 0.27 | 59 | 1016.8 |
| 20260504005531 | 74 | 74 | 6.0 | 13.0 | 0.00 | 0.27 | 0.27 | 58 | 1016.8 |
| 20260504005525 | 73 | 78 | 8.0 | 12.0 | 0.00 | 0.27 | 0.27 | 61 | 1016.8 |
| 20260504005519 | 72 | 123 | 8.0 | 12.0 | 0.00 | 0.27 | 0.27 | 64 | 1016.8 |
| 20260504005515 | 69 | 0 | 11.0 | 14.0 | 0.00 | 0.27 | 0.27 | 70 | 1017.1 |
| 20260504005510 | 69 | 0 | 9.0 | 14.0 | 0.00 | 0.27 | 0.27 | 71 | 1017.1 |
| 20260504005343 | 71 | 96 | 10.0 | 14.0 | 0.00 | 0.27 | 0.27 | 63 | 1016.6 |
| 20260504005338 | 71 | 87 | 12.0 | 15.0 | 0.00 | 0.27 | 0.27 | 64 | 1016.8 |
| 20260504005333 | 71 | 101 | 11.0 | 15.0 | 0.00 | 0.27 | 0.27 | 66 | 1017.0 |
| 20260504005325 | 71 | 0 | 13.0 | 18.0 | 0.00 | 0.27 | 0.27 | 70 | 1017.0 |
| 20260504005320 | 71 | 90 | 13.0 | 18.0 | 0.00 | 0.27 | 0.27 | 69 | 1017.1 |
| 20260504005315 | 70 | 91 | 13.0 | 18.0 | 0.00 | 0.27 | 0.27 | 70 | 1017.1 |
| 20260504005304 | 69 | 86 | 10.0 | 14.0 | 0.00 | 0.27 | 0.27 | 71 | 1017.1 |
| 20260504005227 | 70 | 80 | 12.0 | 18.0 | 0.00 | 0.27 | 0.27 | 69 | 1017.1 |
| 20260504005222 | 70 | 76 | 12.0 | 16.0 | 0.00 | 0.27 | 0.27 | 70 | 1017.0 |
| 20260504005216 | 69 | 0 | 12.0 | 15.0 | 0.00 | 0.27 | 0.27 | 70 | 1017.0 |
| 20260504004731 | 74 | 61 | 6.0 | 13.0 | 0.00 | 0.27 | 0.27 | 57 | 1016.8 |
| 20260504004723 | 74 | 78 | 7.0 | 12.0 | 0.00 | 0.27 | 0.27 | 61 | 1016.8 |
| 20260504004717 | 74 | 86 | 8.0 | 12.0 | 0.00 | 0.27 | 0.27 | 59 | 1016.8 |
| 20260504004713 | 73 | 78 | 8.0 | 12.0 | 0.00 | 0.27 | 0.27 | 61 | 1016.8 |
| 20260504004707 | 70 | 91 | 13.0 | 18.0 | 0.00 | 0.27 | 0.27 | 70 | 1017.1 |
| 20260504004541 | 72 | 123 | 8.0 | 12.0 | 0.00 | 0.27 | 0.27 | 64 | 1016.8 |
| 20260504004536 | 71 | 80 | 10.0 | 14.0 | 0.00 | 0.27 | 0.27 | 63 | 1016.9 |
| 20260504004530 | 70 | 80 | 12.0 | 18.0 | 0.00 | 0.27 | 0.27 | 69 | 1017.1 |
| 20260504004523 | 71 | 96 | 10.0 | 14.0 | 0.00 | 0.27 | 0.27 | 63 | 1016.6 |
| 20260504004519 | 71 | 87 | 12.0 | 15.0 | 0.00 | 0.27 | 0.27 | 64 | 1016.8 |
| 20260504004513 | 71 | 0 | 13.0 | 18.0 | 0.00 | 0.27 | 0.27 | 70 | 1017.0 |
| 20260504004508 | 70 | 76 | 12.0 | 16.0 | 0.00 | 0.27 | 0.27 | 70 | 1017.0 |
| 20260504004504 | 71 | 90 | 13.0 | 18.0 | 0.00 | 0.27 | 0.27 | 69 | 1017.1 |
| 20260504004333 | 69 | 0 | 12.0 | 15.0 | 0.00 | 0.27 | 0.27 | 70 | 1017.0 |
| 20260504004328 | 69 | 0 | 11.0 | 14.0 | 0.00 | 0.27 | 0.27 | 70 | 1017.1 |
| 20260504004313 | 69 | 0 | 9.0 | 14.0 | 0.00 | 0.27 | 0.27 | 71 | 1017.1 |
| 20260504004034 | 70 | 80 | 12.0 | 18.0 | 0.00 | 0.27 | 0.27 | 69 | 1017.1 |
| 20260504004029 | 70 | 76 | 12.0 | 16.0 | 0.00 | 0.27 | 0.27 | 70 | 1017.0 |
| 20260504003901 | 66 | 0 | 8.0 | 13.0 | 0.06 | 0.09 | 0.06 | 86 | 1018.7 |
| 20260504003856 | 67 | 342 | 10.0 | 19.0 | 0.06 | 0.09 | 0.06 | 86 | 1018.6 |
| 20260504003850 | 65 | 0 | 14.0 | 20.0 | 0.06 | 0.09 | 0.06 | 89 | 1018.5 |
| 20260504003845 | 71 | 90 | 13.0 | 18.0 | 0.00 | 0.27 | 0.27 | 69 | 1017.1 |
| 20260504003841 | 69 | 0 | 12.0 | 15.0 | 0.00 | 0.27 | 0.27 | 70 | 1017.0 |
| 20260504003835 | 64 | 22 | 12.0 | 20.0 | 0.06 | 0.09 | 0.06 | 90 | 1018.3 |
| 20260504003830 | 76 | 83 | 10.0 | 21.0 | 0.00 | 0.27 | 0.27 | 59 | 1016.9 |
| 20260504003824 | 76 | 101 | 11.0 | 15.0 | 0.00 | 0.27 | 0.27 | 63 | 1016.7 |
| 20260504003820 | 69 | 0 | 11.0 | 14.0 | 0.00 | 0.27 | 0.27 | 70 | 1017.1 |
| 20260504003814 | 75 | 96 | 11.0 | 18.0 | 0.00 | 0.27 | 0.27 | 63 | 1016.8 |
| 20260504003807 | 75 | 76 | 6.0 | 18.0 | 0.00 | 0.27 | 0.27 | 59 | 1016.7 |
| 20260504003802 | 75 | 71 | 10.0 | 14.0 | 0.00 | 0.27 | 0.27 | 63 | 1016.6 |
| 20260504003756 | 75 | 85 | 7.0 | 14.0 | 0.00 | 0.27 | 0.27 | 63 | 1016.6 |
| 20260504003751 | 75 | 78 | 8.0 | 15.0 | 0.00 | 0.27 | 0.27 | 57 | 1016.7 |
| 20260504003746 | 71 | 96 | 10.0 | 14.0 | 0.00 | 0.27 | 0.27 | 63 | 1016.6 |
| 20260504003619 | 74 | 78 | 7.0 | 12.0 | 0.00 | 0.27 | 0.27 | 61 | 1016.8 |
| 20260504003615 | 74 | 86 | 8.0 | 12.0 | 0.00 | 0.27 | 0.27 | 59 | 1016.8 |
| 20260504003608 | 71 | 87 | 12.0 | 15.0 | 0.00 | 0.27 | 0.27 | 64 | 1016.8 |
| 20260504003603 | 71 | 101 | 11.0 | 15.0 | 0.00 | 0.27 | 0.27 | 66 | 1017.0 |
| 20260504003557 | 74 | 74 | 6.0 | 13.0 | 0.00 | 0.27 | 0.27 | 58 | 1016.8 |
| 20260504003551 | 70 | 80 | 12.0 | 18.0 | 0.00 | 0.27 | 0.27 | 69 | 1017.1 |
| 20260504003547 | 70 | 91 | 13.0 | 18.0 | 0.00 | 0.27 | 0.27 | 70 | 1017.1 |
| 20260504003543 | 73 | 78 | 8.0 | 12.0 | 0.00 | 0.27 | 0.27 | 61 | 1016.8 |
| 20260504003538 | 72 | 123 | 8.0 | 12.0 | 0.00 | 0.27 | 0.27 | 64 | 1016.8 |
| 20260504003532 | 71 | 80 | 10.0 | 14.0 | 0.00 | 0.27 | 0.27 | 63 | 1016.9 |
| 20260504003402 | 70 | 76 | 12.0 | 16.0 | 0.00 | 0.27 | 0.27 | 70 | 1017.0 |
| 20260504003356 | 71 | 90 | 13.0 | 18.0 | 0.00 | 0.27 | 0.27 | 69 | 1017.1 |
| 20260504003351 | 69 | 0 | 12.0 | 15.0 | 0.00 | 0.27 | 0.27 | 70 | 1017.0 |
| 20260504003330 | 69 | 0 | 11.0 | 14.0 | 0.00 | 0.27 | 0.27 | 70 | 1017.1 |
| 20260504003055 | 71 | 101 | 11.0 | 15.0 | 0.00 | 0.27 | 0.27 | 66 | 1017.0 |
| 20260504003050 | 70 | 91 | 13.0 | 18.0 | 0.00 | 0.27 | 0.27 | 70 | 1017.1 |
| 20260504003045 | 70 | 80 | 12.0 | 18.0 | 0.00 | 0.27 | 0.27 | 69 | 1017.1 |
| 20260504002918 | 63 | 325 | 7.0 | 14.0 | 0.00 | 0.03 | 0.00 | 92 | 1018.2 |
| 20260504002914 | 62 | 9 | 5.0 | 10.0 | 0.00 | 0.03 | 0.00 | 94 | 1018.2 |
| 20260504002909 | 61 | 22 | 5.0 | 10.0 | 0.00 | 0.03 | 0.00 | 94 | 1018.2 |
| 20260504002902 | 61 | 351 | 4.0 | 10.0 | 0.00 | 0.03 | 0.00 | 95 | 1018.0 |
| 20260504002856 | 60 | 350 | 4.0 | 8.0 | 0.00 | 0.03 | 0.00 | 95 | 1017.9 |
| 20260504002852 | 70 | 76 | 12.0 | 16.0 | 0.00 | 0.27 | 0.27 | 70 | 1017.0 |
| 20260504002846 | 76 | 82 | 13.0 | 21.0 | 0.00 | 0.27 | 0.27 | 65 | 1017.0 |
| 20260504002840 | 76 | 93 | 8.0 | 16.0 | 0.00 | 0.27 | 0.27 | 62 | 1017.0 |
| 20260504002835 | 76 | 83 | 10.0 | 21.0 | 0.00 | 0.27 | 0.27 | 59 | 1016.9 |
| 20260504002831 | 76 | 101 | 11.0 | 15.0 | 0.00 | 0.27 | 0.27 | 63 | 1016.7 |
| 20260504002825 | 75 | 96 | 11.0 | 18.0 | 0.00 | 0.27 | 0.27 | 63 | 1016.8 |
| 20260504002820 | 75 | 76 | 6.0 | 18.0 | 0.00 | 0.27 | 0.27 | 59 | 1016.7 |
| 20260504002814 | 75 | 71 | 10.0 | 14.0 | 0.00 | 0.27 | 0.27 | 63 | 1016.6 |
| 20260504002809 | 71 | 0 | 13.0 | 18.0 | 0.00 | 0.27 | 0.27 | 70 | 1017.0 |
| 20260504002803 | 71 | 90 | 13.0 | 18.0 | 0.00 | 0.27 | 0.27 | 69 | 1017.1 |
| 20260504002756 | 69 | 0 | 12.0 | 15.0 | 0.00 | 0.27 | 0.27 | 70 | 1017.0 |
| 20260504002629 | 75 | 78 | 8.0 | 15.0 | 0.00 | 0.27 | 0.27 | 57 | 1016.7 |
| 20260504002623 | 74 | 61 | 6.0 | 13.0 | 0.00 | 0.27 | 0.27 | 57 | 1016.8 |
| 20260504002619 | 74 | 78 | 7.0 | 12.0 | 0.00 | 0.27 | 0.27 | 61 | 1016.8 |
| 20260504002614 | 74 | 86 | 8.0 | 12.0 | 0.00 | 0.27 | 0.27 | 59 | 1016.8 |
| 20260504002608 | 74 | 74 | 6.0 | 13.0 | 0.00 | 0.27 | 0.27 | 58 | 1016.8 |
| 20260504002601 | 73 | 78 | 8.0 | 12.0 | 0.00 | 0.27 | 0.27 | 61 | 1016.8 |
| 20260504002556 | 72 | 123 | 8.0 | 12.0 | 0.00 | 0.27 | 0.27 | 64 | 1016.8 |
| 20260504002550 | 71 | 80 | 10.0 | 14.0 | 0.00 | 0.27 | 0.27 | 63 | 1016.9 |
| 20260504002544 | 71 | 96 | 10.0 | 14.0 | 0.00 | 0.27 | 0.27 | 63 | 1016.6 |
| 20260504002539 | 71 | 87 | 12.0 | 15.0 | 0.00 | 0.27 | 0.27 | 64 | 1016.8 |
| 20260504002535 | 71 | 101 | 11.0 | 15.0 | 0.00 | 0.27 | 0.27 | 66 | 1017.0 |
| 20260504002529 | 70 | 91 | 13.0 | 18.0 | 0.00 | 0.27 | 0.27 | 70 | 1017.1 |
| 20260504002525 | 70 | 80 | 12.0 | 18.0 | 0.00 | 0.27 | 0.27 | 69 | 1017.1 |
| 20260504002236 | 71 | 90 | 13.0 | 18.0 | 0.00 | 0.27 | 0.27 | 69 | 1017.1 |
| 20260504002230 | 69 | 0 | 12.0 | 15.0 | 0.00 | 0.27 | 0.27 | 70 | 1017.0 |
| 20260504002104 | 76 | 83 | 10.0 | 21.0 | 0.00 | 0.27 | 0.27 | 59 | 1016.9 |
| 20260504002058 | 76 | 101 | 11.0 | 15.0 | 0.00 | 0.27 | 0.27 | 63 | 1016.7 |
| 20260504002051 | 75 | 96 | 11.0 | 18.0 | 0.00 | 0.27 | 0.27 | 63 | 1016.8 |
| 20260504002046 | 75 | 76 | 6.0 | 18.0 | 0.00 | 0.27 | 0.27 | 59 | 1016.7 |
| 20260504002040 | 75 | 71 | 10.0 | 14.0 | 0.00 | 0.27 | 0.27 | 63 | 1016.6 |
| 20260504002035 | 70 | 80 | 12.0 | 18.0 | 0.00 | 0.27 | 0.27 | 69 | 1017.1 |
| 20260504002031 | 75 | 85 | 7.0 | 14.0 | 0.00 | 0.27 | 0.27 | 63 | 1016.6 |
| 20260504002025 | 70 | 91 | 13.0 | 18.0 | 0.00 | 0.27 | 0.27 | 70 | 1017.1 |
| 20260504002020 | 75 | 78 | 8.0 | 15.0 | 0.00 | 0.27 | 0.27 | 57 | 1016.7 |
| 20260504001852 | 74 | 78 | 7.0 | 12.0 | 0.00 | 0.27 | 0.27 | 61 | 1016.8 |
| 20260504001847 | 74 | 86 | 8.0 | 12.0 | 0.00 | 0.27 | 0.27 | 59 | 1016.8 |
| 20260504001842 | 74 | 74 | 6.0 | 13.0 | 0.00 | 0.27 | 0.27 | 58 | 1016.8 |
| 20260504001836 | 73 | 78 | 8.0 | 12.0 | 0.00 | 0.27 | 0.27 | 61 | 1016.8 |
| 20260504001832 | 70 | 76 | 12.0 | 16.0 | 0.00 | 0.27 | 0.27 | 70 | 1017.0 |
| 20260504001706 | 71 | 80 | 10.0 | 14.0 | 0.00 | 0.27 | 0.27 | 63 | 1016.9 |
| 20260504001702 | 71 | 96 | 10.0 | 14.0 | 0.00 | 0.27 | 0.27 | 63 | 1016.6 |
| 20260504001657 | 71 | 87 | 12.0 | 15.0 | 0.00 | 0.27 | 0.27 | 64 | 1016.8 |
| 20260504001649 | 71 | 101 | 11.0 | 15.0 | 0.00 | 0.27 | 0.27 | 66 | 1017.0 |
| 20260504001645 | 71 | 0 | 13.0 | 18.0 | 0.00 | 0.27 | 0.27 | 70 | 1017.0 |
| 20260504001640 | 71 | 90 | 13.0 | 18.0 | 0.00 | 0.27 | 0.27 | 69 | 1017.1 |
| 20260504001506 | 70 | 80 | 12.0 | 18.0 | 0.00 | 0.27 | 0.27 | 69 | 1017.1 |
| 20260504001220 | 75 | 78 | 8.0 | 15.0 | 0.00 | 0.27 | 0.27 | 57 | 1016.7 |
| 20260504001214 | 74 | 78 | 7.0 | 12.0 | 0.00 | 0.27 | 0.27 | 61 | 1016.8 |
| 20260504001209 | 74 | 61 | 6.0 | 13.0 | 0.00 | 0.27 | 0.27 | 57 | 1016.8 |
| 20260504001203 | 74 | 86 | 8.0 | 12.0 | 0.00 | 0.27 | 0.27 | 59 | 1016.8 |
| 20260504001159 | 74 | 74 | 6.0 | 13.0 | 0.00 | 0.27 | 0.27 | 58 | 1016.8 |
| 20260504001153 | 73 | 78 | 8.0 | 12.0 | 0.00 | 0.27 | 0.27 | 61 | 1016.8 |
| 20260504001148 | 72 | 123 | 8.0 | 12.0 | 0.00 | 0.27 | 0.27 | 64 | 1016.8 |
| 20260504001141 | 71 | 80 | 10.0 | 14.0 | 0.00 | 0.27 | 0.27 | 63 | 1016.9 |
| 20260504001135 | 71 | 96 | 10.0 | 14.0 | 0.00 | 0.27 | 0.27 | 63 | 1016.6 |
| 20260504001131 | 71 | 101 | 11.0 | 15.0 | 0.00 | 0.27 | 0.27 | 66 | 1017.0 |
| 20260504001126 | 71 | 0 | 13.0 | 18.0 | 0.00 | 0.27 | 0.27 | 70 | 1017.0 |
| 20260504001120 | 71 | 90 | 13.0 | 18.0 | 0.00 | 0.27 | 0.27 | 69 | 1017.1 |
| 20260504000954 | 70 | 91 | 13.0 | 18.0 | 0.00 | 0.27 | 0.27 | 70 | 1017.1 |
| 20260504000948 | 71 | 87 | 12.0 | 15.0 | 0.00 | 0.27 | 0.27 | 64 | 1016.8 |
| 20260504000821 | 59 | 295 | 3.0 | 6.0 | 0.00 | 0.03 | 0.00 | 96 | 1017.7 |
| 20260504000815 | 58 | 327 | 2.0 | 6.0 | 0.00 | 0.03 | 0.00 | 96 | 1017.7 |
| 20260504000810 | 59 | 311 | 3.0 | 6.0 | 0.00 | 0.03 | 0.00 | 96 | 1017.5 |
| 20260504000804 | 59 | 355 | 2.0 | 6.0 | 0.00 | 0.03 | 0.00 | 96 | 1017.4 |
| 20260504000759 | 59 | 298 | 2.0 | 4.0 | 0.00 | 0.03 | 0.00 | 96 | 1017.4 |
| 20260504000753 | 70 | 80 | 12.0 | 18.0 | 0.00 | 0.27 | 0.27 | 69 | 1017.1 |
| 20260504000748 | 59 | 305 | 2.0 | 4.0 | 0.00 | 0.03 | 0.00 | 96 | 1017.3 |
| 20260504000742 | 76 | 93 | 8.0 | 16.0 | 0.00 | 0.27 | 0.27 | 62 | 1017.0 |
| 20260504000735 | 76 | 82 | 13.0 | 21.0 | 0.00 | 0.27 | 0.27 | 65 | 1017.0 |
| 20260504000730 | 76 | 83 | 10.0 | 21.0 | 0.00 | 0.27 | 0.27 | 59 | 1016.9 |
| 20260504000724 | 76 | 101 | 11.0 | 15.0 | 0.00 | 0.27 | 0.27 | 63 | 1016.7 |
| 20260504000720 | 75 | 96 | 11.0 | 18.0 | 0.00 | 0.27 | 0.27 | 63 | 1016.8 |
| 20260504000715 | 75 | 76 | 6.0 | 18.0 | 0.00 | 0.27 | 0.27 | 59 | 1016.7 |
| 20260504000709 | 75 | 71 | 10.0 | 14.0 | 0.00 | 0.27 | 0.27 | 63 | 1016.6 |
| 20260504000704 | 75 | 85 | 7.0 | 14.0 | 0.00 | 0.27 | 0.27 | 63 | 1016.6 |
| 20260504000658 | 75 | 78 | 8.0 | 15.0 | 0.00 | 0.27 | 0.27 | 57 | 1016.7 |
| 20260504000654 | 74 | 61 | 6.0 | 13.0 | 0.00 | 0.27 | 0.27 | 57 | 1016.8 |
| 20260504000650 | 71 | 101 | 11.0 | 15.0 | 0.00 | 0.27 | 0.27 | 66 | 1017.0 |
| 20260504000644 | 74 | 78 | 7.0 | 12.0 | 0.00 | 0.27 | 0.27 | 61 | 1016.8 |
| 20260504000639 | 74 | 86 | 8.0 | 12.0 | 0.00 | 0.27 | 0.27 | 59 | 1016.8 |
| 20260504000632 | 71 | 0 | 13.0 | 18.0 | 0.00 | 0.27 | 0.27 | 70 | 1017.0 |
| 20260504000626 | 74 | 74 | 6.0 | 13.0 | 0.00 | 0.27 | 0.27 | 58 | 1016.8 |
| 20260504000621 | 73 | 78 | 8.0 | 12.0 | 0.00 | 0.27 | 0.27 | 61 | 1016.8 |
| 20260504000615 | 72 | 123 | 8.0 | 12.0 | 0.00 | 0.27 | 0.27 | 64 | 1016.8 |
| 20260504000611 | 71 | 80 | 10.0 | 14.0 | 0.00 | 0.27 | 0.27 | 63 | 1016.9 |
| 20260504000606 | 71 | 96 | 10.0 | 14.0 | 0.00 | 0.27 | 0.27 | 63 | 1016.6 |
| 20260504000600 | 71 | 90 | 13.0 | 18.0 | 0.00 | 0.27 | 0.27 | 69 | 1017.1 |
| 20260504000302 | 70 | 80 | 12.0 | 18.0 | 0.00 | 0.27 | 0.27 | 69 | 1017.1 |
| 20260504000146 | 59 | 310 | 2.0 | 5.0 | 0.00 | 0.03 | 0.00 | 96 | 1017.2 |
| 20260504000140 | 59 | 355 | 3.0 | 7.0 | 0.00 | 0.03 | 0.00 | 96 | 1017.0 |
| 20260504000133 | 71 | 0 | 13.0 | 18.0 | 0.00 | 0.27 | 0.27 | 70 | 1017.0 |
| 20260504000127 | 76 | 86 | 8.0 | 14.0 | 0.00 | 0.27 | 0.27 | 59 | 1017.2 |
| 20260504000123 | 75 | 82 | 8.0 | 14.0 | 0.00 | 0.27 | 0.27 | 60 | 1017.1 |
| 20260504000118 | 75 | 100 | 8.0 | 14.0 | 0.00 | 0.27 | 0.27 | 64 | 1017.4 |
| 20260504000112 | 76 | 93 | 8.0 | 16.0 | 0.00 | 0.27 | 0.27 | 62 | 1017.0 |
| 20260504000107 | 76 | 82 | 13.0 | 21.0 | 0.00 | 0.27 | 0.27 | 65 | 1017.0 |
| 20260504000057 | 76 | 101 | 11.0 | 15.0 | 0.00 | 0.27 | 0.27 | 63 | 1016.7 |
| 20260504000052 | 71 | 90 | 13.0 | 18.0 | 0.00 | 0.27 | 0.27 | 69 | 1017.1 |
| 20260503235926 | 75 | 76 | 6.0 | 18.0 | 0.00 | 0.27 | 0.27 | 59 | 1016.7 |
| 20260503235921 | 75 | 71 | 10.0 | 14.0 | 0.00 | 0.27 | 0.27 | 63 | 1016.6 |
| 20260503235915 | 75 | 85 | 7.0 | 14.0 | 0.00 | 0.27 | 0.27 | 63 | 1016.6 |
| 20260503235911 | 75 | 78 | 8.0 | 15.0 | 0.00 | 0.27 | 0.27 | 57 | 1016.7 |
| 20260503235905 | 74 | 61 | 6.0 | 13.0 | 0.00 | 0.27 | 0.27 | 57 | 1016.8 |
| 20260503235900 | 74 | 78 | 7.0 | 12.0 | 0.00 | 0.27 | 0.27 | 61 | 1016.8 |
| 20260503235855 | 72 | 123 | 8.0 | 12.0 | 0.00 | 0.27 | 0.27 | 64 | 1016.8 |
| 20260503235849 | 70 | 91 | 13.0 | 18.0 | 0.00 | 0.27 | 0.27 | 70 | 1017.1 |
| 20260503235845 | 74 | 86 | 8.0 | 12.0 | 0.00 | 0.27 | 0.27 | 59 | 1016.8 |
| 20260503235717 | 73 | 78 | 8.0 | 12.0 | 0.00 | 0.27 | 0.27 | 61 | 1016.8 |
| 20260503235713 | 71 | 96 | 10.0 | 14.0 | 0.00 | 0.27 | 0.27 | 63 | 1016.6 |
| 20260503235707 | 71 | 80 | 10.0 | 14.0 | 0.00 | 0.27 | 0.27 | 63 | 1016.9 |
| 20260503235702 | 71 | 87 | 12.0 | 15.0 | 0.00 | 0.27 | 0.27 | 64 | 1016.8 |
| 20260503235656 | 71 | 101 | 11.0 | 15.0 | 0.00 | 0.27 | 0.27 | 66 | 1017.0 |
| 20260503235651 | 71 | 0 | 13.0 | 18.0 | 0.00 | 0.27 | 0.27 | 70 | 1017.0 |
| 20260503235403 | 76 | 83 | 10.0 | 21.0 | 0.00 | 0.27 | 0.27 | 59 | 1016.9 |
| 20260503235357 | 76 | 101 | 11.0 | 15.0 | 0.00 | 0.27 | 0.27 | 63 | 1016.7 |
| 20260503235353 | 75 | 76 | 6.0 | 18.0 | 0.00 | 0.27 | 0.27 | 59 | 1016.7 |
| 20260503235348 | 72 | 123 | 8.0 | 12.0 | 0.00 | 0.27 | 0.27 | 64 | 1016.8 |
| 20260503235327 | 70 | 91 | 13.0 | 18.0 | 0.00 | 0.27 | 0.27 | 70 | 1017.1 |
| 20260503235214 | 71 | 96 | 10.0 | 14.0 | 0.00 | 0.27 | 0.27 | 63 | 1016.6 |
| 20260503235209 | 76 | 82 | 13.0 | 21.0 | 0.00 | 0.27 | 0.27 | 65 | 1017.0 |
| 20260503235204 | 75 | 96 | 11.0 | 18.0 | 0.00 | 0.27 | 0.27 | 63 | 1016.8 |
| 20260503235159 | 75 | 71 | 10.0 | 14.0 | 0.00 | 0.27 | 0.27 | 63 | 1016.6 |
| 20260503235154 | 75 | 85 | 7.0 | 14.0 | 0.00 | 0.27 | 0.27 | 63 | 1016.6 |
| 20260503235149 | 75 | 78 | 8.0 | 15.0 | 0.00 | 0.27 | 0.27 | 57 | 1016.7 |
| 20260503235144 | 74 | 61 | 6.0 | 13.0 | 0.00 | 0.27 | 0.27 | 57 | 1016.8 |
| 20260503235017 | 74 | 86 | 8.0 | 12.0 | 0.00 | 0.27 | 0.27 | 59 | 1016.8 |
| 20260503235011 | 74 | 74 | 6.0 | 13.0 | 0.00 | 0.27 | 0.27 | 58 | 1016.8 |
| 20260503235005 | 60 | 336 | 3.0 | 6.0 | 0.00 | 0.03 | 0.00 | 96 | 1016.7 |
| 20260503235001 | 71 | 87 | 12.0 | 15.0 | 0.00 | 0.27 | 0.27 | 64 | 1016.8 |
| 20260503234956 | 60 | 302 | 3.0 | 6.0 | 0.00 | 0.03 | 0.00 | 96 | 1016.7 |
| 20260503234950 | 71 | 101 | 11.0 | 15.0 | 0.00 | 0.27 | 0.27 | 66 | 1017.0 |
| 20260503234944 | 76 | 65 | 8.0 | 14.0 | 0.00 | 0.27 | 0.27 | 63 | 1017.4 |
| 20260503234939 | 73 | 78 | 8.0 | 12.0 | 0.00 | 0.27 | 0.27 | 61 | 1016.8 |
| 20260503234935 | 71 | 0 | 13.0 | 18.0 | 0.00 | 0.27 | 0.27 | 70 | 1017.0 |
| 20260503234929 | 71 | 90 | 13.0 | 18.0 | 0.00 | 0.27 | 0.27 | 69 | 1017.1 |
| 20260503234802 | 76 | 86 | 8.0 | 14.0 | 0.00 | 0.27 | 0.27 | 59 | 1017.2 |
| 20260503234757 | 75 | 82 | 8.0 | 14.0 | 0.00 | 0.27 | 0.27 | 60 | 1017.1 |
| 20260503234752 | 75 | 100 | 8.0 | 14.0 | 0.00 | 0.27 | 0.27 | 64 | 1017.4 |
| 20260503234748 | 76 | 83 | 10.0 | 21.0 | 0.00 | 0.27 | 0.27 | 59 | 1016.9 |
| 20260503234742 | 76 | 101 | 11.0 | 15.0 | 0.00 | 0.27 | 0.27 | 63 | 1016.7 |
| 20260503234737 | 75 | 76 | 6.0 | 18.0 | 0.00 | 0.27 | 0.27 | 59 | 1016.7 |
| 20260503234731 | 72 | 123 | 8.0 | 12.0 | 0.00 | 0.27 | 0.27 | 64 | 1016.8 |
| 20260503234726 | 71 | 80 | 10.0 | 14.0 | 0.00 | 0.27 | 0.27 | 63 | 1016.9 |
| 20260503234720 | 71 | 96 | 10.0 | 14.0 | 0.00 | 0.27 | 0.27 | 63 | 1016.6 |
| 20260503234553 | 76 | 82 | 13.0 | 21.0 | 0.00 | 0.27 | 0.27 | 65 | 1017.0 |
| 20260503234547 | 75 | 96 | 11.0 | 18.0 | 0.00 | 0.27 | 0.27 | 63 | 1016.8 |
| 20260503234543 | 75 | 71 | 10.0 | 14.0 | 0.00 | 0.27 | 0.27 | 63 | 1016.6 |
| 20260503234537 | 75 | 85 | 7.0 | 14.0 | 0.00 | 0.27 | 0.27 | 63 | 1016.6 |
| 20260503234532 | 74 | 61 | 6.0 | 13.0 | 0.00 | 0.27 | 0.27 | 57 | 1016.8 |
| 20260503234527 | 74 | 78 | 7.0 | 12.0 | 0.00 | 0.27 | 0.27 | 61 | 1016.8 |
| 20260503234522 | 75 | 78 | 8.0 | 15.0 | 0.00 | 0.27 | 0.27 | 57 | 1016.7 |
| 20260503234516 | 74 | 74 | 6.0 | 13.0 | 0.00 | 0.27 | 0.27 | 58 | 1016.8 |
| 20260503234510 | 74 | 86 | 8.0 | 12.0 | 0.00 | 0.27 | 0.27 | 59 | 1016.8 |
| 20260503234504 | 71 | 87 | 12.0 | 15.0 | 0.00 | 0.27 | 0.27 | 64 | 1016.8 |
| 20260503234459 | 71 | 101 | 11.0 | 15.0 | 0.00 | 0.27 | 0.27 | 66 | 1017.0 |
| 20260503234333 | 71 | 0 | 13.0 | 18.0 | 0.00 | 0.27 | 0.27 | 70 | 1017.0 |
| 20260503234314 | 71 | 90 | 13.0 | 18.0 | 0.00 | 0.27 | 0.27 | 69 | 1017.1 |
| 20260503234159 | 77 | 47 | 8.0 | 12.0 | 0.00 | 0.27 | 0.27 | 57 | 1017.9 |
| 20260503234154 | 75 | 76 | 6.0 | 18.0 | 0.00 | 0.27 | 0.27 | 59 | 1016.7 |
| 20260503234149 | 76 | 101 | 11.0 | 15.0 | 0.00 | 0.27 | 0.27 | 63 | 1016.7 |
| 20260503234144 | 78 | 19 | 6.0 | 11.0 | 0.21 | 0.27 | 0.27 | 61 | 1018.1 |
| 20260503234138 | 72 | 123 | 8.0 | 12.0 | 0.00 | 0.27 | 0.27 | 64 | 1016.8 |
| 20260503234133 | 71 | 80 | 10.0 | 14.0 | 0.00 | 0.27 | 0.27 | 63 | 1016.9 |
| 20260503234127 | 78 | 39 | 8.0 | 14.0 | 0.21 | 0.27 | 0.27 | 61 | 1018.2 |
| 20260503234123 | 71 | 96 | 10.0 | 14.0 | 0.00 | 0.27 | 0.27 | 63 | 1016.6 |
| 20260503234119 | 76 | 65 | 8.0 | 14.0 | 0.00 | 0.27 | 0.27 | 63 | 1017.4 |
| 20260503234113 | 75 | 73 | 6.0 | 11.0 | 0.00 | 0.27 | 0.27 | 59 | 1017.6 |
| 20260503234105 | 76 | 86 | 8.0 | 14.0 | 0.00 | 0.27 | 0.27 | 59 | 1017.2 |
| 20260503234101 | 75 | 82 | 8.0 | 14.0 | 0.00 | 0.27 | 0.27 | 60 | 1017.1 |
| 20260503234055 | 75 | 100 | 8.0 | 14.0 | 0.00 | 0.27 | 0.27 | 64 | 1017.4 |
| 20260503234050 | 76 | 93 | 8.0 | 16.0 | 0.00 | 0.27 | 0.27 | 62 | 1017.0 |
| 20260503234044 | 76 | 82 | 13.0 | 21.0 | 0.00 | 0.27 | 0.27 | 65 | 1017.0 |
| 20260503234039 | 76 | 83 | 10.0 | 21.0 | 0.00 | 0.27 | 0.27 | 59 | 1016.9 |
| 20260503234033 | 75 | 96 | 11.0 | 18.0 | 0.00 | 0.27 | 0.27 | 63 | 1016.8 |
| 20260503234029 | 75 | 85 | 7.0 | 14.0 | 0.00 | 0.27 | 0.27 | 63 | 1016.6 |
| 20260503234023 | 75 | 71 | 10.0 | 14.0 | 0.00 | 0.27 | 0.27 | 63 | 1016.6 |
| 20260503234019 | 75 | 78 | 8.0 | 15.0 | 0.00 | 0.27 | 0.27 | 57 | 1016.7 |
| 20260503234014 | 74 | 61 | 6.0 | 13.0 | 0.00 | 0.27 | 0.27 | 57 | 1016.8 |
| 20260503234008 | 74 | 78 | 7.0 | 12.0 | 0.00 | 0.27 | 0.27 | 61 | 1016.8 |
| 20260503234001 | 74 | 74 | 6.0 | 13.0 | 0.00 | 0.27 | 0.27 | 58 | 1016.8 |
| 20260503233957 | 71 | 87 | 12.0 | 15.0 | 0.00 | 0.27 | 0.27 | 64 | 1016.8 |
| 20260503233951 | 71 | 101 | 11.0 | 15.0 | 0.00 | 0.27 | 0.27 | 66 | 1017.0 |
| 20260503233826 | 71 | 0 | 13.0 | 18.0 | 0.00 | 0.27 | 0.27 | 70 | 1017.0 |
| 20260503233657 | 73 | 78 | 8.0 | 12.0 | 0.00 | 0.27 | 0.27 | 61 | 1016.8 |
| 20260503233652 | 75 | 76 | 6.0 | 18.0 | 0.00 | 0.27 | 0.27 | 59 | 1016.7 |
| 20260503233646 | 72 | 123 | 8.0 | 12.0 | 0.00 | 0.27 | 0.27 | 64 | 1016.8 |
| 20260503233641 | 71 | 80 | 10.0 | 14.0 | 0.00 | 0.27 | 0.27 | 63 | 1016.9 |
| 20260503233635 | 71 | 96 | 10.0 | 14.0 | 0.00 | 0.27 | 0.27 | 63 | 1016.6 |
| 20260503233506 | 75 | 85 | 7.0 | 14.0 | 0.00 | 0.27 | 0.27 | 63 | 1016.6 |
| 20260503233459 | 75 | 78 | 8.0 | 15.0 | 0.00 | 0.27 | 0.27 | 57 | 1016.7 |
| 20260503233454 | 74 | 61 | 6.0 | 13.0 | 0.00 | 0.27 | 0.27 | 57 | 1016.8 |
| 20260503233450 | 71 | 87 | 12.0 | 15.0 | 0.00 | 0.27 | 0.27 | 64 | 1016.8 |
| 20260503233444 | 74 | 78 | 7.0 | 12.0 | 0.00 | 0.27 | 0.27 | 61 | 1016.8 |
| 20260503233318 | 71 | 101 | 11.0 | 15.0 | 0.00 | 0.27 | 0.27 | 66 | 1017.0 |
| 20260503233313 | 74 | 74 | 6.0 | 13.0 | 0.00 | 0.27 | 0.27 | 58 | 1016.8 |
| 20260503233300 | 71 | 0 | 13.0 | 18.0 | 0.00 | 0.27 | 0.27 | 70 | 1017.0 |
| 20260503233141 | 78 | 23 | 10.0 | 14.0 | 0.21 | 0.27 | 0.27 | 56 | 1018.3 |
| 20260503233135 | 73 | 78 | 8.0 | 12.0 | 0.00 | 0.27 | 0.27 | 61 | 1016.8 |
| 20260503233130 | 72 | 123 | 8.0 | 12.0 | 0.00 | 0.27 | 0.27 | 64 | 1016.8 |
| 20260503233126 | 71 | 80 | 10.0 | 14.0 | 0.00 | 0.27 | 0.27 | 63 | 1016.9 |
| 20260503233120 | 71 | 96 | 10.0 | 14.0 | 0.00 | 0.27 | 0.27 | 63 | 1016.6 |
| 20260503232951 | 77 | 12 | 10.0 | 13.0 | 0.21 | 0.27 | 0.27 | 61 | 1018.4 |
| 20260503232946 | 76 | 64 | 5.0 | 14.0 | 0.00 | 0.27 | 0.27 | 58 | 1017.7 |
| 20260503232940 | 71 | 87 | 12.0 | 15.0 | 0.00 | 0.27 | 0.27 | 64 | 1016.8 |
| 20260503232935 | 76 | 65 | 8.0 | 14.0 | 0.00 | 0.27 | 0.27 | 63 | 1017.4 |
| 20260503232930 | 75 | 73 | 6.0 | 11.0 | 0.00 | 0.27 | 0.27 | 59 | 1017.6 |
| 20260503232926 | 76 | 86 | 8.0 | 14.0 | 0.00 | 0.27 | 0.27 | 59 | 1017.2 |
| 20260503232921 | 75 | 82 | 8.0 | 14.0 | 0.00 | 0.27 | 0.27 | 60 | 1017.1 |
| 20260503232915 | 75 | 100 | 8.0 | 14.0 | 0.00 | 0.27 | 0.27 | 64 | 1017.4 |
| 20260503232910 | 76 | 93 | 8.0 | 16.0 | 0.00 | 0.27 | 0.27 | 62 | 1017.0 |
| 20260503232904 | 76 | 82 | 13.0 | 21.0 | 0.00 | 0.27 | 0.27 | 65 | 1017.0 |
| 20260503232859 | 76 | 83 | 10.0 | 21.0 | 0.00 | 0.27 | 0.27 | 59 | 1016.9 |
| 20260503232851 | 75 | 96 | 11.0 | 18.0 | 0.00 | 0.27 | 0.27 | 63 | 1016.8 |
| 20260503232846 | 76 | 101 | 11.0 | 15.0 | 0.00 | 0.27 | 0.27 | 63 | 1016.7 |
| 20260503232842 | 75 | 76 | 6.0 | 18.0 | 0.00 | 0.27 | 0.27 | 59 | 1016.7 |
| 20260503232836 | 75 | 71 | 10.0 | 14.0 | 0.00 | 0.27 | 0.27 | 63 | 1016.6 |
| 20260503232831 | 75 | 85 | 7.0 | 14.0 | 0.00 | 0.27 | 0.27 | 63 | 1016.6 |
| 20260503232825 | 75 | 78 | 8.0 | 15.0 | 0.00 | 0.27 | 0.27 | 57 | 1016.7 |
| 20260503232820 | 74 | 61 | 6.0 | 13.0 | 0.00 | 0.27 | 0.27 | 57 | 1016.8 |
| 20260503232814 | 74 | 74 | 6.0 | 13.0 | 0.00 | 0.27 | 0.27 | 58 | 1016.8 |
| 20260503232810 | 71 | 101 | 11.0 | 15.0 | 0.00 | 0.27 | 0.27 | 66 | 1017.0 |
| 20260503232643 | 74 | 86 | 8.0 | 12.0 | 0.00 | 0.27 | 0.27 | 59 | 1016.8 |
| 20260503232517 | 72 | 123 | 8.0 | 12.0 | 0.00 | 0.27 | 0.27 | 64 | 1016.8 |
| 20260503232511 | 71 | 80 | 10.0 | 14.0 | 0.00 | 0.27 | 0.27 | 63 | 1016.9 |
| 20260503232506 | 71 | 96 | 10.0 | 14.0 | 0.00 | 0.27 | 0.27 | 63 | 1016.6 |
| 20260503232500 | 71 | 87 | 12.0 | 15.0 | 0.00 | 0.27 | 0.27 | 64 | 1016.8 |
| 20260503232332 | 76 | 64 | 5.0 | 14.0 | 0.00 | 0.27 | 0.27 | 58 | 1017.7 |
| 20260503232328 | 76 | 65 | 8.0 | 14.0 | 0.00 | 0.27 | 0.27 | 63 | 1017.4 |
| 20260503232323 | 76 | 86 | 8.0 | 14.0 | 0.00 | 0.27 | 0.27 | 59 | 1017.2 |
| 20260503232317 | 75 | 82 | 8.0 | 14.0 | 0.00 | 0.27 | 0.27 | 60 | 1017.1 |
| 20260503232312 | 75 | 100 | 8.0 | 14.0 | 0.00 | 0.27 | 0.27 | 64 | 1017.4 |
| 20260503232306 | 76 | 93 | 8.0 | 16.0 | 0.00 | 0.27 | 0.27 | 62 | 1017.0 |
| 20260503232301 | 76 | 82 | 13.0 | 21.0 | 0.00 | 0.27 | 0.27 | 65 | 1017.0 |
| 20260503232256 | 76 | 83 | 10.0 | 21.0 | 0.00 | 0.27 | 0.27 | 59 | 1016.9 |
| 20260503232251 | 75 | 96 | 11.0 | 18.0 | 0.00 | 0.27 | 0.27 | 63 | 1016.8 |
| 20260503232244 | 74 | 74 | 6.0 | 13.0 | 0.00 | 0.27 | 0.27 | 58 | 1016.8 |
| 20260503232238 | 71 | 101 | 11.0 | 15.0 | 0.00 | 0.27 | 0.27 | 66 | 1017.0 |
| 20260503232114 | 77 | 14 | 9.0 | 13.0 | 0.00 | 0.07 | 0.06 | 59 | 1018.6 |
| 20260503232109 | 77 | 355 | 9.0 | 14.0 | 0.00 | 0.07 | 0.06 | 59 | 1018.6 |
| 20260503232103 | 78 | 19 | 10.0 | 15.0 | 0.00 | 0.07 | 0.06 | 64 | 1018.7 |
| 20260503232059 | 78 | 24 | 10.0 | 14.0 | 0.00 | 0.07 | 0.06 | 62 | 1018.8 |
| 20260503232054 | 78 | 23 | 10.0 | 14.0 | 0.00 | 0.07 | 0.06 | 60 | 1018.9 |
| 20260503232048 | 77 | 17 | 9.0 | 15.0 | 0.00 | 0.07 | 0.06 | 62 | 1019.0 |
| 20260503232041 | 76 | 0 | 9.0 | 15.0 | 0.00 | 0.08 | 0.06 | 67 | 1019.2 |
| 20260503232036 | 75 | 85 | 7.0 | 14.0 | 0.00 | 0.27 | 0.27 | 63 | 1016.6 |
| 20260503232030 | 75 | 71 | 10.0 | 14.0 | 0.00 | 0.27 | 0.27 | 63 | 1016.6 |
| 20260503232025 | 76 | 101 | 11.0 | 15.0 | 0.00 | 0.27 | 0.27 | 63 | 1016.7 |
| 20260503232021 | 75 | 78 | 8.0 | 15.0 | 0.00 | 0.27 | 0.27 | 57 | 1016.7 |
| 20260503232015 | 75 | 76 | 6.0 | 18.0 | 0.00 | 0.27 | 0.27 | 59 | 1016.7 |
| 20260503232010 | 74 | 61 | 6.0 | 13.0 | 0.00 | 0.27 | 0.27 | 57 | 1016.8 |
| 20260503232004 | 74 | 78 | 7.0 | 12.0 | 0.00 | 0.27 | 0.27 | 61 | 1016.8 |
| 20260503231959 | 73 | 78 | 8.0 | 12.0 | 0.00 | 0.27 | 0.27 | 61 | 1016.8 |
| 20260503231953 | 72 | 123 | 8.0 | 12.0 | 0.00 | 0.27 | 0.27 | 64 | 1016.8 |
| 20260503231949 | 76 | 25 | 9.0 | 15.0 | 0.00 | 0.08 | 0.06 | 68 | 1019.2 |
| 20260503231941 | 76 | 14 | 10.0 | 15.0 | 0.00 | 0.08 | 0.06 | 70 | 1019.3 |
| 20260503231935 | 71 | 80 | 10.0 | 14.0 | 0.00 | 0.27 | 0.27 | 63 | 1016.9 |
| 20260503231931 | 77 | 47 | 8.0 | 12.0 | 0.00 | 0.27 | 0.27 | 57 | 1017.9 |
| 20260503231925 | 75 | 73 | 6.0 | 11.0 | 0.00 | 0.27 | 0.27 | 59 | 1017.6 |
| 20260503231920 | 74 | 86 | 8.0 | 12.0 | 0.00 | 0.27 | 0.27 | 59 | 1016.8 |
| 20260503231914 | 71 | 96 | 10.0 | 14.0 | 0.00 | 0.27 | 0.27 | 63 | 1016.6 |
| 20260503231909 | 71 | 87 | 12.0 | 15.0 | 0.00 | 0.27 | 0.27 | 64 | 1016.8 |
| 20260503231740 | 76 | 65 | 8.0 | 14.0 | 0.00 | 0.27 | 0.27 | 63 | 1017.4 |
| 20260503231736 | 76 | 86 | 8.0 | 14.0 | 0.00 | 0.27 | 0.27 | 59 | 1017.2 |
| 20260503231732 | 75 | 82 | 8.0 | 14.0 | 0.00 | 0.27 | 0.27 | 60 | 1017.1 |
| 20260503231726 | 75 | 100 | 8.0 | 14.0 | 0.00 | 0.27 | 0.27 | 64 | 1017.4 |
| 20260503231721 | 76 | 93 | 8.0 | 16.0 | 0.00 | 0.27 | 0.27 | 62 | 1017.0 |
| 20260503231716 | 76 | 82 | 13.0 | 21.0 | 0.00 | 0.27 | 0.27 | 65 | 1017.0 |
| 20260503231710 | 76 | 83 | 10.0 | 21.0 | 0.00 | 0.27 | 0.27 | 59 | 1016.9 |
| 20260503231704 | 75 | 96 | 11.0 | 18.0 | 0.00 | 0.27 | 0.27 | 63 | 1016.8 |
| 20260503231659 | 74 | 74 | 6.0 | 13.0 | 0.00 | 0.27 | 0.27 | 58 | 1016.8 |